[[{"header":{"parameterUnit":"m.s-1","parameterCategory":1,"la1":30.6,"la2":29.2853,"lo1":-89.7004,"lo2":-87.6739,"dy":0.0162,"dx":0.0183,"nx":112,"ny":82,"refTime":"2023-04-02T06:00:00:Z","depth":0,"parameterNumber":2,"parameterNumberName":"U-component_of_WINDS"},"data":[0.0,0.0,0.0,0.0,0.0,0.0,0.0,0.0,0.0,0.0,0.0,0.0,0.0,0.0,0.0,0.0,0.0,0.0,0.0,0.0,0.0,0.0,0.0,0.0,0.0,0.0,0.0,0.0,0.0,0.0,0.0,0.0,0.0,0.0,0.0,0.0,0.0,0.0,0.0,0.0,0.0,0.0,0.0,0.0,0.0,0.0,0.0,0.0,0.0,0.0,0.0,0.0,0.0,0.0,0.0,0.0,0.0,0.0,0.0,0.0,0.0,0.0,0.0,0.0,0.0,0.0,0.0,0.0,0.0,0.0,0.0,0.0,0.0,0.0,0.0,0.0,0.0,0.0,0.0,0.0,0.0,0.0,0.0,0.0,0.0,0.0,0.0,0.0,0.0,0.0,2.6973,2.754,2.76,2.76,2.76,2.76,2.76,2.76,0.0,0.0,0.0,0.0,0.0,0.0,0.0,0.0,0.0,0.0,0.0,0.0,0.0,0.0,0.0,0.0,0.0,0.0,0.0,0.0,0.0,0.0,0.0,0.0,0.0,0.0,0.0,0.0,0.0,0.0,0.0,0.0,0.0,0.0,0.0,0.0,0.0,0.0,0.0,0.0,0.0,0.0,0.0,0.0,0.0,0.0,0.0,0.0,0.0,0.0,0.0,0.0,0.0,0.0,0.0,0.0,0.0,0.0,0.0,0.0,0.0,0.0,0.0,0.0,0.0,0.0,0.0,0.0,0.0,0.0,0.0,0.0,0.0,0.0,0.0,0.0,0.0,0.0,0.0,0.0,0.0,0.0,0.0,0.0,0.0,0.0,0.0,0.0,0.0,0.0,0.0,0.0,0.0,0.0,0.0,0.0,0.0,0.0,0.0,0.0,0.0,0.0,0.0,0.0,2.748,2.7585,2.76,2.76,2.76,2.76,2.76,2.76,0.0,0.0,0.0,0.0,0.0,0.0,0.0,0.0,0.0,0.0,0.0,0.0,0.0,0.0,0.0,0.0,0.0,0.0,0.0,0.0,0.0,0.0,0.0,0.0,0.0,0.0,0.0,0.0,0.0,0.0,0.0,0.0,0.0,0.0,0.0,0.0,0.0,0.0,0.0,0.0,0.0,0.0,0.0,0.0,0.0,0.0,0.0,0.0,0.0,0.0,0.0,0.0,0.0,0.0,0.0,0.0,0.0,0.0,0.0,0.0,0.0,0.0,0.0,0.0,0.0,0.0,0.0,0.0,0.0,0.0,0.0,0.0,0.0,0.0,0.0,0.0,0.0,0.0,0.0,0.0,0.0,0.0,0.0,0.0,0.0,0.0,0.0,0.0,0.0,0.0,0.0,0.0,0.0,0.0,0.0,0.0,0.0,0.0,0.0,0.0,0.0,0.0,0.0,2.6734,2.6794,2.7525,2.727,2.721,2.757,2.76,2.76,2.76,2.7315,0.0,0.0,0.0,0.0,0.0,0.0,0.0,0.0,0.0,0.0,0.0,0.0,0.0,0.0,0.0,0.0,0.0,0.0,0.0,0.0,0.0,0.0,0.0,0.0,0.0,0.0,0.0,0.0,0.0,0.0,0.0,0.0,0.0,0.0,0.0,0.0,0.0,0.0,0.0,0.0,0.0,0.0,0.0,0.0,0.0,0.0,0.0,0.0,0.0,0.0,0.0,0.0,0.0,0.0,0.0,0.0,0.0,0.0,0.0,0.0,0.0,0.0,0.0,0.0,0.0,0.0,0.0,0.0,0.0,0.0,0.0,0.0,0.0,0.0,0.0,0.0,0.0,0.0,0.0,0.0,0.0,0.0,0.0,0.0,0.0,0.0,0.0,0.0,0.0,0.0,0.0,0.0,0.0,0.0,0.0,0.0,0.0,0.0,0.0,0.0,0.0,0.0,2.5914,2.6048,2.724,2.6911,2.6869,2.754,2.745,2.7435,2.7585,2.745,0.0,0.0,0.0,0.0,0.0,0.0,0.0,0.0,0.0,0.0,0.0,0.0,0.0,0.0,0.0,0.0,0.0,0.0,0.0,0.0,0.0,0.0,0.0,0.0,0.0,0.0,0.0,0.0,0.0,0.0,0.0,0.0,0.0,0.0,0.0,0.0,0.0,0.0,0.0,0.0,0.0,0.0,0.0,0.0,0.0,0.0,0.0,0.0,0.0,0.0,0.0,0.0,0.0,0.0,0.0,0.0,0.0,0.0,0.0,0.0,0.0,0.0,0.0,0.0,0.0,0.0,0.0,0.0,0.0,0.0,0.0,0.0,0.0,0.0,0.0,0.0,0.0,0.0,0.0,0.0,0.0,0.0,0.0,0.0,0.0,0.0,0.0,0.0,0.0,0.0,0.0,0.0,0.0,0.0,0.0,0.0,0.0,0.0,0.0,0.0,0.0,0.0,2.5618,2.5857,2.6584,2.6629,2.6869,2.754,2.7031,2.6929,2.7555,2.7031,0.0,0.0,0.0,0.0,0.0,0.0,0.0,0.0,0.0,0.0,0.0,0.0,0.0,0.0,0.0,0.0,0.0,0.0,0.0,0.0,0.0,0.0,0.0,0.0,0.0,0.0,0.0,0.0,0.0,0.0,0.0,0.0,0.0,0.0,0.0,0.0,0.0,0.0,0.0,0.0,0.0,0.0,0.0,0.0,0.0,0.0,0.0,0.0,0.0,0.0,0.0,0.0,0.0,0.0,0.0,0.0,0.0,0.0,0.0,0.0,0.0,0.0,0.0,0.0,0.0,0.0,0.0,0.0,0.0,0.0,0.0,0.0,0.0,0.0,0.0,0.0,0.0,0.0,0.0,0.0,0.0,0.0,0.0,0.0,0.0,0.0,0.0,0.0,0.0,0.0,0.0,0.0,0.0,0.0,0.0,0.0,0.0,0.0,0.0,0.0,0.0,0.0,2.4616,2.4926,0.0,2.6228,2.642,2.751,2.736,2.733,2.7585,0.0,0.0,0.0,0.0,0.0,0.0,0.0,0.0,0.0,0.0,0.0,0.0,0.0,0.0,0.0,0.0,0.0,0.0,0.0,0.0,0.0,0.0,0.0,0.0,0.0,0.0,0.0,0.0,0.0,0.0,0.0,0.0,0.0,0.0,0.0,0.0,0.0,0.0,0.0,0.0,0.0,0.0,0.0,0.0,0.0,0.0,0.0,0.0,0.0,0.0,0.0,0.0,0.0,0.0,0.0,0.0,0.0,0.0,0.0,0.0,0.0,0.0,0.0,0.0,0.0,0.0,0.0,0.0,0.0,0.0,0.0,0.0,0.0,0.0,0.0,0.0,0.0,0.0,0.0,0.0,0.0,0.0,0.0,0.0,0.0,0.0,0.0,0.0,0.0,0.0,0.0,0.0,0.0,0.0,0.0,0.0,0.0,0.0,0.0,0.0,0.0,0.0,2.4306,2.3868,2.4283,0.0,2.5857,2.6138,2.748,2.7405,2.7375,2.7585,0.0,0.0,0.0,0.0,0.0,0.0,0.0,0.0,0.0,0.0,0.0,0.0,0.0,0.0,0.0,0.0,0.0,0.0,0.0,0.0,0.0,0.0,0.0,0.0,0.0,0.0,0.0,0.0,0.0,0.0,0.0,0.0,0.0,0.0,0.0,0.0,0.0,0.0,0.0,0.0,0.0,0.0,0.0,0.0,0.0,0.0,0.0,0.0,0.0,0.0,0.0,0.0,0.0,0.0,0.0,0.0,0.0,0.0,0.0,0.0,0.0,0.0,0.0,0.0,0.0,0.0,0.0,0.0,0.0,0.0,0.0,0.0,0.0,0.0,0.0,0.0,0.0,0.0,0.0,0.0,0.0,0.0,0.0,0.0,0.0,0.0,0.0,0.0,0.0,0.0,0.0,0.0,0.0,0.0,0.0,0.0,0.0,0.0,0.0,0.0,0.0,0.0,2.3684,2.3595,2.4103,2.5438,2.5588,2.6138,2.7465,2.6986,2.6884,0.0,0.0,0.0,0.0,0.0,0.0,0.0,0.0,0.0,0.0,0.0,0.0,0.0,0.0,0.0,0.0,0.0,0.0,0.0,0.0,0.0,0.0,0.0,0.0,0.0,0.0,0.0,0.0,0.0,0.0,0.0,0.0,0.0,0.0,0.0,0.0,0.0,0.0,0.0,0.0,0.0,0.0,0.0,0.0,0.0,0.0,0.0,0.0,0.0,0.0,0.0,0.0,0.0,0.0,0.0,0.0,0.0,0.0,0.0,0.0,0.0,0.0,0.0,0.0,0.0,0.0,0.0,0.0,0.0,0.0,0.0,0.0,0.0,0.0,0.0,0.0,0.0,0.0,0.0,0.0,0.0,0.0,0.0,0.0,0.0,0.0,0.0,0.0,0.0,0.0,0.0,0.0,0.0,0.0,0.0,0.0,0.0,0.0,0.0,0.0,0.0,0.0,0.0,2.3625,2.3595,2.3939,2.4799,2.4889,2.5438,2.6779,2.6704,2.6689,2.6884,0.0,0.0,0.0,0.0,0.0,0.0,0.0,0.0,0.0,0.0,0.0,0.0,0.0,0.0,0.0,0.0,0.0,0.0,0.0,0.0,0.0,0.0,0.0,0.0,0.0,0.0,0.0,0.0,0.0,0.0,0.0,0.0,0.0,0.0,0.0,0.0,0.0,0.0,0.0,0.0,0.0,0.0,0.0,0.0,0.0,0.0,0.0,0.0,0.0,0.0,0.0,0.0,0.0,0.0,0.0,0.0,0.0,0.0,0.0,0.0,0.0,0.0,0.0,0.0,0.0,0.0,0.0,0.0,0.0,0.0,0.0,0.0,0.0,0.0,0.0,0.0,0.0,0.0,0.0,0.0,0.0,0.0,0.0,0.0,0.0,0.0,0.0,0.0,0.0,0.0,0.0,0.0,0.0,0.0,0.0,0.0,0.0,0.0,0.0,0.0,0.0,0.0,2.4403,2.4152,2.4257,2.4933,2.4769,2.5139,2.6494,2.634,2.6177,2.6201,0.0,0.0,0.0,0.0,0.0,0.0,0.0,0.0,0.0,0.0,0.0,0.0,0.0,0.0,0.0,0.0,0.0,0.0,0.0,0.0,0.0,0.0,0.0,0.0,0.0,0.0,0.0,0.0,0.0,0.0,0.0,0.0,0.0,0.0,0.0,0.0,0.0,0.0,0.0,0.0,0.0,0.0,0.0,0.0,0.0,0.0,0.0,0.0,0.0,0.0,0.0,0.0,0.0,0.0,0.0,0.0,0.0,0.0,0.0,0.0,0.0,0.0,0.0,0.0,0.0,0.0,0.0,0.0,0.0,0.0,0.0,0.0,0.0,0.0,0.0,0.0,0.0,0.0,0.0,0.0,0.0,0.0,0.0,0.0,0.0,0.0,0.0,0.0,0.0,0.0,0.0,0.0,0.0,0.0,0.0,0.0,0.0,0.0,0.0,0.0,0.0,0.0,2.5603,2.5068,2.4933,2.5543,2.4993,2.5131,2.6382,2.5829,2.5434,2.5491,0.0,0.0,0.0,0.0,0.0,0.0,0.0,0.0,0.0,0.0,0.0,0.0,0.0,0.0,0.0,0.0,0.0,0.0,0.0,0.0,0.0,0.0,0.0,0.0,0.0,0.0,0.0,0.0,0.0,0.0,0.0,0.0,0.0,0.0,0.0,0.0,0.0,0.0,0.0,0.0,0.0,0.0,0.0,0.0,0.0,0.0,0.0,0.0,0.0,0.0,0.0,0.0,0.0,0.0,0.0,0.0,0.0,0.0,0.0,0.0,2.6572,0.0,0.0,0.0,0.0,0.0,0.0,0.0,0.0,0.0,0.0,0.0,0.0,0.0,0.0,0.0,0.0,0.0,0.0,0.0,0.0,0.0,0.0,0.0,0.0,0.0,0.0,0.0,0.0,0.0,0.0,0.0,0.0,0.0,0.0,0.0,0.0,0.0,0.0,0.0,0.0,0.0,2.5603,2.5483,2.5438,2.5588,2.4993,2.4904,2.5668,2.512,2.4707,2.4656,2.4836,0.0,0.0,0.0,0.0,0.0,0.0,0.0,0.0,0.0,0.0,0.0,0.0,0.0,0.0,0.0,0.0,0.0,0.0,0.0,0.0,0.0,0.0,0.0,0.0,0.0,0.0,0.0,0.0,0.0,0.0,0.0,0.0,0.0,0.0,0.0,0.0,0.0,0.0,0.0,0.0,0.0,0.0,0.0,0.0,0.0,0.0,0.0,0.0,0.0,0.0,0.0,0.0,0.0,0.0,0.0,0.0,0.0,0.0,0.0,0.0,2.6499,0.0,0.0,0.0,0.0,0.0,0.0,0.0,0.0,0.0,0.0,0.0,0.0,0.0,0.0,0.0,0.0,0.0,0.0,0.0,0.0,0.0,0.0,0.0,0.0,0.0,0.0,0.0,0.0,0.0,0.0,0.0,0.0,0.0,0.0,0.0,0.0,0.0,0.0,0.0,0.0,2.6087,2.5756,2.5428,2.5065,2.4429,2.4385,2.5285,2.448,2.4052,2.4338,2.4379,0.0,0.0,0.0,0.0,0.0,0.0,0.0,0.0,0.0,0.0,0.0,0.0,0.0,0.0,0.0,0.0,0.0,0.0,0.0,0.0,0.0,0.0,0.0,0.0,0.0,0.0,0.0,0.0,0.0,0.0,0.0,0.0,0.0,0.0,0.0,0.0,0.0,0.0,0.0,0.0,0.0,0.0,0.0,0.0,0.0,0.0,0.0,0.0,0.0,0.0,0.0,0.0,0.0,2.6499,2.6499,2.6499,2.6499,2.6499,2.6499,2.6499,2.6499,2.6499,2.6499,0.0,0.0,0.0,0.0,0.0,0.0,0.0,0.0,0.0,0.0,0.0,0.0,0.0,0.0,0.0,0.0,0.0,0.0,0.0,0.0,0.0,0.0,0.0,0.0,2.7504,2.6743,2.7565,0.0,0.0,0.0,0.0,0.0,0.0,0.0,0.0,0.0,0.0,0.0,2.6403,2.5825,2.5247,2.4637,2.3967,2.4011,2.5091,2.4111,2.3676,2.4207,2.4154,2.3924,0.0,0.0,0.0,0.0,0.0,0.0,0.0,0.0,0.0,0.0,0.0,0.0,0.0,0.0,0.0,0.0,0.0,0.0,0.0,0.0,0.0,0.0,0.0,0.0,0.0,0.0,0.0,0.0,0.0,0.0,0.0,0.0,2.6688,2.6612,0.0,0.0,0.0,0.0,0.0,0.0,0.0,0.0,0.0,0.0,0.0,0.0,0.0,2.6499,2.6499,2.6499,2.6499,2.6499,2.6499,2.6499,2.6499,2.6499,2.6499,2.6499,2.6499,0.0,2.6499,2.6499,0.0,0.0,0.0,0.0,0.0,0.0,0.0,0.0,0.0,0.0,0.0,0.0,0.0,0.0,0.0,0.0,0.0,0.0,0.0,0.0,0.0,0.0,2.6679,2.6799,2.627,2.5785,0.0,2.6215,2.6612,2.7146,2.6439,0.0,0.0,0.0,0.0,0.0,0.0,0.0,2.5632,2.5466,2.5384,2.5273,2.4667,2.4491,2.5074,2.4433,2.4016,2.4042,2.3551,2.3535,2.4159,2.3752,0.0,0.0,0.0,0.0,0.0,0.0,0.0,0.0,0.0,0.0,0.0,0.0,0.0,0.0,0.0,0.0,0.0,0.0,0.0,0.0,0.0,0.0,0.0,0.0,0.0,0.0,0.0,0.0,0.0,2.6499,2.6499,2.6499,2.6499,2.6499,0.0,0.0,0.0,0.0,0.0,0.0,0.0,0.0,0.0,2.6499,2.6499,2.6499,2.6499,2.6499,2.6499,2.6499,2.6499,2.6499,2.6499,2.6499,2.6499,2.6499,2.6499,2.6499,2.6499,2.6499,2.6499,2.6499,0.0,0.0,0.0,0.0,2.6499,2.6499,2.6499,2.6499,2.6499,2.6499,0.0,0.0,0.0,0.0,0.0,0.0,0.0,0.0,0.0,0.0,2.6499,2.6499,2.6298,2.6122,2.6122,2.598,2.5888,0.0,2.584,2.5855,2.6412,0.0,0.0,0.0,0.0,2.5618,2.4879,2.478,2.4609,2.415,2.3842,2.4008,2.4864,2.4395,2.4292,2.4861,2.4365,2.4081,2.4133,2.3876,2.3696,0.0,0.0,0.0,0.0,0.0,0.0,0.0,0.0,0.0,0.0,0.0,0.0,0.0,0.0,0.0,0.0,0.0,0.0,0.0,0.0,0.0,0.0,0.0,0.0,0.0,0.0,0.0,0.0,2.6499,2.6499,2.6499,2.6499,2.6499,0.0,0.0,0.0,0.0,0.0,0.0,2.6499,2.6499,2.6499,2.6499,2.6499,2.6499,2.6499,2.6499,2.6499,2.6499,2.6499,2.6499,2.6499,2.6499,2.6499,2.6499,2.6499,2.6499,2.6499,2.6499,2.6499,2.6499,2.6499,2.6499,2.6499,2.6499,2.6499,2.6499,2.6499,2.6499,2.6499,2.6499,2.6399,2.6379,2.698,0.0,0.0,0.0,0.0,2.6641,2.7246,2.6956,2.6499,2.6499,2.6499,2.6499,2.6499,2.616,2.5667,0.0,2.5231,2.5531,2.5882,0.0,0.0,0.0,0.0,2.4851,2.4089,2.3987,2.3752,2.3155,2.3233,2.3722,2.4729,2.4569,2.4745,2.5548,2.5234,2.4754,2.423,2.4067,2.3788,2.3333,0.0,0.0,0.0,0.0,0.0,0.0,0.0,0.0,0.0,0.0,0.0,0.0,0.0,0.0,0.0,0.0,0.0,0.0,0.0,0.0,0.0,0.0,0.0,0.0,0.0,0.0,0.0,0.0,0.0,2.6499,2.6499,0.0,0.0,0.0,0.0,2.6499,2.6499,2.6499,2.6499,2.6499,2.6499,2.6499,2.6499,2.6499,2.6499,2.6499,2.6499,2.6499,2.6499,2.6499,2.6499,2.6499,2.6499,2.6499,2.6499,2.6499,2.6499,2.6499,2.6499,2.6499,2.6499,2.6499,2.6499,2.6499,2.6499,2.6499,2.6499,2.6499,2.6499,2.6499,2.6105,2.5653,2.5686,2.5703,0.0,0.0,2.611,2.6516,2.6538,2.6521,2.6499,2.6499,2.6499,2.6499,2.6499,2.6491,2.6122,0.0,2.4431,2.4152,2.4369,0.0,2.4379,2.4422,2.4379,2.4074,2.326,2.3155,2.314,2.3108,2.3612,2.4192,2.4754,2.5247,2.5536,2.5598,2.5573,2.5322,2.4779,2.4264,2.3979,2.3954,2.3399,0.0,0.0,0.0,0.0,0.0,0.0,0.0,0.0,0.0,0.0,0.0,0.0,0.0,0.0,0.0,0.0,0.0,0.0,0.0,0.0,0.0,0.0,0.0,0.0,0.0,0.0,0.0,0.0,2.5599,2.6112,0.0,2.6499,2.6499,2.6499,2.6499,2.6826,2.6997,2.6997,2.7336,2.7537,2.7537,2.7537,2.7537,2.7537,2.7537,2.7537,2.7537,2.7537,2.7537,2.7537,2.7537,2.7537,2.7537,2.7537,2.7537,2.7537,2.7537,2.7123,2.6499,2.6499,2.6499,2.6499,2.6499,2.6499,2.6499,2.6499,2.6499,2.6499,2.6499,2.6348,2.6185,2.6185,2.6185,2.6185,2.6185,2.6336,2.6499,2.6499,2.6499,2.6399,2.6005,2.5917,2.5829,2.5473,2.541,2.5184,2.4443,2.4402,2.458,2.4773,2.4101,2.3693,2.422,2.3855,2.3424,2.3138,2.3108,2.3108,2.3108,2.3637,2.4217,2.4754,2.5297,2.5766,2.6143,2.6185,2.5917,2.5347,2.5134,2.487,2.4515,2.3963,2.3675,0.0,0.0,0.0,0.0,0.0,0.0,0.0,0.0,0.0,0.0,0.0,0.0,0.0,0.0,0.0,0.0,0.0,0.0,0.0,0.0,0.0,0.0,0.0,0.0,0.0,0.0,2.6081,2.557,2.6409,2.7052,2.7052,2.7052,2.7052,2.7052,2.7374,2.7557,2.7557,2.7908,2.8109,2.8109,2.8109,2.8109,2.8109,2.8109,2.8109,2.8109,2.8109,2.8109,2.8109,2.8109,2.8109,2.8109,2.8109,2.8109,2.8109,2.8109,2.767,2.7052,2.7052,2.7052,2.7052,2.7052,2.7052,2.7052,2.7052,2.7052,2.6997,2.6839,2.6776,2.6738,2.6549,2.6499,2.6499,2.6499,2.6499,2.6537,2.6725,2.6776,2.6675,2.6268,2.618,2.6042,2.5485,2.5372,2.5272,2.4912,2.4669,2.4514,2.4453,2.3681,2.3275,2.3811,2.3439,2.317,2.3371,2.3396,2.3459,2.3647,2.4189,2.4682,2.5042,2.5573,2.6067,2.6461,2.6499,2.6323,2.5917,2.5716,2.5435,2.508,2.454,2.4192,2.4004,0.0,0.0,0.0,0.0,0.0,0.0,0.0,0.0,0.0,0.0,0.0,0.0,0.0,0.0,0.0,0.0,0.0,0.0,0.0,0.0,0.0,0.0,0.0,2.4222,2.5101,2.5949,2.6401,2.7403,2.8073,2.8109,2.8109,2.8109,2.8109,2.8122,2.8134,2.8134,2.8147,2.816,2.8185,2.8185,2.8197,2.821,2.821,2.821,2.821,2.821,2.821,2.821,2.821,2.821,2.821,2.821,2.821,2.821,2.821,2.821,2.8197,2.8134,2.8109,2.8109,2.8109,2.8109,2.8109,2.8109,2.8109,2.8009,2.7499,2.7324,2.7223,2.6713,2.6549,2.6549,2.6549,2.6549,2.6663,2.7185,2.7324,2.7324,2.7286,2.7273,2.7123,2.6562,2.6449,2.6449,2.6449,2.5138,2.3841,2.3246,2.3145,2.312,2.3108,2.312,0.0,2.3929,2.4017,2.423,2.4741,2.5285,2.5598,2.5598,2.616,2.6499,2.6499,2.6499,2.6499,2.6499,2.5942,2.5611,2.5565,2.5047,2.4505,2.3938,0.0,0.0,0.0,0.0,0.0,0.0,0.0,0.0,0.0,0.0,0.0,0.0,0.0,0.0,0.0,0.0,0.0,0.0,0.0,0.0,0.0,2.4454,2.3668,2.3571,2.4421,2.5164,2.5389,2.6316,2.7254,2.8005,2.8109,2.8109,2.8109,2.8455,2.8681,2.8681,2.9082,2.9515,2.9898,2.991,3.0105,3.0482,3.0482,3.0482,3.0482,3.0482,3.0482,3.0482,3.0482,3.0482,3.0482,3.0482,3.0482,3.0482,3.0482,3.0482,3.0331,2.8725,2.8109,2.8109,2.8109,2.8109,2.8109,2.8109,2.8109,2.8084,2.7921,2.7883,2.7846,2.7695,2.7657,2.7657,2.7657,2.7657,2.7682,2.7846,2.7883,2.767,2.6896,2.6713,2.6444,2.5473,2.5272,2.5272,2.5272,2.4908,2.4528,2.4349,2.4014,2.36,2.317,2.3474,0.0,2.3979,2.4343,2.4641,2.4791,2.5285,2.5598,2.5598,2.616,2.6499,2.6499,2.6499,2.6499,2.6499,2.6336,2.5737,2.4621,2.443,2.3739,0.0,0.0,0.0,0.0,0.0,0.0,0.0,0.0,0.0,0.0,0.0,0.0,0.0,0.0,0.0,0.0,0.0,0.0,0.0,0.0,0.0,0.0,2.4221,2.3509,2.3509,2.4488,2.5315,2.5598,2.653,2.7594,2.8706,2.838,2.8292,2.8775,2.9308,2.9622,2.9622,3.0168,3.0608,3.0934,3.0947,3.1085,3.1406,3.1406,3.1406,3.1406,3.1406,3.1406,3.1406,3.1406,3.1406,3.1406,3.1406,3.1406,3.1406,3.1406,3.1406,0.0,0.0,0.0,0.0,0.0,2.9013,2.8812,2.8812,2.8812,2.8775,2.8518,2.843,2.8392,2.8185,2.8109,2.8109,2.8109,2.8109,2.816,2.838,2.8267,2.7946,2.7324,2.7002,2.6582,2.5699,2.5511,2.5573,2.5812,2.585,0.0,2.585,2.5021,2.429,2.4177,2.4456,2.4833,2.531,2.5448,2.5598,2.5824,2.5942,2.5979,2.5979,2.6298,0.0,0.0,0.0,2.6499,2.6499,2.6499,0.0,0.0,0.0,2.3776,2.2238,2.187,0.0,0.0,2.101,2.057,0.0,0.0,0.0,0.0,0.0,0.0,0.0,0.0,0.0,0.0,0.0,0.0,0.0,0.0,0.0,0.0,2.4426,2.3721,2.3721,2.4862,2.5837,2.6262,2.7258,2.8331,2.9393,2.8812,2.8777,2.9721,3.034,3.0636,3.0483,0.0,0.0,0.0,0.0,3.1512,3.1595,3.1587,3.1587,3.1587,3.1587,3.1587,3.1587,3.1587,3.1587,3.1587,3.1587,3.1587,3.1595,3.1532,3.1486,3.1474,3.1411,3.1406,3.1336,3.0871,3.0394,2.9967,2.9967,0.0,0.0,2.9358,2.9183,2.9095,2.8624,2.8473,2.8473,2.8473,2.8473,2.8574,2.8982,2.8693,2.826,2.8134,2.7682,2.7148,2.6612,2.6499,2.6637,2.711,2.7261,2.7298,2.7298,2.6076,2.5218,2.5636,2.5749,2.6151,2.7173,2.6952,2.6864,2.7336,2.6947,0.0,2.66,2.6587,2.6562,2.6499,2.6499,2.6448,2.6332,2.6332,2.5804,2.4671,2.4654,2.3938,2.2453,2.1685,2.1045,2.0523,2.084,2.038,0.0,0.0,0.0,0.0,0.0,0.0,0.0,0.0,0.0,0.0,0.0,0.0,0.0,0.0,0.0,2.4892,2.3975,2.324,2.324,2.4254,2.5019,2.5115,2.613,2.7021,2.7565,2.9128,2.9982,2.9656,3.0638,3.0823,2.9848,3.082,3.1162,3.0605,3.1545,3.2277,3.2776,3.2776,3.2776,3.2776,0.0,0.0,3.2776,3.2776,3.2776,3.2776,3.2776,3.2776,3.2738,3.2252,3.2051,3.2001,3.1562,3.1406,3.1386,3.1273,3.1173,3.1105,3.1105,3.1105,3.106,3.0947,3.0922,3.0896,3.0783,3.0758,0.0,3.0758,3.0758,3.0683,3.0349,2.986,2.9239,2.8323,2.7682,2.7148,2.6612,2.6499,2.6524,2.6637,2.6997,2.7298,2.7298,2.7035,2.6708,2.6386,2.6683,2.706,2.7273,2.76,2.7821,2.7934,2.7846,2.7625,2.7173,2.7148,2.6947,2.6524,2.6499,2.6129,2.5317,2.5282,2.4445,2.2627,2.259,2.2071,2.1015,2.0834,2.051,2.0026,1.9773,1.9533,0.0,0.0,0.0,0.0,0.0,0.0,0.0,0.0,0.0,0.0,0.0,2.4617,2.4049,0.0,2.4034,2.4267,2.3823,2.3513,2.3728,2.4242,2.4717,2.5068,2.5594,2.6333,2.7309,2.8528,2.9087,2.8683,3.0052,3.0643,3.0024,3.0834,3.1434,3.1736,3.2331,3.2801,3.3102,3.3379,3.3504,3.3504,3.3771,3.3897,3.3897,3.3897,3.3746,3.3492,3.3228,3.2939,3.2604,3.2039,3.18,3.1775,3.1499,3.1562,3.18,3.18,3.1625,3.1406,3.1406,3.1406,3.1406,3.1406,3.1406,3.1406,3.1406,3.1406,3.1406,3.1406,3.1198,3.0947,3.0663,2.9973,2.9214,2.8631,2.831,2.7959,2.7424,2.7751,2.814,2.814,2.8366,2.8643,2.89,2.8743,2.8366,2.7801,2.7934,2.821,2.8499,2.8524,2.8493,2.8493,2.8254,2.7996,2.772,2.7462,2.706,2.6524,2.6025,2.5511,2.5022,2.4528,2.3533,2.2027,2.1989,2.1536,2.0605,2.0605,2.0468,2.0253,2.0038,1.9716,0.0,0.0,0.0,0.0,0.0,0.0,0.0,2.2859,2.2713,2.3023,2.3091,2.3091,2.3091,2.3091,2.3259,2.3721,2.3789,2.3935,2.4332,2.4391,2.4627,2.5261,2.5458,2.5959,2.7094,2.769,2.8042,2.8032,2.9593,3.0462,3.021,3.0925,3.1701,3.252,3.285,3.3143,3.3416,3.3579,3.3791,3.406,3.423,3.4464,3.4703,3.4703,3.4424,3.3872,3.3341,3.2826,3.234,3.1775,3.157,3.1537,3.1436,3.1725,3.2194,3.2194,3.2001,3.1733,3.1733,3.1733,3.1733,3.1733,3.1637,3.1574,3.1687,3.1637,3.1574,3.1708,3.1424,3.1072,3.0939,3.0073,2.9189,2.9107,2.8919,2.8656,2.8335,2.8976,2.9654,2.9786,2.988,3.0093,3.0525,3.0244,2.9767,2.917,2.907,2.9245,2.9729,2.939,2.907,2.907,2.8699,2.8386,2.8267,2.7483,2.682,2.6402,2.533,2.4618,2.4427,2.3635,2.2739,2.1754,2.1735,2.1355,2.0605,2.0605,2.0605,2.0605,2.0605,2.0214,2.324,2.3091,2.3091,2.3091,2.3062,2.3033,0.0,2.3062,2.3042,2.3081,2.3091,2.3091,2.3091,2.3091,2.3259,2.3721,2.3789,2.3935,2.4332,2.4391,2.4587,2.5084,2.5655,2.5857,2.5425,2.7283,2.8701,2.9183,3.0402,3.0639,2.9568,3.0994,3.1411,3.0546,3.1972,3.3318,3.4515,3.3402,3.3426,3.4615,3.3464,3.3546,3.4703,3.4703,3.4424,3.3872,3.3341,3.3065,3.2952,3.2353,3.2106,3.2056,3.1587,3.1725,3.2194,3.2194,3.2503,3.2914,3.2914,3.2914,3.2914,3.2914,3.2562,3.2215,3.2751,3.2528,3.2227,3.2763,3.2876,3.27,3.2164,3.1215,3.0287,2.9817,2.8925,2.8292,2.8731,2.8919,2.9157,2.9691,3.0181,3.0525,3.0588,3.055,3.0331,2.9779,2.9691,2.9716,2.9779,2.9729,2.9691,2.9691,2.9641,2.9402,2.8869,2.7072,2.5949,2.5889,2.4495,2.3257,2.2366,2.2234,2.1716,2.077,2.075,2.0692,2.0605,2.0605,2.0605,2.0605,2.0605,2.0556,2.324,2.2937,2.281,2.3033,2.3091,2.3091,2.3091,2.3091,2.3091,2.3091,2.3091,2.3091,2.3091,2.3327,2.3574,2.376,2.3994,2.4307,2.476,2.4818,2.4961,2.541,2.5688,2.5767,2.5487,2.7014,2.7919,2.7668,2.8765,2.9346,2.9082,2.9733,3.0216,3.0489,3.1168,3.2183,3.3511,3.3289,3.3832,3.5157,3.4958,3.5153,3.569,3.533,3.4527,3.3404,3.2817,3.239,3.2097,3.1838,3.1738,3.1712,3.1486,3.1725,3.2156,3.1851,3.1888,3.2123,3.2123,3.2123,3.2123,3.2123,3.1938,3.1838,3.2403,3.2403,3.234,3.2939,3.2851,3.2516,3.2277,3.165,3.1009,3.0771,3.0608,3.047,3.0382,3.0884,3.1323,3.1223,3.1386,3.1529,3.1529,3.1273,3.0984,3.0758,3.0213,2.9792,2.9792,2.9792,2.9792,2.9792,2.9216,2.8568,2.8032,2.6549,2.5551,2.5245,2.4065,2.3195,2.2766,2.1962,2.1341,2.0957,2.0723,2.0605,2.0605,2.0605,2.0605,2.0605,2.0605,2.0605,2.3064,2.281,2.2732,2.3023,2.3091,2.3091,2.3091,2.3091,2.3091,2.3091,2.3188,2.3298,2.3298,2.3649,2.4004,2.4144,2.4394,2.4746,2.5209,2.5278,2.5371,2.5679,2.5693,2.5693,2.5693,2.6659,2.7203,2.7068,2.7883,2.8488,2.8787,2.8934,2.942,3.0395,3.0883,3.1787,3.3161,3.3553,3.4412,3.5744,3.5641,3.5777,3.613,3.5393,3.449,3.3504,3.2767,3.2315,3.2085,3.1934,3.1871,3.1859,3.1687,3.1863,3.2152,3.1599,3.1607,3.1859,3.1675,3.1625,3.1599,3.1436,3.1298,3.1273,3.1825,3.1989,3.2102,3.2679,3.2654,3.2453,3.2453,3.2039,3.1625,3.1625,3.18,3.1913,3.1675,3.2265,3.2767,3.2503,3.2453,3.2453,3.2453,3.1989,3.1625,3.1625,3.0821,3.0181,3.0043,2.988,2.9682,2.9365,2.8597,2.781,2.7147,2.5929,2.5044,2.4653,2.3546,2.2909,2.2909,2.1938,2.1396,2.1396,2.1114,2.0967,2.0967,2.083,2.0772,2.0772,2.0644,2.0605,2.2625,2.2801,2.3081,2.3091,2.3091,2.3091,2.3091,2.3091,2.3091,2.3091,2.3454,2.3769,2.3769,2.4111,2.4531,2.4984,2.5063,2.5229,2.563,2.5689,2.5698,2.5693,2.5693,2.5693,2.5693,2.6148,2.7063,2.8607,2.8763,2.8798,2.8808,2.9237,2.9564,2.9726,3.1373,3.2935,3.4338,3.435,3.5054,3.6356,3.4473,3.4266,3.5483,3.4427,3.4211,3.459,3.352,3.3366,3.3784,3.3266,3.3052,3.2989,3.2403,3.2202,3.2152,3.1599,3.2097,3.2964,3.239,3.219,3.2102,3.1562,3.1047,3.0713,3.126,3.1411,3.1537,3.2089,3.2629,3.3077,3.3077,3.2616,3.219,3.219,3.1788,3.1549,3.2077,3.2194,3.2403,3.2964,3.3077,3.3077,3.3077,3.2566,3.219,3.219,3.17,3.116,3.0638,3.0118,2.9385,2.8275,2.8116,2.7663,2.6614,2.5114,2.4229,2.4218,2.2785,2.1947,2.1947,2.1896,2.1886,2.1886,2.1876,2.1866,2.1866,2.1396,2.1171,2.1161,2.0781,2.0605,2.2791,2.2801,2.2771,2.3023,2.3091,2.3091,2.3091,2.3091,2.3201,2.3493,2.3435,2.3425,2.374,2.4131,2.444,2.4609,2.5127,2.5542,2.5689,2.5962,2.6172,2.6172,2.6172,2.6279,2.6537,2.6176,2.6389,2.7507,2.7617,2.7867,2.8447,2.8627,2.9132,3.0071,3.0066,3.1003,3.298,3.2412,3.2667,3.3664,3.302,3.2756,3.287,3.3373,3.3542,3.3395,3.3918,3.406,3.3884,3.3709,3.3429,3.3077,3.2889,3.2801,3.2788,3.26,3.2776,3.2964,3.1989,3.1675,3.1637,3.1469,3.1035,3.0763,3.1675,3.1675,3.1607,3.2516,3.2952,3.3102,3.3102,3.2952,3.2801,3.2801,3.2663,3.2587,3.2763,3.2801,3.2616,3.1972,3.1843,3.1601,3.0777,3.0469,3.0213,2.9875,2.9764,2.967,2.95,2.838,2.7464,2.7087,2.6367,2.5765,2.5399,2.4205,2.346,2.346,2.2977,2.2693,2.2693,2.2451,2.2305,2.2305,2.2052,2.1905,2.1905,2.1738,2.167,2.166,2.1534,2.1466,2.2791,2.2801,2.2781,2.3054,2.3091,2.314,2.3308,2.3347,2.3435,2.373,2.3659,2.361,2.3769,2.4131,2.4391,2.4391,2.5132,2.5693,2.5693,2.624,2.6562,2.6431,2.6523,2.666,2.6777,2.6264,2.6235,2.6937,2.7295,2.7715,2.8262,2.8437,2.8899,2.9764,2.9712,3.0271,3.1582,3.1512,3.1658,3.2023,3.2023,3.1741,3.1236,3.2121,3.2308,3.2065,3.3396,3.3512,3.2785,3.3262,3.3268,3.2936,3.2751,3.2975,3.3366,3.3178,3.3102,3.2964,3.2001,3.1687,3.165,3.1449,3.1298,3.129,3.198,3.2114,3.216,3.2889,3.3102,3.3004,3.2534,3.2776,3.2982,3.2534,3.2776,3.2982,3.2513,3.2426,3.2052,3.0799,3.0564,3.0316,2.9544,2.9407,2.9272,2.8936,2.8483,2.8248,2.8444,2.744,2.6563,2.6154,2.5317,2.4649,2.4232,2.3529,2.3091,2.3091,2.3091,2.3091,2.3091,2.2859,2.2713,2.2713,2.2449,2.2334,2.2334,2.2178,2.2109,2.2109,2.1974,2.1905,2.2625,2.283,2.313,2.313,2.314,2.3266,2.373,2.3809,2.3821,2.3818,2.4082,2.4176,2.3828,2.4082,2.4332,2.4362,2.5103,2.5689,2.5708,2.643,2.6836,2.646,2.6738,2.6826,2.6426,0.0,2.6572,2.6953,2.7754,2.8242,2.8291,2.8672,2.8914,2.8959,3.022,3.0711,3.0292,3.1495,3.1845,3.134,3.134,3.1071,3.0579,3.0652,3.0676,3.0749,3.2099,3.1934,3.0836,3.2112,3.2617,3.2546,3.2039,3.2599,3.3645,3.3121,3.2943,3.283,3.2272,3.2105,3.206,3.1555,3.1701,3.2051,3.2051,3.2484,3.2934,3.2934,3.2934,3.2649,3.1448,3.2033,3.2612,3.1412,3.203,3.259,3.1368,3.1112,3.0743,2.9544,2.9269,2.9223,2.9223,2.9223,2.9223,2.9223,2.7862,2.7036,2.7602,2.7245,2.654,2.5446,2.4994,2.4295,2.32,2.3091,2.3091,2.3091,2.3091,2.3091,2.3091,2.3091,2.3091,2.3091,2.3091,2.3091,2.3091,2.2723,2.2527,2.2518,2.2139,2.1974,2.2898,2.3279,2.3623,2.3623,2.3857,2.4098,2.4206,2.4014,2.3887,2.4199,2.3562,2.3066,2.3303,2.3398,2.3552,2.3896,2.4668,2.5361,2.5669,2.6186,2.6504,2.6396,2.6484,2.6504,2.6396,2.667,2.6768,2.6562,2.7041,2.7617,2.8262,2.8398,2.891,2.9903,2.9611,2.9722,3.0292,2.966,2.9252,2.9114,2.9114,2.9053,2.8942,2.9946,3.0385,3.0487,3.1812,3.197,3.1314,3.1656,3.1563,3.1199,3.1063,3.1003,3.0974,3.0848,3.0594,3.0327,3.0166,3.0711,3.1426,3.1293,3.066,2.9974,3.0075,3.041,3.0744,3.0779,3.0802,3.0709,3.0398,3.032,3.0248,2.9931,3.0113,3.0248,2.9931,2.9863,2.9498,2.8296,2.7281,2.6634,2.6634,2.6634,2.6634,2.6634,2.629,2.6276,2.7012,2.5914,2.4849,2.4279,2.4118,2.3808,2.3142,2.3091,2.3091,2.3091,2.3091,2.3091,2.3091,2.3091,2.3091,2.3091,2.3091,2.3091,2.3091,2.3006,2.2957,2.2935,2.2849,2.2801,2.3288,2.3603,2.3838,2.4014,2.4238,2.4391,2.4391,2.4238,2.4023,2.3864,2.3269,2.2754,2.2648,2.2744,2.2918,2.3193,2.429,2.518,2.541,2.6143,2.6592,2.6406,2.6553,2.666,2.666,2.6875,2.708,2.7217,2.7441,2.7783,2.8271,2.8643,2.9129,2.9676,2.9364,2.9278,2.9418,2.8671,2.8291,2.8291,2.8291,2.8291,2.8318,2.9075,2.9434,2.9513,3.085,3.092,3.0134,3.0723,3.0798,3.0502,3.0271,3.0364,3.062,3.0384,3.0018,2.9674,2.9674,2.9644,2.9704,3.0248,3.0045,2.9651,2.9721,2.9864,3.0086,3.0322,3.0076,2.9601,2.9074,2.9169,2.9214,2.8476,2.8862,2.9246,2.8727,2.8611,2.8249,2.7006,2.6183,2.5693,2.5693,2.5693,2.5693,2.5693,2.5693,2.5852,2.6313,2.5408,2.4609,2.4398,2.418,2.3887,2.3445,2.3406,2.3318,2.311,2.3091,2.3091,2.3091,2.3091,2.3091,2.3091,2.3091,2.3091,2.3091,2.3091,2.3091,2.3091,2.3091,2.2818,2.3691,2.3867,2.4053,2.4414,2.4479,2.4479,2.4479,2.4352,2.402,2.3269,2.2964,2.2645,2.1934,2.2148,2.2451,2.2479,2.3896,2.5024,2.5082,2.6094,2.6709,2.6348,2.668,2.6934,2.6934,2.7031,2.7412,2.8154,2.8262,2.831,2.8369,2.9061,2.9256,2.882,2.9227,2.907,2.8301,2.8291,2.8291,2.8291,2.8291,2.8291,2.8291,2.8291,2.8291,2.8361,2.9539,2.9381,2.8398,2.9555,3.0042,3.0,2.9528,3.0032,3.094,3.0474,2.997,2.9522,2.9522,2.8565,2.7542,2.8773,2.9394,2.9676,2.9621,2.9687,2.984,3.0204,2.9673,2.8755,2.7697,2.8175,2.8548,2.7098,2.7855,2.8634,2.7565,2.7363,2.7017,2.5917,2.5693,2.5693,2.5693,2.5693,2.5693,2.5693,2.5693,2.5693,2.5693,2.54,2.516,2.5102,2.4727,2.4336,2.3906,2.3877,2.3682,2.323,2.3179,2.3149,2.3091,2.3091,2.3091,2.3091,2.3091,2.3025,2.2862,2.2862,2.2775,2.2621,2.2621,2.2053,2.3769,2.433,2.4887,2.4965,2.4975,2.4975,2.4975,2.4154,2.3362,2.3152,2.2262,2.1503,2.1357,2.1699,2.2109,2.2461,2.3643,2.4658,2.5043,2.5586,2.5903,2.5835,2.623,2.6494,2.6494,2.7164,2.7643,2.779,2.8096,2.8447,2.8762,2.8623,2.8476,2.8398,2.8476,2.8447,2.8291,2.8291,2.8291,2.8291,2.8291,2.8291,2.8291,2.8291,2.8291,2.8318,2.8548,0.0,2.8318,2.8548,2.8654,2.8644,2.8539,2.8449,2.8354,2.8248,2.7718,2.7017,2.7017,2.659,2.6245,2.7494,2.7531,2.6981,2.661,2.6977,2.7497,2.7242,2.7051,2.6857,2.6656,2.6476,2.6264,2.5987,2.6123,2.6284,2.6086,2.6038,2.5965,2.5732,2.5693,2.5693,2.5693,2.5693,2.5693,2.5693,2.5693,2.5693,2.5693,2.565,2.5478,2.5131,2.5024,2.4799,2.4323,2.4307,2.4121,2.3701,2.3682,2.3493,2.311,2.3091,2.3091,2.3091,2.3091,2.2611,2.1614,2.1614,2.1101,2.0133,2.0133,2.0011,2.4359,2.4779,2.5151,2.5361,2.5244,2.4975,2.4525,2.375,2.2959,2.2243,2.1619,2.1142,2.0928,2.125,2.1689,2.2119,2.3252,2.4238,2.4668,2.5289,2.5693,2.5693,2.6123,2.6475,2.6699,2.7321,2.778,2.8005,2.8174,2.8379,2.8584,2.8398,2.8398,2.8613,2.8408,2.8291,2.8291,2.8291,2.8291,2.8291,2.8291,2.8291,2.8291,2.8291,2.8291,2.8291,2.8291,2.8291,2.8291,2.8291,2.8291,2.8291,2.8291,2.8164,2.8015,2.8015,2.7624,2.7047,2.6797,2.6435,2.6133,2.6484,2.6346,2.5981,2.5776,2.6001,2.6332,2.6387,2.6221,2.6055,2.6055,2.604,2.5957,2.5498,2.5542,2.5693,2.5693,2.5693,2.5693,2.5693,2.5693,2.5693,2.5693,2.5693,2.5693,2.5693,2.5693,2.5693,2.5693,2.5693,2.563,2.5439,2.541,2.5234,2.4795,2.4756,2.457,2.4141,2.4111,2.3926,2.3474,2.3454,2.3347,2.3101,2.2492,2.1889,2.1293,2.0666,2.0079,1.9497,1.9497,1.9154,2.475,2.4945,2.5043,2.5337,2.5117,2.4613,2.3851,2.3252,2.2537,2.1424,2.1132,2.0966,2.0654,2.0937,2.1327,2.1689,2.2891,2.3906,2.4238,2.5103,2.5693,2.5693,2.6201,2.665,2.6982,2.749,2.7966,2.8271,2.8291,2.8291,2.8291,2.8379,2.8535,2.8752,2.8467,2.8291,2.8291,2.8291,2.8291,2.8291,2.8291,2.8291,2.8291,2.8291,2.8291,2.8291,2.8291,2.8291,2.8291,2.8291,2.8291,2.8291,2.8291,2.8291,2.8291,2.8291,2.8054,2.7624,2.7168,2.6738,2.6318,2.5854,2.5693,2.5693,2.5693,2.5693,2.5786,2.6152,2.5981,2.5693,2.5693,2.604,2.6236,2.5542,2.5478,2.5601,2.5689,2.5693,2.5693,2.5693,2.5693,2.5693,2.5693,2.5693,2.5693,2.5693,2.5693,2.5693,2.5693,2.5693,2.5693,2.5693,2.5693,2.5571,2.5268,2.5239,2.5019,2.458,2.456,2.4365,2.3945,2.3926,2.3625,2.2964,2.1963,2.1172,2.0598,1.9598,1.8971,1.8718,1.8718,1.8195,2.4346,2.4449,2.4459,2.4498,2.4219,2.3811,2.3364,2.2609,2.1855,2.1298,2.0908,2.0635,2.0615,2.0937,2.121,2.1269,2.2695,2.3799,2.3838,2.4918,2.5693,2.5693,2.643,2.6947,2.7012,2.7754,2.8252,2.8291,2.8291,2.8291,2.8291,2.8662,2.8701,2.8359,2.831,2.8291,2.8291,2.8291,2.8291,2.8291,2.8291,2.8291,2.8291,2.8291,2.8291,2.8291,2.8291,2.8291,0.0,2.8291,2.8291,2.8291,2.8291,2.8291,2.8291,2.8291,2.8054,2.7624,2.7168,2.6738,2.6318,2.5854,2.5693,2.5693,2.5693,2.5693,2.5718,2.5757,2.5713,2.5693,2.5693,2.604,2.6392,2.6314,2.5708,2.5268,2.562,2.5693,2.5693,2.5693,2.5693,2.5693,2.5693,2.5693,2.5693,2.5693,2.5693,2.5693,2.5693,2.5693,2.5693,2.5693,2.5693,2.5698,2.5659,2.565,2.5464,2.5063,2.5033,2.4838,2.4352,2.4332,2.374,2.2505,2.2129,2.0769,1.8404,1.8037,1.7264,1.615,1.615,1.6079,2.4284,2.4391,2.4391,2.4391,2.4102,2.3613,2.293,2.2314,2.171,2.0996,2.0703,2.0605,2.0605,2.0732,2.0918,2.1151,2.2215,2.3115,2.3401,2.4545,2.5332,2.5332,2.6328,2.6986,2.6986,2.7793,2.8291,2.8291,2.8291,2.8291,2.8291,2.8447,2.8467,2.8301,2.8291,2.8291,2.8291,2.8291,2.8291,2.8291,2.8291,2.8291,2.8291,2.8291,2.8291,2.8291,2.8291,2.8291,0.0,2.8291,2.8291,2.8291,2.8291,2.8291,2.8291,2.8291,2.821,2.7966,2.7256,2.6904,2.665,2.5932,2.5693,2.5693,2.5693,2.5693,2.5693,2.5693,2.5693,2.5693,2.5693,2.604,2.6387,2.6387,2.6113,2.584,2.5737,2.5693,2.5693,2.5693,2.5693,2.5693,2.5693,2.5693,2.5693,2.5693,2.5693,2.5693,2.5693,2.5693,2.5382,2.4584,2.5226,2.5693,2.5693,2.5693,2.528,2.4317,2.4249,2.369,2.2421,2.2355,2.1977,2.121,2.0342,1.939,1.834,1.7493,1.6746,1.6092,1.6092,1.5999,2.4111,2.4118,2.402,2.402,2.3721,2.3223,2.249,2.2002,2.1484,2.0762,2.0605,2.0605,2.0605,2.0605,2.0693,2.0986,2.1845,2.2617,2.2951,2.4095,2.4945,2.5072,2.6113,2.6875,2.6976,2.7793,2.8291,2.8291,2.8291,2.8291,2.8291,2.8291,2.8291,2.8291,2.8291,2.8291,2.8291,2.8291,2.8291,2.8291,2.8291,2.8291,2.8291,2.8291,2.8291,2.8291,2.8291,2.8291,0.0,2.8291,2.8291,2.8291,2.8291,2.8291,2.8291,2.8291,2.8291,2.8174,2.7314,2.6986,2.685,2.5991,2.5693,2.5693,2.5693,2.5693,2.5693,2.5693,2.5693,2.5713,2.5874,2.5967,2.606,2.6162,2.5996,2.5752,2.5552,2.5513,2.5562,2.5689,2.5693,2.5693,2.5693,2.5693,2.5693,2.5693,2.5357,2.5103,2.5103,2.4766,2.4156,2.3201,2.3949,2.4535,2.4535,2.4535,2.4122,2.3176,2.3101,2.2546,2.1246,2.1213,2.0875,2.0188,1.9214,1.85,1.811,1.7166,1.66,1.6424,1.6337,1.6112,2.3682,2.3464,2.311,2.311,2.281,2.2412,2.2013,2.1532,2.1093,2.0674,2.0605,2.0605,2.0605,2.0605,2.0605,2.0615,2.166,2.2488,2.2519,2.3601,2.458,2.5033,2.5874,2.6562,2.6947,2.7793,2.8291,2.8291,2.8291,2.8291,2.8291,2.8291,2.8291,2.8291,2.8291,2.8291,2.8291,2.8291,2.8291,2.8291,2.8291,2.8291,2.8291,2.8291,2.8291,2.8291,2.8291,2.8291,0.0,2.8291,2.8291,2.8291,2.8291,2.8291,2.8291,2.8291,2.8291,2.8174,2.7314,2.6986,2.685,2.5991,2.5693,2.5693,2.5693,2.5693,2.5693,2.5693,2.5693,2.5815,2.6269,2.5757,2.5219,2.561,2.5054,2.4551,2.5004,2.5102,2.5229,2.563,2.5693,2.5693,2.5693,2.5693,2.5693,2.5693,2.4559,2.3716,2.3716,2.2567,2.1752,2.1727,2.1727,2.1752,2.1752,2.1752,2.1752,2.1727,2.1727,2.1719,2.1693,2.1693,2.1041,1.9646,1.9331,1.8542,1.7218,1.6879,1.6707,1.6693,1.6431,1.6112,2.2529,2.2598,2.2625,2.2353,2.2178,2.1973,2.1523,2.1318,2.1084,2.0674,2.0605,2.0605,2.0605,2.0605,2.0605,2.0605,2.1436,2.209,2.209,2.3428,2.4473,2.4609,2.5918,2.71,2.7822,2.8135,2.8291,2.8291,2.8291,2.8291,2.8291,2.8291,2.8291,2.8291,2.8291,2.8291,2.8291,2.8291,2.8291,2.8291,2.8291,2.8291,2.8291,2.8291,2.8291,2.8291,2.8291,2.8291,2.8291,2.8291,2.8291,2.8291,2.8291,2.8291,2.8291,2.8291,2.8142,2.7809,2.7217,2.6826,2.6494,2.5903,2.5693,2.5693,2.5693,2.5693,2.5693,2.5693,2.5693,2.5713,2.5884,2.5957,2.5874,2.5391,2.5303,2.5171,2.4727,2.4619,2.4746,2.5195,2.5283,2.5097,2.443,2.4328,2.4023,2.3101,2.2592,2.2341,2.2341,2.1954,2.1321,2.0359,2.0256,2.0641,2.1626,2.1702,2.1296,2.0333,2.0256,1.9852,1.8935,1.8909,1.8681,1.8251,1.8154,1.7904,1.7468,1.7374,1.7227,1.7026,1.6524,1.6244,2.1886,2.208,2.2207,2.1974,2.1768,2.1562,2.1279,2.1084,2.0908,2.0644,2.0605,2.0605,2.0605,2.0605,2.0605,2.0605,2.1329,2.1943,2.21,2.331,2.4424,2.5088,2.626,2.7353,2.8213,2.8291,2.8291,2.8291,2.8291,2.8291,2.8291,2.8291,2.8291,2.8291,2.8291,2.8291,2.8291,2.8291,2.8291,2.8291,2.8291,2.8291,2.8291,2.8291,2.8291,2.8291,2.8291,2.8291,0.0,2.8291,2.8291,2.8291,2.8291,2.8291,2.8291,2.8291,2.8054,2.7624,2.7168,2.6738,2.6318,2.5854,2.5693,2.5611,2.5094,2.5299,2.5693,2.5693,2.5693,2.5693,2.5693,2.5913,2.5967,2.5268,2.4813,2.4507,2.4415,2.3909,2.3767,2.4666,2.4554,2.4114,2.3544,2.3153,2.2667,2.1828,2.1245,2.0922,2.0922,2.0461,1.9826,1.8935,1.8838,1.9187,2.0076,2.0154,1.9775,1.8909,1.8838,1.848,1.7635,1.7608,1.7608,1.7608,1.7608,1.7608,1.7608,1.7608,1.7461,1.7192,1.6799,1.6511,0.0,2.1837,2.1836,2.1817,2.1484,2.1162,2.1162,2.0869,0.0,2.0605,2.0605,2.0605,2.0605,2.0605,2.0605,2.0605,2.1329,2.2031,2.243,2.3301,2.4545,2.623,2.6777,2.7353,2.8213,2.8291,2.8291,2.8291,2.8291,2.8291,2.8291,2.8291,2.8291,2.8291,2.8291,2.8291,2.8291,2.8291,2.8291,2.8291,2.8291,2.8291,2.8291,2.8291,2.8291,0.0,2.8291,2.8291,2.8291,2.8291,2.8291,2.8291,2.8291,2.8291,2.8291,2.8262,2.7952,2.7445,2.6956,2.6478,2.5986,2.5556,2.543,2.5177,2.3939,2.4476,2.5562,2.5562,2.5479,2.543,2.543,2.543,2.5315,2.4904,2.3593,2.2769,2.3847,2.2884,2.229,2.3823,2.3427,2.2818,2.2775,2.2086,2.1524,2.1423,2.0315,1.9446,1.9446,1.8375,1.7608,1.7608,1.7608,1.7608,1.7608,1.7608,1.7608,1.7608,1.7608,1.7608,1.7608,1.7608,1.7608,1.7608,1.7608,1.7608,1.7608,1.7608,1.7468,1.7233,1.7213,1.6898,2.0752,0.0,2.1288,2.0977,2.082,2.0742,0.0,2.0664,2.0605,2.0605,2.0605,2.0605,2.0605,2.0605,2.0605,2.0605,2.1329,2.2031,2.243,2.3809,2.5317,2.6699,2.6953,2.7353,2.8213,2.8291,2.8291,2.8291,2.8291,2.8291,2.8291,2.8291,2.8291,2.8291,2.8291,2.8291,2.8291,2.8291,2.8291,2.8291,2.8291,2.8291,2.8291,2.8291,2.8291,2.8291,2.8291,2.8291,2.8291,2.8291,2.8291,2.8291,2.8291,2.8291,2.8252,2.7956,2.69,2.5563,2.5105,2.4,2.2788,2.2668,2.2642,2.2592,2.2265,2.3101,2.4171,2.4171,2.3434,2.2642,2.2642,2.2642,2.2522,2.2085,2.1514,2.1045,2.0968,2.0502,2.0373,2.1303,2.1309,2.0997,2.0479,2.0236,1.9749,1.8726,1.8271,1.8068,1.8068,1.7786,1.7608,1.7608,1.7608,1.7608,1.7608,1.7608,1.7608,1.7608,1.7608,1.7608,1.7608,1.7608,1.7608,1.7608,1.7608,1.7608,1.7608,1.7608,1.7575,1.7501,1.7306,1.6979,2.041,2.0762,2.0869,2.0644,2.0605,2.0605,2.0605,2.0605,2.0605,2.0605,2.0605,2.0605,2.0605,2.0605,2.0605,2.0605,2.1495,2.2529,2.3545,2.4658,2.5713,2.6621,2.6894,2.7275,2.7966,2.8174,2.8291,2.8291,2.8291,2.8291,2.8291,2.8291,2.8291,2.8291,2.8291,2.8291,2.8291,2.8291,2.8291,2.8291,2.8291,2.8291,2.8291,2.8291,2.8291,2.8291,2.8291,2.8291,2.8291,2.8291,2.8291,2.8271,2.8112,2.7634,2.7026,2.6619,2.532,2.373,2.347,2.2647,2.16,2.0939,2.1169,2.1575,2.0914,2.1245,2.1963,2.2592,2.2257,2.1702,2.1702,2.1702,2.1652,2.1378,2.0612,2.0044,2.0345,1.9693,1.9328,2.0327,2.0151,1.9749,1.9394,1.897,1.8454,1.7714,1.7608,1.7608,1.7608,1.7608,1.7608,1.7608,1.7608,1.7608,1.7608,1.7608,1.7608,1.7608,1.7608,1.7608,1.7608,1.7608,1.7608,1.7608,1.7608,1.7608,1.7608,1.7608,1.7608,1.7608,1.7448,1.7214,2.0439,2.0684,2.0693,2.0625,2.0605,2.0605,2.0605,2.0605,2.0605,2.0605,2.0605,2.0605,2.0605,2.0644,2.0684,2.0684,2.1816,2.3262,2.4867,2.5449,2.5874,2.6338,2.6699,2.7119,2.7643,2.8015,2.8223,2.8291,2.8291,2.8291,2.8291,2.8291,2.8262,2.8203,2.822,2.8164,2.8096,2.8223,2.8291,2.8291,2.8291,2.8291,2.8291,2.8291,2.8291,2.8291,2.8291,2.8262,2.8193,2.797,2.7842,2.7755,2.7187,2.6244,2.5147,2.4735,2.3496,2.197,2.1679,2.135,2.0888,1.9672,2.0102,2.0837,1.9653,1.9298,1.955,2.0735,2.1067,2.1067,2.1067,2.1067,2.1067,2.1067,1.9951,1.9167,2.0196,1.9269,1.8565,1.9681,1.9271,1.8742,1.8785,1.8137,1.7608,1.7608,1.7608,1.7608,1.7608,1.7608,1.7608,1.7608,1.7608,1.7608,1.7608,1.7608,1.7608,1.7608,1.7608,1.7608,1.7608,1.7608,1.7608,1.7608,1.7608,1.7608,1.7608,1.7608,1.7608,1.7608,1.7608,1.7454,2.0781,2.1113,2.1025,2.0684,2.0605,2.0605,2.0605,2.0605,2.0605,2.0605,2.0605,2.0605,2.0605,2.0879,2.1113,2.1113,2.2519,2.3935,2.4955,2.5449,2.5874,2.6338,2.6445,2.6822,2.7614,2.7751,2.7936,2.8262,2.8291,2.8291,2.8291,2.8291,2.8125,2.78,2.779,2.7614,2.7217,2.793,2.8291,2.8291,2.8291,2.8291,2.8291,2.8291,2.8291,2.8291,2.8291,2.8122,2.7701,2.65,2.5801,2.5385,2.4131,2.3488,2.326,2.2872,2.181,2.04,1.8845,1.8286,1.8199,1.797,1.8042,1.8199,1.7963,1.7917,1.7943,1.8173,1.8218,1.8218,1.8218,1.8218,1.8218,1.8218,1.7867,1.7551,1.7742,1.7356,1.7125,1.7606,1.7568,1.7556,1.7782,1.7706,1.7608,1.7608,1.7608,1.7608,1.7608,1.7608,1.7608,1.7608,1.7608,1.7608,1.7608,1.7608,1.7608,1.7608,1.7608,1.7608,1.7608,1.7608,1.7608,1.7608,1.7608,1.7608,1.7608,1.7608,1.7608,1.7608,1.7608,1.7454,2.0274,2.0674,2.082,2.0654,2.0772,2.0859,2.0644,2.0605,2.0605,2.0605,2.0605,2.0674,2.0879,2.1074,2.1513,2.244,2.3281,2.418,2.5273,2.5581,2.5786,2.5991,2.625,2.6568,2.6969,2.7178,2.7393,2.7588,2.7598,2.7598,2.7598,2.7598,2.7519,2.7324,2.7314,2.7217,2.6986,2.7402,2.7598,2.7598,2.7598,2.7598,2.7598,2.7598,2.7598,2.7545,2.6836,2.6398,2.6141,2.473,2.4042,2.3782,2.2902,2.2136,2.1357,2.0181,1.9361,1.8722,1.7886,1.7608,1.7608,1.7608,1.7608,1.7608,1.7608,1.7608,1.7608,1.7608,1.7608,1.7608,1.7608,1.7608,1.7608,1.7608,1.7508,1.7408,1.7408,1.7301,1.7221,1.7388,1.7408,1.7454,1.7588,1.7608,1.7608,1.7608,1.7608,1.7608,1.7608,1.7608,1.7608,1.7608,1.7608,1.7608,1.7608,1.7608,1.7608,1.7608,1.7608,1.7608,1.7608,1.7608,1.7608,1.7608,1.7608,1.7608,1.7608,1.7608,1.7608,1.7608,1.7608,1.7535,1.9757,2.0156,2.0429,2.0429,2.0752,2.0996,2.0801,2.0742,2.0772,2.0869,2.0899,2.0996,2.1298,2.1445,2.204,2.3682,2.3935,2.4355,2.5542,2.5693,2.5693,2.5693,2.601,2.6279,2.6402,2.668,2.6904,2.6986,2.6986,2.6986,2.6986,2.6986,2.6973,2.6875,2.6865,2.6816,2.6693,2.6693,2.6791,2.6986,2.6986,2.6849,2.6532,2.6532,2.6343,2.5973,2.4951,2.4445,2.4252,2.2881,2.2223,2.2065,2.1432,2.0579,1.9512,1.8104,1.7608,1.7608,1.7608,1.7608,1.7608,1.7608,1.7608,1.7608,1.7608,1.7608,1.7608,1.7608,1.7608,1.7608,1.7608,1.7608,1.7608,1.7608,1.7608,1.7628,1.7675,1.7689,1.7689,1.7689,1.7689,1.7669,1.7622,1.7608,1.7608,1.7608,1.7608,1.7608,1.7608,1.7608,1.7608,1.7608,1.7608,1.7608,1.7608,1.7608,1.7608,1.7608,1.7608,1.7608,1.7608,1.7608,1.7608,1.7608,1.7608,1.7608,1.7608,1.7608,1.7608,1.7608,1.7608,1.7608,1.9669,1.9913,1.9942,1.9942,2.0293,2.0732,2.1084,2.1162,2.1279,2.1729,2.1808,2.1817,2.1836,2.2158,2.282,2.4137,2.4352,2.4664,2.5557,2.5693,2.5693,2.5693,2.5713,2.5923,2.6348,2.6416,2.6592,2.6957,2.6986,2.6986,2.6986,2.6986,2.6836,2.6445,2.6435,2.624,2.5815,2.5781,2.6206,2.6986,2.6986,2.6343,2.5133,2.5133,2.4437,2.32,2.3086,2.2849,2.2384,2.1049,2.0234,1.9721,1.8443,1.7872,1.7793,1.7641,1.7608,1.7608,1.7608,1.7608,1.7608,1.7608,1.7608,1.7608,1.7608,1.7608,1.7608,1.7608,1.7608,1.7608,1.7608,1.7608,1.7608,1.7608,1.7608,1.7662,1.7922,1.7962,1.7962,1.7962,1.7962,1.7896,1.7629,1.7608,1.7608,1.7608,1.7608,1.7608,1.7608,1.7608,1.7608,1.7608,1.7608,1.7608,1.7608,1.7608,1.7608,1.7608,1.7608,1.7608,1.7608,1.7608,1.7608,1.7608,1.7608,1.7608,1.7608,1.7608,1.7608,1.7608,1.7608,1.7608,1.8997,1.9493,1.9835,1.959,1.9844,2.0273,2.0742,2.084,2.1035,2.1759,2.1905,2.1984,2.2227,2.2596,2.321,2.4225,2.4391,2.4703,2.5591,2.5693,2.5693,2.5693,2.5693,2.5776,2.5942,2.5962,2.602,2.6186,2.6196,2.6196,2.6196,2.6196,2.6118,2.5962,2.5159,2.4644,2.4461,2.3633,2.3376,2.3719,2.4546,2.4235,2.2963,2.2963,2.2655,2.2115,2.1242,2.0755,2.0509,1.9175,1.8506,1.8297,1.7786,1.7608,1.7608,1.7608,1.7608,1.7608,1.7608,1.7608,1.7608,1.7608,1.7608,1.7608,1.7608,1.7608,1.7608,1.7608,1.7722,1.7796,1.7629,1.7608,1.7608,1.7608,1.7608,1.7669,1.7949,1.7995,1.7995,1.7995,1.7995,1.7922,1.7662,1.7608,1.7608,1.7608,1.7608,1.7608,1.7608,1.7608,1.7608,1.7608,1.7608,1.7608,1.7608,1.7608,1.7608,1.7608,1.7608,1.7608,1.7608,1.7608,1.7608,1.7608,1.7608,1.7608,1.7608,1.7608,1.7608,1.7608,1.7608,1.7608,1.8403,1.8849,1.923,1.8955,1.9181,1.9679,2.0429,2.0693,2.1064,2.207,2.2275,2.2373,2.2635,2.2896,2.3396,2.4254,2.4391,2.4703,2.5591,2.5693,2.5693,2.5693,2.5693,2.5693,2.5693,2.5693,2.5693,2.5693,2.5693,2.5693,2.5693,2.5693,2.5513,2.5069,2.4171,2.3509,2.3076,2.2156,2.1473,2.1041,2.1963,2.1912,2.1041,2.1041,2.0812,2.0359,1.9395,1.8961,1.889,1.797,1.7608,1.7608,1.7608,1.7608,1.7608,1.7608,1.7608,1.7608,1.7608,1.7608,1.7608,1.7608,1.7608,1.7608,1.7608,1.7608,1.7608,1.7608,1.7782,1.7969,1.7756,1.7796,1.7869,1.7869,1.7869,1.7949,1.8229,1.8268,1.8268,1.8268,1.8223,1.8063,1.7782,1.7649,1.7608,1.7608,1.7608,1.7608,1.7608,1.7608,1.7608,1.7608,1.7608,1.7608,1.7608,1.7608,1.7608,1.7608,1.7608,1.7608,1.7608,1.7608,1.7608,1.7608,1.7608,1.7608,1.7608,1.712,1.6902,1.6902,1.6446,1.6227,1.7991,1.8001,1.8018,1.8018,1.8313,1.8966,2.0293,2.0918,2.1561,2.2828,2.3091,2.3091,2.3091,2.3091,2.3374,2.4245,2.4391,2.4703,2.5581,2.5693,2.5693,2.5693,2.5693,2.5693,2.5693,2.5693,2.5693,2.5693,2.5693,2.5684,2.5684,2.5659,2.5045,2.3716,2.3658,2.3026,2.1693,2.1676,2.0965,1.9576,1.9576,1.9576,1.9576,1.9576,1.8864,1.7608,1.7608,1.7608,1.7608,1.7608,1.7608,1.7608,1.7608,1.7608,1.7608,1.7608,1.7608,1.7608,1.7608,1.7608,1.7608,1.7608,1.7608,1.7608,1.7608,1.7608,1.7608,1.7608,1.7809,1.7995,1.7995,1.827,1.8497,1.849,1.849,1.8571,1.8836,1.8896,1.8896,1.8896,1.8691,1.8397,1.8069,1.7789,1.7608,1.7608,1.7608,1.7608,1.7608,1.7608,1.7608,1.7608,1.7608,1.7608,1.7608,1.7608,1.7608,1.7608,1.7582,1.7582,1.7608,1.7608,1.7582,1.7582,1.7582,1.7582,1.7556,1.6088,1.539,1.5337,1.3938,1.3291,1.7991,1.8205,1.8412,1.8412,1.8762,1.9434,2.0723,2.1123,2.1561,2.2828,2.3091,2.3091,2.3091,2.3091,2.3298,2.3887,2.4228,2.4619,2.5209,2.5513,2.5693,2.5693,2.5693,2.5693,2.5693,2.5693,2.5693,2.5693,2.4839,2.4304,2.4304,2.3409,2.2692,2.2316,2.1329,2.0615,2.0238,1.9291,1.8603,1.8199,1.8199,1.8199,1.8199,1.8199,1.797,1.7608,1.7608,1.7608,1.7608,1.7608,1.7608,1.7608,1.7608,1.7608,1.7608,1.7608,1.7608,1.7608,1.7608,1.7608,1.7608,1.7608,1.7608,1.7608,1.7608,1.7608,1.7608,1.7608,1.7956,1.8357,1.8357,1.8731,1.9033,1.8591,1.849,1.8571,1.8836,1.8896,1.8896,1.8896,1.8691,1.8397,1.8069,1.7789,1.7608,1.7608,1.7608,1.7608,1.7608,1.7608,1.7608,1.7608,1.7608,1.7608,1.7608,1.7608,1.7608,1.7608,1.6638,1.6525,1.7556,1.7608,1.712,1.6068,1.6035,1.5583,1.4556,1.4153,1.3911,1.3911,1.348,1.3291,1.7552,1.8006,1.8509,1.8146,1.8475,1.9231,2.051,2.1399,2.2165,2.2935,2.3091,2.3091,2.3091,2.3091,2.3259,2.3721,2.4004,2.4375,2.5004,2.5303,2.5513,2.5689,2.5226,2.4922,2.4922,2.4427,2.4097,2.4097,2.3359,2.2901,2.2901,2.2131,2.1448,2.0888,2.0033,1.935,1.8812,1.7989,1.7608,1.7608,1.7608,1.7608,1.7608,1.7608,1.7608,1.7608,1.7608,1.7608,1.7608,1.7608,1.7608,1.7608,1.7608,1.7608,1.7608,1.7608,1.7608,1.7608,1.7608,1.7608,1.7608,1.7608,1.7608,1.7608,1.7608,1.7608,1.7608,1.7608,1.7936,1.831,1.831,1.8751,1.9132,1.8926,1.8866,1.8891,1.9058,1.9098,1.9098,1.9098,1.8771,1.8437,1.8229,1.7869,1.7608,1.7608,1.7608,1.7608,1.7608,1.7094,1.6744,1.6744,1.6744,1.6499,1.5935,1.6393,1.6499,1.5935,1.507,1.4963,1.5855,1.5882,1.547,1.4583,1.4556,1.4153,1.3291,1.2701,1.243,1.2403,1.1837,1.1538,1.6882,1.7517,1.8254,1.7379,1.7742,1.8597,1.9764,2.1453,2.2796,2.2906,2.2928,2.2906,2.2796,2.2775,2.29,2.3339,2.3435,2.3747,2.4519,2.4687,2.4837,2.5218,2.4196,2.348,2.348,2.2391,2.1702,2.1702,2.1575,2.1524,2.1524,2.1389,2.0735,1.9446,1.942,1.8838,1.7608,1.7608,1.7608,1.7608,1.7608,1.7608,1.7608,1.7608,1.7608,1.7608,1.7608,1.7608,1.7608,1.7608,1.7608,1.7608,1.7608,1.7608,1.7608,1.7608,1.7608,1.7608,1.7608,1.7608,1.7608,1.7608,1.7608,1.7608,1.7608,1.7608,1.7608,1.7608,1.7782,1.8002,1.8056,1.8476,1.897,1.9328,1.9395,1.9395,1.9395,1.9395,1.9395,1.9395,1.892,1.849,1.849,1.801,1.7556,1.7417,1.7391,1.7338,1.7226,1.6041,1.5198,1.5198,1.5198,1.469,1.3399,1.4475,1.4663,1.3372,1.3156,1.3102,1.3102,1.3237,1.3237,1.3102,1.3102,1.3021,1.2886,1.1538,1.0891,1.0863,0.9537,0.8912,1.7115,1.7117,1.7252,1.6907,1.7592,1.8444,1.8722,1.9574,2.0539,2.148,2.1689,2.1391,2.0449,2.026,2.0317,2.0403,2.0683,2.0948,2.1158,2.149,2.1754,2.1841,2.1793,2.1742,2.1742,2.1703,2.1702,2.1702,2.0692,2.0058,2.0058,1.9057,1.8349,1.8042,1.8022,1.7891,1.7608,1.7608,1.7608,1.7608,1.7608,1.7608,1.7608,1.7608,1.7608,1.7608,1.7608,1.7608,1.7608,1.7608,1.7608,1.7608,1.7608,1.7608,1.7608,1.7608,1.7608,1.7608,1.7608,1.7608,1.7608,1.7608,1.7608,1.7608,1.7608,1.7608,1.7608,1.7608,1.7782,1.8049,1.8309,1.8629,1.897,1.9328,1.9395,1.9395,1.9395,1.9395,1.9395,1.9395,1.892,1.849,1.849,1.801,1.7206,1.6035,1.5876,1.547,1.4368,1.3938,1.375,1.375,1.375,1.3615,1.3318,1.3588,1.3615,1.3318,1.2213,1.1565,1.1565,1.2674,1.2756,1.1592,1.1565,1.1,0.9833,0.9537,0.9372,0.9372,0.9047,0.8912,1.6484,1.672,1.7167,1.64,1.7214,1.8102,1.7727,1.8505,1.9358,1.9546,2.0034,2.026,1.9625,1.9497,1.9497,1.9497,1.9668,1.9873,2.007,2.03,2.0562,2.0761,2.0321,1.9993,1.9993,1.9587,1.93,1.93,1.8633,1.8208,1.8208,1.7702,1.7401,1.7401,1.7535,1.7608,1.7608,1.7608,1.7608,1.7608,1.7608,1.7608,1.7608,1.7608,1.7608,1.7608,1.7608,1.7608,1.7608,1.7608,1.7608,1.7608,1.7608,1.7608,1.7608,1.7608,1.7608,1.7608,1.7608,1.7608,1.7608,1.7608,1.7608,1.7477,1.677,1.6552,1.6419,1.5716,1.563,1.5802,1.604,1.63,1.6759,1.7784,1.8725,1.9395,1.9395,1.9395,1.9156,1.8402,1.7831,1.7195,1.6434,1.5878,1.5289,1.4502,1.4395,1.4126,1.3399,1.2674,1.224,1.224,1.224,1.1973,1.1242,1.1837,1.1946,1.1242,1.0457,1.0053,1.0053,1.0781,1.0836,1.0049,1.0053,0.9671,0.8912,0.8912,0.8912,0.8912,0.8912,0.8912,1.577,1.6104,1.6723,1.5601,1.6393,1.7239,1.663,1.7507,1.8261,1.7524,1.8342,1.9131,1.8902,1.8848,1.8848,1.8848,1.8848,1.8975,1.9309,1.9365,1.9501,1.9893,1.8959,1.8304,1.8304,1.7307,1.6707,1.6707,1.6707,1.6707,1.6707,1.6966,1.71,1.71,1.7334,1.7428,1.7428,1.7508,1.7535,1.7535,1.7582,1.7608,1.7608,1.7608,1.7608,1.7608,1.7608,1.7608,1.7608,1.7608,1.7608,1.7608,1.7608,1.7635,1.7655,1.7655,1.753,1.733,1.733,1.7157,1.6937,1.6937,1.6905,1.666,1.5481,1.5079,1.4808,1.3667,1.3325,1.3376,1.352,1.3764,1.4329,1.5833,1.7408,1.8648,1.8917,1.8771,1.8169,1.685,1.6201,1.5451,1.4056,1.3512,1.321,1.2967,1.2913,1.2837,1.2566,1.1487,1.0726,1.0726,1.0726,1.0241,0.8992,1.0021,1.0186,0.8964,0.8912,0.8912,0.8912,0.8912,0.8912,0.8912,0.8912,0.8912,0.8912,0.8912,0.8912,0.8912,0.8912,0.8912,1.5996,1.4854,1.4095,1.394,1.4418,1.5019,1.5195,1.5586,1.5927,1.6025,1.7061,1.7614,1.6497,1.6285,1.6285,1.6285,1.6285,1.6298,1.6363,1.637,1.6408,1.6449,1.6553,1.6619,1.6619,1.6677,1.6707,1.6707,1.6707,1.6707,1.6707,1.674,1.6767,1.6767,1.68,1.682,1.682,1.7107,1.7259,1.7266,1.7488,1.7608,1.7608,1.7608,1.7608,1.7608,1.7608,1.7608,1.7608,1.7608,1.7608,1.7608,1.7608,1.7736,1.7956,1.7956,1.7259,1.6293,1.6293,1.5384,1.4224,1.4224,1.415,1.4035,1.3943,1.3756,1.3576,1.3502,1.3475,1.3525,1.3774,1.3991,1.4265,1.4734,1.5053,1.5612,1.7032,1.6232,1.5168,1.496,1.4525,1.4035,1.3476,1.3332,1.2864,1.1592,1.1378,1.0918,0.9644,0.932,0.9182,0.9182,0.9182,0.9099,0.8912,0.9075,0.9099,0.8912,0.8912,0.8912,0.8912,0.8912,0.8912,0.8912,0.8912,0.8912,0.8912,0.8912,0.8912,0.8912,0.8912,0.8912,1.6037,1.4402,1.322,1.352,1.3793,1.4127,1.4609,1.4966,1.526,1.5524,1.6135,1.6457,1.5896,1.5808,1.5808,1.5808,1.5808,1.5808,1.5808,1.5808,1.5808,1.5808,1.5921,1.6025,1.6025,1.6139,1.6195,1.6195,1.6195,1.6195,1.6195,1.6373,1.6491,1.6491,1.662,1.6707,1.6707,1.6859,1.6926,1.6926,1.7034,1.7174,1.7367,1.7367,1.7454,1.7608,1.7608,1.7608,1.7608,1.7608,1.7689,1.7816,1.7816,1.7462,1.6946,1.6946,1.6009,1.4775,1.4775,1.429,1.369,1.369,1.3658,1.3458,1.2705,1.2382,1.2152,1.1402,1.12,1.1245,1.1425,1.1557,1.1896,1.3003,1.2573,1.2363,1.3964,1.4445,1.4291,1.3231,1.2149,1.1261,1.0898,1.0836,1.0621,0.997,0.986,0.9644,0.8992,0.8912,0.8912,0.8912,0.8912,0.8912,0.8912,0.8912,0.8912,0.8912,0.8912,0.8912,0.8912,0.8912,0.8912,0.8912,0.8912,0.8912,0.8912,0.8912,0.8912,0.8912,0.8912,0.8912,1.5431,1.3977,1.2891,1.33,1.3453,1.3667,1.4254,1.4583,1.4885,1.5304,1.5571,1.5721,1.5788,1.5808,1.5808,1.5808,1.5808,1.5808,1.5808,1.5808,1.5808,1.5808,1.5808,1.5808,1.5808,1.5808,1.5808,1.5808,1.5808,1.5808,1.5808,1.6039,1.6159,1.6159,1.6373,1.6455,1.6455,1.656,1.6633,1.6707,1.6707,1.682,1.7066,1.7066,1.7019,1.6912,1.7384,1.7608,1.7582,1.7199,1.7189,1.738,1.6993,1.6348,1.5609,1.5609,1.4642,1.3317,1.3317,1.3053,1.2712,1.2712,1.2675,1.2447,1.1375,1.1012,1.0755,0.9742,0.9439,0.9466,0.9581,0.9635,0.9986,1.129,1.066,1.0122,1.1318,1.2508,1.2906,1.1471,1.0177,0.9242,0.8956,0.8912,0.8912,0.8912,0.8912,0.8912,0.8912,0.8912,0.8912,0.8912,0.8912,0.8912,0.8912,0.8912,0.8912,0.8912,0.8912,0.8912,0.8912,0.8912,0.8912,0.8912,0.8912,0.8912,0.8912,0.8912,0.8912,0.8912,0.8912,0.8912,1.3814,1.3303,1.281,1.2824,1.3032,1.3387,1.3975,1.4122,1.4397,1.5224,1.5404,1.5504,1.5755,1.5808,1.5808,1.5808,1.5808,1.5808,1.5808,1.5808,1.5808,1.5808,1.5808,1.5808,1.5808,1.5808,1.5808,1.5808,1.5808,1.5808,1.5808,1.5821,1.5828,1.5828,1.5841,1.5848,1.5848,1.6152,1.6458,1.6707,1.6707,1.6714,1.6727,1.6727,1.6067,1.5049,1.6834,1.7608,1.7503,1.6088,1.5629,1.568,1.4266,1.3974,1.4293,1.4293,1.3433,1.2273,1.2273,1.129,1.0007,1.0007,0.9913,0.9827,0.9875,0.972,0.9528,0.9584,0.9598,0.9598,0.9608,0.968,0.9812,0.991,0.9849,0.9819,0.991,0.9894,0.9808,0.9557,0.9348,0.9145,0.8936,0.8912,0.8912,0.8912,0.8912,0.8912,0.8912,0.8912,0.8912,0.8912,0.8912,0.8912,0.8912,0.8912,0.8912,0.8912,0.8912,0.8912,0.8912,0.8912,0.8912,0.8912,0.8912,0.8912,0.8912,0.8912,0.8912,0.8912,0.8912,0.8912,1.3709,1.3103,1.2524,1.2756,1.2864,1.3039,1.3434,1.3814,1.4196,1.4489,1.5003,1.5431,1.5531,1.5681,1.5808,1.5808,1.5808,1.5808,1.5808,1.5808,1.5808,1.5808,1.5808,1.5808,1.5808,1.5808,1.5808,1.5808,1.5808,1.5808,1.5808,1.5808,1.5808,1.5808,1.5808,1.5808,1.5808,1.5915,1.6039,1.6122,1.6122,1.5787,1.5153,1.5153,1.4564,1.356,1.423,1.4516,1.4487,1.4189,1.4212,1.4371,1.402,1.3481,1.291,1.291,1.1944,1.066,1.066,1.027,0.9792,0.9792,0.9758,0.9724,0.9775,0.9747,0.9676,0.973,0.9714,0.9714,0.9714,0.9751,0.9792,0.9792,0.9792,0.9765,0.9703,0.9646,0.9564,0.9441,0.9288,0.9134,0.8936,0.8912,0.8912,0.8912,0.8912,0.8912,0.8912,0.8912,0.8912,0.8912,0.8912,0.8912,0.8912,0.8912,0.8912,0.8912,0.8912,0.8912,0.8912,0.8912,0.8953,0.9104,0.8956,0.8912,0.8912,0.8912,0.8912,0.8912,0.8912,0.8912,1.3219,1.2769,1.2351,1.2583,1.2636,1.2717,1.3006,1.338,1.3715,1.3895,1.4482,1.4983,1.5084,1.5418,1.5695,1.5788,1.5808,1.5808,1.5808,1.5808,1.5808,1.5808,1.5808,1.5808,1.5808,1.5808,1.5808,1.5808,1.5808,1.5808,1.5808,1.5808,1.5808,1.5808,1.5808,1.5808,1.5808,1.5391,1.517,1.517,1.4711,1.4141,1.3488,1.3488,1.2927,1.1931,1.1931,1.2251,1.2792,1.2578,1.2635,1.2805,1.2553,1.1974,1.1264,1.1264,1.0588,0.9673,0.9673,0.9673,0.9683,0.9734,0.9721,0.9727,0.9775,0.9792,0.9792,0.9792,0.9792,0.9792,0.9792,0.9792,0.9778,0.9731,0.9721,0.971,0.9564,0.9534,0.949,0.9362,0.9213,0.9052,0.8926,0.8912,0.8912,0.8912,0.8912,0.8912,0.8912,0.8912,0.8912,0.8912,0.8912,0.8912,0.8912,0.8912,0.8912,0.8912,0.8912,0.8933,0.9008,0.8936,0.9008,0.9207,0.9059,0.9011,0.9011,0.8933,0.8936,0.9011,0.8933,0.8912,0.0,0.0,0.0,1.2305,1.2305,1.2397,1.2703,1.2796,1.2951,1.3474,1.384,1.4162,1.4421,1.497,1.5464,1.5721,1.5788,1.5808,1.5808,1.5808,1.5808,1.5808,1.5808,1.5808,1.5808,1.5808,1.5808,1.5808,1.5808,1.5808,1.5808,1.5808,1.5808,1.5808,1.5808,1.5778,1.573,1.4513,1.3878,1.3824,1.2533,1.1882,1.1858,1.1843,1.1243,1.0142,1.0142,1.1108,1.2576,1.1358,1.0913,1.0907,0.9683,0.9281,0.941,0.941,0.941,0.941,0.941,0.941,0.9434,0.9554,0.9602,0.9629,0.9737,0.9778,0.9778,0.9778,0.9778,0.9778,0.9778,0.9778,0.9744,0.9635,0.9602,0.9561,0.9437,0.9403,0.9359,0.9238,0.9035,0.8912,0.8912,0.8912,0.8912,0.8912,0.8912,0.8912,0.8912,0.8912,0.8912,0.8912,0.8912,0.8912,0.8912,0.8916,0.8919,0.8919,0.8923,0.9015,0.921,0.9025,0.9018,0.9221,0.9217,0.9221,0.9228,0.9025,0.9025,0.9214,0.9011,0.8916,1.2305,0.0,0.0,0.0,0.0,0.0,1.2423,1.263,1.2831,1.2979,1.3407,1.3767,1.3847,1.4347,1.4767,1.4848,1.5394,1.5808,1.5808,1.5808,1.5808,1.5808,1.5808,1.5808,1.5808,1.5808,1.5808,1.5808,1.5808,1.5808,1.5808,1.5808,1.5808,1.5808,1.5808,1.5367,1.4435,1.407,1.3416,1.2455,1.2225,1.1607,1.0664,1.0759,1.0138,0.8983,0.8983,0.9242,0.9668,0.9514,0.947,0.9507,0.9389,0.9373,0.941,0.941,0.941,0.941,0.941,0.941,0.9417,0.9432,0.9445,0.9452,0.949,0.9503,0.9503,0.9503,0.9503,0.9503,0.9503,0.9503,0.9493,0.9452,0.9445,0.943,0.9277,0.9243,0.9233,0.9217,0.9035,0.8912,0.8912,0.8912,0.8912,0.8912,0.8912,0.8912,0.8912,0.8912,0.8912,0.8912,0.8912,0.8912,0.8912,0.9032,0.9121,0.9121,0.9198,0.9276,0.9345,0.9279,0.933,0.9479,0.9403,0.9451,0.9635,0.9381,0.9279,0.9342,0.9192,0.9039,0.0,0.0,0.0,0.0,0.0,0.0,1.2305,1.2457,1.2596,1.2596,1.2959,1.3273,1.3273,1.3734,1.4174,1.4315,1.4848,1.5348,1.5588,1.5628,1.5668,1.5788,1.5808,1.5808,1.5808,1.5808,1.5808,1.5808,1.5808,1.5808,1.5808,1.5808,1.5808,1.5808,1.5808,1.5194,1.3902,1.3349,1.2424,1.1194,1.0765,1.0184,0.9498,0.9573,0.9242,0.8577,0.8577,0.8615,0.8686,0.8838,0.8875,0.8838,0.9103,0.9198,0.9198,0.9198,0.9198,0.9198,0.9198,0.9198,0.9205,0.9294,0.9315,0.9328,0.939,0.941,0.941,0.941,0.941,0.941,0.941,0.941,0.9393,0.9328,0.9315,0.9274,0.9124,0.9062,0.9062,0.9062,0.8967,0.8912,0.8912,0.8912,0.8912,0.8912,0.8912,0.8912,0.8912,0.8912,0.8912,0.8912,0.8912,0.8936,0.9022,0.9131,0.9238,0.9274,0.9362,0.9437,0.9473,0.9444,0.9452,0.9605,0.952,0.9591,0.9792,0.9527,0.941,0.941,0.9318,0.9233,0.0,0.0,0.0,0.0,0.0,0.0,1.2305,1.2305,1.2305,1.2305,1.2531,1.2737,1.2737,1.316,1.3614,1.3915,1.4215,1.4621,1.5264,1.5351,1.5444,1.5681,1.5708,1.5721,1.5755,1.5761,1.5768,1.5801,1.5808,1.5808,1.5808,1.5659,1.5588,1.5588,1.5439,1.4771,1.3504,1.2296,1.1131,0.9989,0.8871,0.8396,0.8536,0.8549,0.8608,0.8733,0.8733,0.8784,0.8912,0.8912,0.8831,0.8723,0.8858,0.8912,0.8912,0.8912,0.8912,0.8912,0.8912,0.8912,0.8933,0.9114,0.9158,0.9182,0.9318,0.933,0.933,0.933,0.933,0.933,0.933,0.933,0.9328,0.9189,0.9158,0.9121,0.8936,0.8912,0.8912,0.8912,0.8912,0.8912,0.8912,0.8912,0.8912,0.8912,0.8912,0.8912,0.8912,0.8926,0.8929,0.8912,0.8926,0.9015,0.92,0.9224,0.9274,0.9427,0.9422,0.9493,0.9629,0.9503,0.9493,0.9632,0.9632,0.9696,0.9792,0.9557,0.9451,0.9434,0.9434,0.9417,0.0,0.0,0.0,0.0,0.0,0.0,1.2305,1.2305,1.2305,1.2305,1.2345,1.2403,1.2403,1.2698,1.2978,1.3038,1.346,1.408,1.4959,1.5073,1.5093,1.5146,1.516,1.5247,1.5458,1.5478,1.5578,1.5788,1.5808,1.5808,1.5808,1.483,1.4262,1.4262,1.3229,1.2099,1.0927,1.056,0.9841,0.8822,0.8569,0.852,0.8669,0.8767,0.8838,0.8869,0.8869,0.8882,0.8912,0.8912,0.8892,0.8869,0.8899,0.8912,0.8912,0.8912,0.8912,0.8912,0.8912,0.8912,0.8916,0.8943,0.8953,0.896,0.899,0.8997,0.8997,0.8997,0.8997,0.8997,0.8997,0.8997,0.899,0.896,0.8953,0.8946,0.8916,0.8912,0.8912,0.8912,0.8912,0.8912,0.8912,0.8912,0.8912,0.8912,0.8912,0.8912,0.8912,0.9042,0.9066,0.8923,0.9042,0.9152,0.9207,0.9294,0.943,0.9554,0.9673,0.9747,0.9748,0.9751,0.9747,0.9748,0.9751,0.9761,0.9792,0.9734,0.9676,0.9564,0.9564,0.9432,0.0,0.0,0.0,1.2305,0.0,0.0,0.0,1.2305,1.2305,1.2305,1.2305,1.2305,1.2305,1.2444,1.261,1.2776,1.3153,1.356,1.4049,1.4491,1.4819,1.4988,1.5008,1.5046,1.5186,1.52,1.5304,1.5591,1.4982,1.468,1.4841,1.3614,1.2909,1.2909,1.2261,1.1311,1.0104,1.0104,0.9568,0.8509,0.856,0.8676,0.8798,0.8875,0.8912,0.8912,0.8912,0.8912,0.8912,0.8912,0.8912,0.8912,0.8912,0.8912,0.8912,0.8912,0.8912,0.8912,0.8912,0.8912,0.8912,0.8912,0.8912,0.8912,0.8912,0.8912,0.8912,0.8912,0.8912,0.8912,0.8912,0.8912,0.8912,0.8912,0.8912,0.8912,0.8912,0.8912,0.8912,0.8912,0.8912,0.8912,0.8912,0.8912,0.8912,0.8912,0.897,0.9045,0.9045,0.9203,0.9267,0.9167,0.9254,0.9325,0.9403,0.9452,0.9557,0.9677,0.9751,0.9792,0.9792,0.9792,0.9792,0.9792,0.9792,0.9792,0.9792,0.9721,0.9687,0.9683,0.9642,0.9527,0.0,0.0,0.0,0.0,0.0,1.2305,0.0,0.0,0.0,1.2305,1.2305,1.2305,1.2305,1.2305,1.2417,1.2756,1.2979,1.314,1.318,1.38,1.4382,1.4698,1.4778,1.4839,1.4892,1.4952,1.4989,1.4986,1.3965,1.3391,1.3474,1.2212,1.1512,1.1531,1.133,1.0733,0.9734,0.9818,0.9434,0.857,0.8665,0.8764,0.8912,0.8912,0.8912,0.8912,0.8912,0.8912,0.8912,0.8912,0.8912,0.8912,0.8912,0.8912,0.8912,0.8912,0.8912,0.8912,0.8912,0.8912,0.8912,0.8912,0.8912,0.8912,0.8912,0.8912,0.8912,0.8912,0.8912,0.8912,0.8912,0.8912,0.8912,0.8912,0.8912,0.8919,0.8946,0.8929,0.8919,0.8946,0.8929,0.8912,0.8912,0.8933,0.8953,0.8953,0.9103,0.9226,0.9226,0.9359,0.9415,0.9413,0.9437,0.9476,0.9598,0.9608,0.9669,0.9781,0.9792,0.9792,0.9792,0.9792,0.9792,0.9792,0.9792,0.9792,0.9792,0.9677,0.9707,0.9788,0.9676,0.9608,0.0,0.0,0.0,0.0,1.2305,0.0,0.0,0.0,1.2305,1.2305,0.0,1.2305,1.2305,0.0,0.0,1.2756,1.283,1.2938,1.3173,1.33,1.3447,1.374,1.4028,1.431,1.4521,1.4832,1.4559,1.3532,1.3304,1.2859,1.1992,1.072,1.0086,1.0215,0.9243,0.8684,0.8663,0.868,0.8757,0.8858,0.874,0.8764,0.8912,0.8912,0.8912,0.8912,0.8912,0.8912,0.8912,0.8912,0.8912,0.8912,0.8912,0.8912,0.8912,0.8912,0.8912,0.8912,0.8912,0.8912,0.8912,0.8912,0.8912,0.8912,0.8912,0.8912,0.8912,0.8912,0.8912,0.8912,0.8912,0.8912,0.8912,0.8912,0.8912,0.8946,0.9128,0.9028,0.895,0.9131,0.9025,0.8912,0.8912,0.9045,0.9155,0.9155,0.9288,0.9383,0.9383,0.949,0.9534,0.9424,0.9503,0.9591,0.9608,0.9608,0.9669,0.9781,0.9792,0.9792,0.9792,0.9792,0.9792,0.9792,0.9792,0.9792,0.9792,0.9775,0.9775,0.9788,0.9676,0.9608,0.0,0.0,0.0,0.0,0.0,0.0,1.2345,0.0,1.2305,0.0,0.0,0.0,0.0,0.0,0.0,0.0,1.267,1.277,1.2685,1.2986,1.324,1.3353,1.3627,1.3927,1.4242,1.4404,1.4052,1.3036,1.226,1.1409,1.0468,0.9299,0.8653,0.8725,0.8442,0.8325,0.8386,0.853,0.8679,0.8781,0.8804,0.8848,0.8912,0.8912,0.8912,0.8912,0.8912,0.8912,0.8912,0.8912,0.8912,0.8912,0.8912,0.8912,0.8912,0.8912,0.8912,0.8912,0.8912,0.8912,0.8912,0.8912,0.8912,0.8912,0.8912,0.8912,0.8912,0.8912,0.8912,0.8912,0.8912,0.8912,0.8933,0.9045,0.9062,0.9107,0.9169,0.9134,0.9111,0.9197,0.9131,0.9093,0.9181,0.9199,0.9241,0.9301,0.9415,0.9513,0.9513,0.9642,0.9707,0.9642,0.9693,0.9704,0.9704,0.9704,0.9727,0.9788,0.9792,0.9792,0.9792,0.9792,0.9792,0.9792,0.9792,0.9792,0.9792,0.9707,0.971,0.9788,0.9676,0.9608,1.2024,0.0,0.0,0.0,0.0,0.0,0.0,0.0,0.0,0.0,0.0,0.0,0.0,0.0,0.0,0.0,0.0,1.2616,1.2464,1.2739,1.2993,1.3073,1.3393,1.3707,1.3941,1.4041,1.3581,1.2287,1.1294,1.0212,0.8978,0.8142,0.7729,0.7811,0.8134,0.8315,0.8355,0.8625,0.8747,0.8747,0.8858,0.8912,0.8912,0.8912,0.8912,0.8912,0.8912,0.8912,0.8912,0.8912,0.8912,0.8912,0.8912,0.8912,0.8912,0.8912,0.8912,0.8912,0.8912,0.8912,0.8912,0.8912,0.8912,0.8912,0.8912,0.8912,0.8912,0.8912,0.8912,0.8912,0.8912,0.8912,0.8936,0.9097,0.9152,0.921,0.921,0.9245,0.9243,0.9243,0.9243,0.9291,0.9418,0.9379,0.9345,0.9425,0.9571,0.9666,0.9666,0.9727,0.9792,0.9792,0.9792,0.9792,0.9792,0.9792,0.9792,0.9792,0.9792,0.9792,0.9792,0.9792,0.9792,0.9792,0.9792,0.9792,0.9792,0.9259,0.9049,0.914,0.9463,0.9632,0.0,0.0,0.0,1.2086,0.0,0.0,0.0,0.0,1.2305,0.0,0.0,0.0,0.0,0.0,0.0,0.0,0.0,0.0,0.0,1.2517,1.2457,1.2764,1.3287,1.3606,1.3613,1.3915,1.3152,1.0837,1.0621,0.9693,0.7571,0.7429,0.7539,0.7801,0.8134,0.8362,0.8498,0.875,0.8902,0.8902,0.8909,0.8912,0.8912,0.8912,0.8912,0.8912,0.8912,0.8912,0.8912,0.8912,0.8912,0.8912,0.8912,0.8912,0.8912,0.8912,0.8912,0.8912,0.8912,0.8912,0.8912,0.8912,0.8912,0.8912,0.8912,0.8912,0.8912,0.8912,0.8912,0.8912,0.8912,0.8912,0.8912,0.8916,0.9052,0.921,0.921,0.9298,0.9403,0.9403,0.9403,0.9422,0.9578,0.9598,0.9598,0.9602,0.9724,0.9785,0.9785,0.9788,0.9792,0.9792,0.9792,0.9792,0.9792,0.9792,0.9792,0.9792,0.9792,0.9792,0.9792,0.9792,0.9792,0.9792,0.9792,0.9792,0.9792,0.8246,0.7479,0.751,0.8948,0.9683,1.016,1.0307,1.0674,1.1547,1.178,1.1925,0.0,0.0,0.0,0.0,0.0,0.0,0.0,0.0,0.0,0.0,0.0,0.0,0.0,1.1784,1.1757,1.1864,1.2591,1.3206,1.3567,1.3027,1.2067,1.0708,0.9901,0.8806,0.7281,0.7338,0.7485,0.7665,0.8087,0.8366,0.8505,0.8757,0.8912,0.8912,0.8912,0.8912,0.8912,0.8912,0.8912,0.8912,0.8912,0.8912,0.8912,0.8912,0.8912,0.8912,0.8912,0.8912,0.8912,0.8912,0.8912,0.8912,0.8912,0.8912,0.8912,0.8912,0.8912,0.8912,0.8912,0.8912,0.8912,0.8912,0.8912,0.8912,0.8912,0.8912,0.896,0.9184,0.9298,0.9362,0.9435,0.9496,0.9534,0.9534,0.9534,0.9578,0.9724,0.9717,0.9717,0.9717,0.9761,0.9792,0.9792,0.9792,0.9792,0.9792,0.9792,0.9792,0.9792,0.9792,0.9792,0.9792,0.9792,0.9792,0.9792,0.9792,0.9792,0.9792,0.8742,0.8218,0.8218,0.6566,0.5741,0.5772,0.6261,0.6509,0.922,0.9387,0.9773,1.0634,1.0856,1.1095,1.1965,0.0,1.1846,0.0,0.0,0.0,0.0,0.0,0.0,0.0,0.0,0.0,0.0,1.1406,1.1406,1.1406,1.2111,1.2645,1.2662,1.2214,1.1377,1.0099,0.9323,0.8364,0.7161,0.7288,0.7464,0.7594,0.7984,0.8282,0.8505,0.873,0.8855,0.8912,0.8912,0.8912,0.8912,0.8912,0.8912,0.8912,0.8912,0.8912,0.8912,0.8912,0.8912,0.8912,0.8912,0.8912,0.8912,0.8912,0.8912,0.8912,0.8912,0.8912,0.8912,0.8912,0.8912,0.8912,0.8912,0.8912,0.8933,0.9038,0.8994,0.8946,0.9109,0.9068,0.9076,0.9323,0.9422,0.9473,0.9517,0.9612,0.9669,0.9618,0.9649,0.9713,0.9775,0.9792,0.9792,0.9792,0.9792,0.9792,0.9792,0.9792,0.9576,0.9019,0.9451,0.9792,0.9792,0.9792,0.9792,0.9792,0.9792,0.9542,0.8958,0.8958,0.865,0.8072,0.7027,0.6505,0.6505,0.4853,0.4057,0.4027,0.3445,0.3168]},{"header":{"parameterUnit":"m.s-1","parameterCategory":1,"la1":30.6,"la2":29.2853,"lo1":-89.7004,"lo2":-87.6739,"dy":0.0162,"dx":0.0183,"nx":112,"ny":82,"refTime":"2023-04-02T06:00:00:Z","depth":0,"parameterNumber":3,"parameterNumberName":"V-component_of_WINDS"},"data":[0.0,0.0,0.0,0.0,0.0,0.0,0.0,0.0,0.0,0.0,0.0,0.0,0.0,0.0,0.0,0.0,0.0,0.0,0.0,0.0,0.0,0.0,0.0,0.0,0.0,0.0,0.0,0.0,0.0,0.0,0.0,0.0,0.0,0.0,0.0,0.0,0.0,0.0,0.0,0.0,0.0,0.0,0.0,0.0,0.0,0.0,0.0,0.0,0.0,0.0,0.0,0.0,0.0,0.0,0.0,0.0,0.0,0.0,0.0,0.0,0.0,0.0,0.0,0.0,0.0,0.0,0.0,0.0,0.0,0.0,0.0,0.0,0.0,0.0,0.0,0.0,0.0,0.0,0.0,0.0,0.0,0.0,0.0,0.0,0.0,0.0,0.0,0.0,0.0,0.0,2.2608,2.3058,2.3108,2.3108,2.3108,2.3108,2.3108,2.3108,0.0,0.0,0.0,0.0,0.0,0.0,0.0,0.0,0.0,0.0,0.0,0.0,0.0,0.0,0.0,0.0,0.0,0.0,0.0,0.0,0.0,0.0,0.0,0.0,0.0,0.0,0.0,0.0,0.0,0.0,0.0,0.0,0.0,0.0,0.0,0.0,0.0,0.0,0.0,0.0,0.0,0.0,0.0,0.0,0.0,0.0,0.0,0.0,0.0,0.0,0.0,0.0,0.0,0.0,0.0,0.0,0.0,0.0,0.0,0.0,0.0,0.0,0.0,0.0,0.0,0.0,0.0,0.0,0.0,0.0,0.0,0.0,0.0,0.0,0.0,0.0,0.0,0.0,0.0,0.0,0.0,0.0,0.0,0.0,0.0,0.0,0.0,0.0,0.0,0.0,0.0,0.0,0.0,0.0,0.0,0.0,0.0,0.0,0.0,0.0,0.0,0.0,0.0,0.0,2.3007,2.3095,2.3108,2.3108,2.3108,2.3108,2.3108,2.3108,0.0,0.0,0.0,0.0,0.0,0.0,0.0,0.0,0.0,0.0,0.0,0.0,0.0,0.0,0.0,0.0,0.0,0.0,0.0,0.0,0.0,0.0,0.0,0.0,0.0,0.0,0.0,0.0,0.0,0.0,0.0,0.0,0.0,0.0,0.0,0.0,0.0,0.0,0.0,0.0,0.0,0.0,0.0,0.0,0.0,0.0,0.0,0.0,0.0,0.0,0.0,0.0,0.0,0.0,0.0,0.0,0.0,0.0,0.0,0.0,0.0,0.0,0.0,0.0,0.0,0.0,0.0,0.0,0.0,0.0,0.0,0.0,0.0,0.0,0.0,0.0,0.0,0.0,0.0,0.0,0.0,0.0,0.0,0.0,0.0,0.0,0.0,0.0,0.0,0.0,0.0,0.0,0.0,0.0,0.0,0.0,0.0,0.0,0.0,0.0,0.0,0.0,0.0,2.2408,2.2458,2.3045,2.2832,2.2782,2.3083,2.3108,2.3108,2.3108,2.2869,0.0,0.0,0.0,0.0,0.0,0.0,0.0,0.0,0.0,0.0,0.0,0.0,0.0,0.0,0.0,0.0,0.0,0.0,0.0,0.0,0.0,0.0,0.0,0.0,0.0,0.0,0.0,0.0,0.0,0.0,0.0,0.0,0.0,0.0,0.0,0.0,0.0,0.0,0.0,0.0,0.0,0.0,0.0,0.0,0.0,0.0,0.0,0.0,0.0,0.0,0.0,0.0,0.0,0.0,0.0,0.0,0.0,0.0,0.0,0.0,0.0,0.0,0.0,0.0,0.0,0.0,0.0,0.0,0.0,0.0,0.0,0.0,0.0,0.0,0.0,0.0,0.0,0.0,0.0,0.0,0.0,0.0,0.0,0.0,0.0,0.0,0.0,0.0,0.0,0.0,0.0,0.0,0.0,0.0,0.0,0.0,0.0,0.0,0.0,0.0,0.0,0.0,2.1744,2.1857,2.2807,2.2531,2.2521,2.3058,2.2982,2.297,2.3095,2.2982,0.0,0.0,0.0,0.0,0.0,0.0,0.0,0.0,0.0,0.0,0.0,0.0,0.0,0.0,0.0,0.0,0.0,0.0,0.0,0.0,0.0,0.0,0.0,0.0,0.0,0.0,0.0,0.0,0.0,0.0,0.0,0.0,0.0,0.0,0.0,0.0,0.0,0.0,0.0,0.0,0.0,0.0,0.0,0.0,0.0,0.0,0.0,0.0,0.0,0.0,0.0,0.0,0.0,0.0,0.0,0.0,0.0,0.0,0.0,0.0,0.0,0.0,0.0,0.0,0.0,0.0,0.0,0.0,0.0,0.0,0.0,0.0,0.0,0.0,0.0,0.0,0.0,0.0,0.0,0.0,0.0,0.0,0.0,0.0,0.0,0.0,0.0,0.0,0.0,0.0,0.0,0.0,0.0,0.0,0.0,0.0,0.0,0.0,0.0,0.0,0.0,0.0,2.152,2.1721,2.2282,2.232,2.2521,2.3058,2.2631,2.2571,2.307,2.2631,0.0,0.0,0.0,0.0,0.0,0.0,0.0,0.0,0.0,0.0,0.0,0.0,0.0,0.0,0.0,0.0,0.0,0.0,0.0,0.0,0.0,0.0,0.0,0.0,0.0,0.0,0.0,0.0,0.0,0.0,0.0,0.0,0.0,0.0,0.0,0.0,0.0,0.0,0.0,0.0,0.0,0.0,0.0,0.0,0.0,0.0,0.0,0.0,0.0,0.0,0.0,0.0,0.0,0.0,0.0,0.0,0.0,0.0,0.0,0.0,0.0,0.0,0.0,0.0,0.0,0.0,0.0,0.0,0.0,0.0,0.0,0.0,0.0,0.0,0.0,0.0,0.0,0.0,0.0,0.0,0.0,0.0,0.0,0.0,0.0,0.0,0.0,0.0,0.0,0.0,0.0,0.0,0.0,0.0,0.0,0.0,0.0,0.0,0.0,0.0,0.0,0.0,2.0678,2.0916,0.0,2.2008,2.2144,2.3032,2.2907,2.2882,2.3095,0.0,0.0,0.0,0.0,0.0,0.0,0.0,0.0,0.0,0.0,0.0,0.0,0.0,0.0,0.0,0.0,0.0,0.0,0.0,0.0,0.0,0.0,0.0,0.0,0.0,0.0,0.0,0.0,0.0,0.0,0.0,0.0,0.0,0.0,0.0,0.0,0.0,0.0,0.0,0.0,0.0,0.0,0.0,0.0,0.0,0.0,0.0,0.0,0.0,0.0,0.0,0.0,0.0,0.0,0.0,0.0,0.0,0.0,0.0,0.0,0.0,0.0,0.0,0.0,0.0,0.0,0.0,0.0,0.0,0.0,0.0,0.0,0.0,0.0,0.0,0.0,0.0,0.0,0.0,0.0,0.0,0.0,0.0,0.0,0.0,0.0,0.0,0.0,0.0,0.0,0.0,0.0,0.0,0.0,0.0,0.0,0.0,0.0,0.0,0.0,0.0,0.0,2.044,2.005,2.0376,0.0,2.1721,2.1933,2.3007,2.2945,2.292,2.3095,0.0,0.0,0.0,0.0,0.0,0.0,0.0,0.0,0.0,0.0,0.0,0.0,0.0,0.0,0.0,0.0,0.0,0.0,0.0,0.0,0.0,0.0,0.0,0.0,0.0,0.0,0.0,0.0,0.0,0.0,0.0,0.0,0.0,0.0,0.0,0.0,0.0,0.0,0.0,0.0,0.0,0.0,0.0,0.0,0.0,0.0,0.0,0.0,0.0,0.0,0.0,0.0,0.0,0.0,0.0,0.0,0.0,0.0,0.0,0.0,0.0,0.0,0.0,0.0,0.0,0.0,0.0,0.0,0.0,0.0,0.0,0.0,0.0,0.0,0.0,0.0,0.0,0.0,0.0,0.0,0.0,0.0,0.0,0.0,0.0,0.0,0.0,0.0,0.0,0.0,0.0,0.0,0.0,0.0,0.0,0.0,0.0,0.0,0.0,0.0,0.0,0.0,1.9874,1.9798,2.0225,2.1369,2.1495,2.1933,2.2995,2.2594,2.2533,0.0,0.0,0.0,0.0,0.0,0.0,0.0,0.0,0.0,0.0,0.0,0.0,0.0,0.0,0.0,0.0,0.0,0.0,0.0,0.0,0.0,0.0,0.0,0.0,0.0,0.0,0.0,0.0,0.0,0.0,0.0,0.0,0.0,0.0,0.0,0.0,0.0,0.0,0.0,0.0,0.0,0.0,0.0,0.0,0.0,0.0,0.0,0.0,0.0,0.0,0.0,0.0,0.0,0.0,0.0,0.0,0.0,0.0,0.0,0.0,0.0,0.0,0.0,0.0,0.0,0.0,0.0,0.0,0.0,0.0,0.0,0.0,0.0,0.0,0.0,0.0,0.0,0.0,0.0,0.0,0.0,0.0,0.0,0.0,0.0,0.0,0.0,0.0,0.0,0.0,0.0,0.0,0.0,0.0,0.0,0.0,0.0,0.0,0.0,0.0,0.0,0.0,0.0,1.9823,1.9798,2.0087,2.0855,2.093,2.1369,2.2445,2.2383,2.237,2.2533,0.0,0.0,0.0,0.0,0.0,0.0,0.0,0.0,0.0,0.0,0.0,0.0,0.0,0.0,0.0,0.0,0.0,0.0,0.0,0.0,0.0,0.0,0.0,0.0,0.0,0.0,0.0,0.0,0.0,0.0,0.0,0.0,0.0,0.0,0.0,0.0,0.0,0.0,0.0,0.0,0.0,0.0,0.0,0.0,0.0,0.0,0.0,0.0,0.0,0.0,0.0,0.0,0.0,0.0,0.0,0.0,0.0,0.0,0.0,0.0,0.0,0.0,0.0,0.0,0.0,0.0,0.0,0.0,0.0,0.0,0.0,0.0,0.0,0.0,0.0,0.0,0.0,0.0,0.0,0.0,0.0,0.0,0.0,0.0,0.0,0.0,0.0,0.0,0.0,0.0,0.0,0.0,0.0,0.0,0.0,0.0,0.0,0.0,0.0,0.0,0.0,0.0,2.0476,2.0289,2.0376,2.0968,2.083,2.1118,2.2207,2.2571,2.273,2.2701,0.0,0.0,0.0,0.0,0.0,0.0,0.0,0.0,0.0,0.0,0.0,0.0,0.0,0.0,0.0,0.0,0.0,0.0,0.0,0.0,0.0,0.0,0.0,0.0,0.0,0.0,0.0,0.0,0.0,0.0,0.0,0.0,0.0,0.0,0.0,0.0,0.0,0.0,0.0,0.0,0.0,0.0,0.0,0.0,0.0,0.0,0.0,0.0,0.0,0.0,0.0,0.0,0.0,0.0,0.0,0.0,0.0,0.0,0.0,0.0,0.0,0.0,0.0,0.0,0.0,0.0,0.0,0.0,0.0,0.0,0.0,0.0,0.0,0.0,0.0,0.0,0.0,0.0,0.0,0.0,0.0,0.0,0.0,0.0,0.0,0.0,0.0,0.0,0.0,0.0,0.0,0.0,0.0,0.0,0.0,0.0,0.0,0.0,0.0,0.0,0.0,0.0,2.1507,2.1081,2.0968,2.1457,2.1018,2.1158,2.231,2.2977,2.3357,2.341,0.0,0.0,0.0,0.0,0.0,0.0,0.0,0.0,0.0,0.0,0.0,0.0,0.0,0.0,0.0,0.0,0.0,0.0,0.0,0.0,0.0,0.0,0.0,0.0,0.0,0.0,0.0,0.0,0.0,0.0,0.0,0.0,0.0,0.0,0.0,0.0,0.0,0.0,0.0,0.0,0.0,0.0,0.0,0.0,0.0,0.0,0.0,0.0,0.0,0.0,0.0,0.0,0.0,0.0,0.0,0.0,0.0,0.0,0.0,0.0,3.1423,0.0,0.0,0.0,0.0,0.0,0.0,0.0,0.0,0.0,0.0,0.0,0.0,0.0,0.0,0.0,0.0,0.0,0.0,0.0,0.0,0.0,0.0,0.0,0.0,0.0,0.0,0.0,0.0,0.0,0.0,0.0,0.0,0.0,0.0,0.0,0.0,0.0,0.0,0.0,0.0,0.0,2.1507,2.1407,2.1369,2.1495,2.1018,2.1364,2.3011,2.2918,2.3192,2.4176,2.4327,0.0,0.0,0.0,0.0,0.0,0.0,0.0,0.0,0.0,0.0,0.0,0.0,0.0,0.0,0.0,0.0,0.0,0.0,0.0,0.0,0.0,0.0,0.0,0.0,0.0,0.0,0.0,0.0,0.0,0.0,0.0,0.0,0.0,0.0,0.0,0.0,0.0,0.0,0.0,0.0,0.0,0.0,0.0,0.0,0.0,0.0,0.0,0.0,0.0,0.0,0.0,0.0,0.0,0.0,0.0,0.0,0.0,0.0,0.0,0.0,3.1511,0.0,0.0,0.0,0.0,0.0,0.0,0.0,0.0,0.0,0.0,0.0,0.0,0.0,0.0,0.0,0.0,0.0,0.0,0.0,0.0,0.0,0.0,0.0,0.0,0.0,0.0,0.0,0.0,0.0,0.0,0.0,0.0,0.0,0.0,0.0,0.0,0.0,0.0,0.0,0.0,2.2803,2.2588,2.2546,2.2892,2.2458,2.2764,2.4285,2.4188,2.4449,2.5396,2.5439,0.0,0.0,0.0,0.0,0.0,0.0,0.0,0.0,0.0,0.0,0.0,0.0,0.0,0.0,0.0,0.0,0.0,0.0,0.0,0.0,0.0,0.0,0.0,0.0,0.0,0.0,0.0,0.0,0.0,0.0,0.0,0.0,0.0,0.0,0.0,0.0,0.0,0.0,0.0,0.0,0.0,0.0,0.0,0.0,0.0,0.0,0.0,0.0,0.0,0.0,0.0,0.0,0.0,3.1511,3.1511,3.1511,3.1511,3.1511,3.1511,3.1511,3.1511,3.1511,3.1511,0.0,0.0,0.0,0.0,0.0,0.0,0.0,0.0,0.0,0.0,0.0,0.0,0.0,0.0,0.0,0.0,0.0,0.0,0.0,0.0,0.0,0.0,0.0,0.0,2.9526,2.9377,2.8607,0.0,0.0,0.0,0.0,0.0,0.0,0.0,0.0,0.0,0.0,0.0,2.438,2.4056,2.3985,2.4584,2.4177,2.438,2.5728,2.58,2.6094,2.6825,2.6767,2.6396,0.0,0.0,0.0,0.0,0.0,0.0,0.0,0.0,0.0,0.0,0.0,0.0,0.0,0.0,0.0,0.0,0.0,0.0,0.0,0.0,0.0,0.0,0.0,0.0,0.0,0.0,0.0,0.0,0.0,0.0,0.0,0.0,3.1735,3.1645,0.0,0.0,0.0,0.0,0.0,0.0,0.0,0.0,0.0,0.0,0.0,0.0,0.0,3.1511,3.1511,3.1511,3.1511,3.1511,3.1511,3.1511,3.1511,3.1511,3.1511,3.1511,3.1511,0.0,3.1511,3.1511,0.0,0.0,0.0,0.0,0.0,0.0,0.0,0.0,0.0,0.0,0.0,0.0,0.0,0.0,0.0,0.0,0.0,0.0,0.0,0.0,0.0,0.0,3.1307,3.1205,3.0758,3.0324,0.0,2.8297,2.667,2.6881,2.6152,0.0,0.0,0.0,0.0,0.0,0.0,0.0,2.5161,2.519,2.5163,2.5273,2.4748,2.5168,2.7065,2.6752,2.6996,2.8243,2.7788,2.7133,2.6394,2.5892,0.0,0.0,0.0,0.0,0.0,0.0,0.0,0.0,0.0,0.0,0.0,0.0,0.0,0.0,0.0,0.0,0.0,0.0,0.0,0.0,0.0,0.0,0.0,0.0,0.0,0.0,0.0,0.0,0.0,3.1511,3.1511,3.1511,3.1511,3.1511,0.0,0.0,0.0,0.0,0.0,0.0,0.0,0.0,0.0,3.1511,3.1511,3.1511,3.1511,3.1511,3.1511,3.1511,3.1511,3.1511,3.1511,3.1511,3.1511,3.1511,3.1511,3.1511,3.1511,3.1511,3.1511,3.1511,0.0,0.0,0.0,0.0,3.1511,3.1511,3.1511,3.1511,3.1511,3.1511,0.0,0.0,0.0,0.0,0.0,0.0,0.0,0.0,0.0,0.0,3.1511,3.1511,3.1271,3.1062,3.1062,2.9821,2.8438,0.0,2.723,2.6483,2.4629,0.0,0.0,0.0,0.0,2.5175,2.5933,2.6028,2.6189,2.6587,2.6392,2.6899,2.854,2.8094,2.8286,2.9596,2.9069,2.8414,2.77,2.7406,2.72,0.0,0.0,0.0,0.0,0.0,0.0,0.0,0.0,0.0,0.0,0.0,0.0,0.0,0.0,0.0,0.0,0.0,0.0,0.0,0.0,0.0,0.0,0.0,0.0,0.0,0.0,0.0,0.0,3.1511,3.1511,3.1511,3.1511,3.1511,0.0,0.0,0.0,0.0,0.0,0.0,3.1511,3.1511,3.1511,3.1511,3.1511,3.1511,3.1511,3.1511,3.1511,3.1511,3.1511,3.1511,3.1511,3.1511,3.1511,3.1511,3.1511,3.1511,3.1511,3.1511,3.1511,3.1511,3.1511,3.1511,3.1511,3.1511,3.1511,3.1511,3.1511,3.1511,3.1511,3.1511,3.1391,3.1126,3.0529,0.0,0.0,0.0,0.0,3.1365,3.0762,3.1043,3.1511,3.1511,3.1511,3.1511,3.1511,3.1107,3.0219,0.0,2.8269,2.768,2.5269,0.0,0.0,0.0,0.0,2.596,2.6695,2.6787,2.6995,2.7534,2.775,2.8334,2.9503,2.928,2.949,3.0447,3.0073,2.9533,2.8876,2.8682,2.838,2.7869,0.0,0.0,0.0,0.0,0.0,0.0,0.0,0.0,0.0,0.0,0.0,0.0,0.0,0.0,0.0,0.0,0.0,0.0,0.0,0.0,0.0,0.0,0.0,0.0,0.0,0.0,0.0,0.0,0.0,3.1511,3.1511,0.0,0.0,0.0,0.0,3.1511,3.1511,3.1511,3.1511,3.1511,3.1511,3.1511,3.1511,3.1511,3.1511,3.1511,3.1511,3.1511,3.1511,3.1511,3.1511,3.1511,3.1511,3.1511,3.1511,3.1511,3.1511,3.1511,3.1511,3.1511,3.1511,3.1511,3.1511,3.1511,3.1511,3.1511,3.1511,3.1511,3.1511,3.1511,3.1076,3.0538,3.051,3.0496,0.0,0.0,3.0945,3.1496,3.1452,3.1467,3.1511,3.1511,3.1511,3.1511,3.1511,3.1466,3.1062,0.0,2.8988,2.8123,2.6652,0.0,2.6431,2.6391,2.6431,2.6708,2.7446,2.7534,2.7547,2.76,2.8171,2.8831,2.9533,3.0088,3.0432,3.0507,3.0477,3.0178,2.9563,2.8949,2.8577,2.8547,2.7916,0.0,0.0,0.0,0.0,0.0,0.0,0.0,0.0,0.0,0.0,0.0,0.0,0.0,0.0,0.0,0.0,0.0,0.0,0.0,0.0,0.0,0.0,0.0,0.0,0.0,0.0,0.0,0.0,3.2146,3.1782,0.0,3.1511,3.1511,3.1511,3.1511,3.1899,3.2138,3.2138,3.2542,3.2781,3.2781,3.2781,3.2781,3.2781,3.2781,3.2781,3.2781,3.2781,3.2781,3.2781,3.2781,3.2781,3.2781,3.2781,3.2781,3.2781,3.2781,3.2288,3.1511,3.1511,3.1511,3.1511,3.1511,3.1511,3.1511,3.1511,3.1511,3.1511,3.1511,3.1331,3.1137,3.1137,3.1137,3.1137,3.1137,3.1316,3.1511,3.1511,3.1511,3.1391,3.0957,3.0852,3.0747,3.0357,3.0283,3.0013,2.9131,2.9114,2.8811,2.7393,2.7182,2.7047,2.6576,2.6904,2.7306,2.7575,2.76,2.76,2.76,2.8201,2.8861,2.9533,3.0148,3.0673,3.1121,3.1137,3.0852,3.0208,2.9953,2.9639,2.9249,2.859,2.8246,0.0,0.0,0.0,0.0,0.0,0.0,0.0,0.0,0.0,0.0,0.0,0.0,0.0,0.0,0.0,0.0,0.0,0.0,0.0,0.0,0.0,0.0,0.0,0.0,0.0,0.0,3.2461,3.3211,3.2648,3.2168,3.2168,3.2168,3.2168,3.2168,3.2587,3.2841,3.2841,3.326,3.3499,3.3499,3.3499,3.3499,3.3499,3.3499,3.3499,3.3499,3.3499,3.3499,3.3499,3.3499,3.3499,3.3499,3.3499,3.3499,3.3499,3.3499,3.2976,3.2168,3.2168,3.2168,3.2168,3.2168,3.2168,3.2168,3.2168,3.2168,3.2138,3.1914,3.1839,3.1795,3.157,3.1511,3.1511,3.1511,3.1511,3.1555,3.178,3.1839,3.172,3.1271,3.1166,3.1002,3.0372,3.0238,3.0118,2.9656,2.94,2.8893,2.7731,2.7574,2.7433,2.6943,2.7293,2.7675,2.7914,2.7944,2.8019,2.8244,2.8859,2.9415,2.9877,3.0477,3.1031,3.1466,3.1511,3.1301,3.0852,3.0613,3.0313,2.9922,2.9279,2.8831,2.8607,0.0,0.0,0.0,0.0,0.0,0.0,0.0,0.0,0.0,0.0,0.0,0.0,0.0,0.0,0.0,0.0,0.0,0.0,0.0,0.0,0.0,0.0,0.0,3.4875,3.4077,3.3856,3.4641,3.4029,3.353,3.3499,3.3499,3.3499,3.3499,3.3514,3.3529,3.3529,3.3544,3.3559,3.3589,3.3589,3.3604,3.3619,3.3619,3.3619,3.3619,3.3619,3.3619,3.3619,3.3619,3.3619,3.3619,3.3619,3.3619,3.3619,3.3619,3.3619,3.3604,3.3529,3.3499,3.3499,3.3499,3.3499,3.3499,3.3499,3.3499,3.338,3.2736,3.2527,3.2407,3.1765,3.157,3.157,3.157,3.157,3.1705,3.2362,3.2527,3.2527,3.2482,3.2467,3.2288,3.1585,3.1451,3.1451,3.1451,2.9925,2.8412,2.7764,2.7645,2.7615,2.76,2.7615,0.0,2.8517,2.8622,2.8876,2.9518,3.0133,3.0507,3.0507,3.1107,3.1511,3.1511,3.1511,3.1511,3.1511,3.0882,3.0522,3.0535,2.995,2.9334,2.8687,0.0,0.0,0.0,0.0,0.0,0.0,0.0,0.0,0.0,0.0,0.0,0.0,0.0,0.0,0.0,0.0,0.0,0.0,0.0,0.0,0.0,3.6042,3.6446,3.6253,3.5615,3.5238,3.5389,3.4804,3.4149,3.3561,3.3499,3.3499,3.3499,3.3949,3.4218,3.4218,3.4697,3.5175,3.567,3.5685,3.5878,3.6327,3.6327,3.6327,3.6327,3.6327,3.6327,3.6327,3.6327,3.6327,3.6327,3.6327,3.6327,3.6327,3.6327,3.6327,3.6148,3.4233,3.3499,3.3499,3.3499,3.3499,3.3499,3.3499,3.3499,3.3469,3.3275,3.323,3.3185,3.3006,3.2961,3.2961,3.2961,3.2961,3.2991,3.3185,3.323,3.2976,3.2018,3.1765,3.148,3.0357,3.0118,3.0118,3.0118,2.9684,2.9264,2.9082,2.865,2.8156,2.7675,2.8006,0.0,2.8577,2.9011,2.9398,2.9578,3.0133,3.0507,3.0507,3.1107,3.1511,3.1511,3.1511,3.1511,3.1511,3.1316,3.1256,3.1301,3.1129,3.0972,0.0,0.0,0.0,0.0,0.0,0.0,0.0,0.0,0.0,0.0,0.0,0.0,0.0,0.0,0.0,0.0,0.0,0.0,0.0,0.0,0.0,0.0,3.8157,3.8646,3.8646,3.7217,3.6279,3.6558,3.5936,3.52,3.4401,3.462,3.4666,3.4369,3.4967,3.5341,3.5341,3.5953,3.6477,3.6866,3.6881,3.7045,3.7387,3.7387,3.7387,3.7387,3.7387,3.7387,3.7387,3.7387,3.7387,3.7387,3.7387,3.7387,3.7387,3.7387,3.7387,0.0,0.0,0.0,0.0,0.0,3.4577,3.4337,3.4337,3.4337,3.4292,3.4024,3.3919,3.3874,3.3589,3.3499,3.3499,3.3499,3.3499,3.3559,3.3859,3.3724,3.3305,3.2527,3.2108,3.1645,3.0627,3.0402,3.0477,3.0761,3.0806,0.0,3.0806,2.9819,2.8979,2.8845,2.9146,2.9594,3.0163,3.0328,3.0507,3.0776,3.0882,3.0927,3.0927,3.1271,0.0,0.0,0.0,3.1511,3.1511,3.1511,0.0,0.0,0.0,3.2021,3.2019,3.2272,0.0,0.0,2.9971,2.9825,0.0,0.0,0.0,0.0,0.0,0.0,0.0,0.0,0.0,0.0,0.0,0.0,0.0,0.0,0.0,0.0,4.0602,4.1085,4.1085,3.8698,3.7201,3.7857,3.7218,3.6508,3.5936,3.6303,3.6381,3.5894,3.6319,3.6632,3.6733,0.0,0.0,0.0,0.0,3.7554,3.7612,3.7644,3.7644,3.7644,3.7644,3.7644,3.7644,3.7644,3.7644,3.7644,3.7644,3.7644,3.7612,3.7537,3.7524,3.7509,3.7434,3.7387,3.7345,3.6791,3.6222,3.5714,3.5714,0.0,0.0,3.5027,3.4817,3.4712,3.4113,3.3933,3.3933,3.3933,3.3933,3.4053,3.4578,3.4233,3.3679,3.3529,3.2991,3.2318,3.1645,3.1511,3.1675,3.2273,3.2452,3.2497,3.2497,3.1076,3.0087,3.0552,3.0687,3.1165,3.2347,3.2049,3.1944,3.2542,3.2078,0.0,3.163,3.1615,3.1585,3.1511,3.1511,3.1554,3.1625,3.1625,3.2007,3.2815,3.2828,3.2872,3.2938,3.3472,3.3395,3.2685,3.1411,3.0755,0.0,0.0,0.0,0.0,0.0,0.0,0.0,0.0,0.0,0.0,0.0,0.0,0.0,0.0,0.0,3.9119,3.9802,4.0303,4.0303,3.9242,3.8526,3.8674,3.8019,3.7752,3.8203,3.7199,3.6942,3.8001,3.7541,3.7516,3.8247,3.7721,3.7971,3.9217,3.8566,3.8467,3.9017,3.9017,3.9017,3.9017,0.0,0.0,3.9017,3.9017,3.9017,3.9017,3.9017,3.9017,3.8973,3.8437,3.8197,3.8138,3.7614,3.7387,3.7404,3.727,3.715,3.7028,3.7028,3.7028,3.7015,3.6881,3.6851,3.6821,3.6686,3.6656,0.0,3.6656,3.6656,3.6567,3.6209,3.5625,3.4846,3.3754,3.2991,3.2318,3.1645,3.1511,3.154,3.1675,3.2138,3.2497,3.2497,3.2183,3.1794,3.1376,3.1764,3.2213,3.2467,3.2856,3.3155,3.329,3.3185,3.2886,3.2347,3.2318,3.2078,3.154,3.1511,3.1768,3.2368,3.2396,3.296,3.4186,3.4211,3.4478,3.5018,3.5149,3.4818,3.4083,3.3235,3.2832,0.0,0.0,0.0,0.0,0.0,0.0,0.0,0.0,0.0,0.0,0.0,3.9062,3.9437,0.0,3.9606,3.999,4.0393,4.0777,4.1149,4.0848,4.0334,3.9586,3.9177,3.9086,3.9412,3.8685,3.8512,3.9298,3.8856,3.874,3.9173,3.9112,3.9209,3.9542,3.9134,3.9047,3.9406,3.9735,3.9885,3.9885,4.0247,4.0397,4.0397,4.0397,4.0217,3.987,3.9556,3.9212,3.8856,3.8182,3.7898,3.7868,3.7539,3.7614,3.7898,3.7898,3.7689,3.7387,3.7387,3.7387,3.7387,3.7387,3.7387,3.7387,3.7387,3.7387,3.7387,3.7387,3.718,3.6881,3.6583,3.576,3.4816,3.4158,3.3739,3.332,3.2647,3.3035,3.3499,3.3499,3.3768,3.4097,3.4442,3.4217,3.3768,3.3095,3.329,3.3619,3.3963,3.3993,3.3994,3.3994,3.3709,3.3365,3.3036,3.2691,3.2213,3.154,3.1853,3.2216,3.2573,3.2922,3.3569,3.4576,3.46,3.493,3.56,3.56,3.5408,3.5036,3.4664,3.4106,0.0,0.0,0.0,0.0,0.0,0.0,0.0,3.9643,3.9389,3.9977,4.0096,4.0096,4.0096,4.0096,4.0337,4.1085,4.1204,4.1457,4.2198,4.23,4.1913,4.087,4.0494,4.0407,4.0645,4.0336,4.0187,4.0361,4.0084,3.9969,4.0135,4.0623,4.0666,4.0114,4.0072,3.9983,3.978,4.0509,4.0765,4.0591,4.134,4.1577,4.1403,4.1403,4.1025,4.0367,3.969,3.9077,3.8542,3.7868,3.7582,3.7584,3.7464,3.7808,3.8409,3.8409,3.8138,3.7776,3.7776,3.7776,3.7776,3.7776,3.7704,3.7629,3.7764,3.7704,3.7629,3.7746,3.7449,3.703,3.6913,3.588,3.4863,3.4727,3.4503,3.4188,3.3769,3.4532,3.534,3.5458,3.5609,3.5863,3.6419,3.6043,3.5474,3.4802,3.4682,3.4892,3.5429,3.5026,3.4682,3.4682,3.4203,3.3829,3.3724,3.3081,3.2463,3.1922,3.2458,3.2855,3.2973,3.3521,3.4112,3.4771,3.4783,3.5063,3.56,3.56,3.56,3.56,3.56,3.4968,4.0303,4.0096,4.0096,4.0096,4.0045,3.9994,0.0,4.0045,4.0011,4.0079,4.0096,4.0096,4.0096,4.0096,4.0337,4.1085,4.1204,4.1457,4.2198,4.23,4.2479,4.2959,4.1866,4.1581,4.2894,4.1713,4.1133,4.1725,4.104,4.0937,4.1693,4.1695,4.1969,4.2578,4.2476,4.2028,4.1179,4.2086,4.2117,4.1298,4.2212,4.2221,4.1403,4.1403,4.1025,4.0367,3.969,3.9361,3.9227,3.8556,3.8305,3.8245,3.7644,3.7808,3.8409,3.8409,3.8736,3.9182,3.9182,3.9182,3.9182,3.9182,3.8763,3.8392,3.8987,3.8766,3.8407,3.9002,3.9137,3.8928,3.8332,3.7242,3.6134,3.5534,3.4472,3.3754,3.4278,3.4503,3.4787,3.5385,3.5968,3.6419,3.6493,3.6449,3.6148,3.5489,3.5385,3.5415,3.5489,3.5429,3.5385,3.5385,3.5325,3.504,3.4443,3.3769,3.3362,3.3285,3.3408,3.3761,3.4358,3.4443,3.4795,3.5481,3.5492,3.5526,3.56,3.56,3.56,3.56,3.56,3.5515,4.0303,3.9779,3.9559,3.9994,4.0096,4.0096,4.0096,4.0096,4.0096,4.0096,4.0096,4.0096,4.0096,4.0455,4.0832,4.1153,4.1559,4.21,4.2831,4.2932,4.3234,4.4012,4.3555,4.3418,4.4035,4.3023,4.2838,4.4065,4.3357,4.3202,4.399,4.3978,4.3861,4.3695,4.3646,4.3147,4.2224,4.2994,4.2916,4.1991,4.2739,4.2882,4.2487,4.2152,4.1194,3.9765,3.911,3.8601,3.821,3.7943,3.7823,3.7793,3.7524,3.7808,3.8365,3.7958,3.8003,3.824,3.824,3.824,3.824,3.824,3.8063,3.7943,3.8616,3.8616,3.8542,3.9212,3.9107,3.8751,3.8467,3.7719,3.6956,3.6671,3.6477,3.6312,3.6207,3.6806,3.733,3.721,3.7404,3.7616,3.7616,3.727,3.6926,3.6656,3.5967,3.5504,3.5504,3.5504,3.5504,3.5504,3.5879,3.5874,3.5202,3.5312,3.5248,3.4867,3.522,3.5589,3.5865,3.5883,3.6006,3.6299,3.5847,3.56,3.56,3.56,3.56,3.56,3.56,3.56,3.9999,3.9559,3.9423,3.9977,4.0096,4.0096,4.0096,4.0096,4.0096,4.0096,4.0265,4.0405,4.0405,4.1014,4.1576,4.1766,4.2252,4.2861,4.3609,4.3727,4.3944,4.4533,4.4615,4.4615,4.4615,4.4204,4.4445,4.5553,4.5059,4.4933,4.546,4.5691,4.5519,4.4851,4.4777,4.4308,4.3363,4.3826,4.3603,4.2646,4.3188,4.3305,4.301,4.2226,4.1149,3.9885,3.905,3.8512,3.8195,3.8015,3.7941,3.7926,3.7764,3.7973,3.8317,3.7659,3.7627,3.7926,3.7749,3.7689,3.7659,3.7464,3.73,3.727,3.7928,3.8123,3.8257,3.8945,3.8916,3.8676,3.8676,3.8182,3.7689,3.7689,3.7898,3.8033,3.7749,3.8452,3.905,3.8736,3.8676,3.8676,3.8676,3.8123,3.7689,3.7689,3.6731,3.5968,3.5804,3.5609,3.557,3.5782,3.6275,3.6489,3.6231,3.6731,3.6869,3.6379,3.6827,3.7112,3.7112,3.7105,3.7105,3.7105,3.6524,3.6225,3.6225,3.6033,3.5932,3.5932,3.5712,3.56,3.9237,3.9542,4.0079,4.0096,4.0096,4.0096,4.0096,4.0096,4.0096,4.0096,4.0675,4.117,4.117,4.1762,4.2489,4.322,4.3355,4.3643,4.4448,4.455,4.4567,4.4615,4.4615,4.4615,4.4615,4.5232,4.5601,4.5505,4.5476,4.5477,4.5493,4.617,4.6518,4.6437,4.624,4.5696,4.475,4.4765,4.4266,4.328,4.363,4.332,4.2381,4.1074,4.0771,4.1268,3.9948,3.972,4.0262,3.9601,3.9346,3.9272,3.8616,3.8377,3.8317,3.7659,3.821,3.9242,3.8601,3.8362,3.8257,3.7614,3.7,3.6643,3.7255,3.7434,3.7584,3.8242,3.8886,3.9376,3.9376,3.8871,3.8362,3.8362,3.7883,3.7599,3.8227,3.8409,3.8616,3.9242,3.9376,3.9376,3.9376,3.8811,3.8362,3.8362,3.7778,3.7135,3.6553,3.5893,3.5766,3.6477,3.66,3.6919,3.7658,3.7763,3.7758,3.7742,3.7828,3.787,3.787,3.7877,3.786,3.786,3.7843,3.7826,3.7826,3.7105,3.6761,3.6745,3.5949,3.56,3.9525,3.9542,3.9491,3.9977,4.0096,4.0096,4.0096,4.0096,4.0235,4.0743,4.0641,4.0625,4.1119,4.1796,4.2384,4.2625,4.3521,4.4296,4.455,4.5024,4.5331,4.5331,4.5331,4.5517,4.6022,4.5396,4.5363,4.6292,4.6363,4.6782,4.7755,4.8057,4.789,4.7259,4.8232,4.7798,4.576,4.6831,4.6653,4.5235,4.5345,4.4982,4.4219,4.3151,4.2548,4.2266,4.1192,4.0591,4.0382,4.0172,3.9795,3.9376,3.9152,3.9047,3.9032,3.8808,3.9017,3.9242,3.8123,3.7749,3.7704,3.7462,3.6985,3.6703,3.7749,3.7749,3.7627,3.8751,3.9227,3.9406,3.9406,3.9227,3.9047,3.9047,3.8883,3.8793,3.9002,3.9047,3.9304,4.0104,4.0257,4.0447,4.1028,4.0942,4.0645,4.019,3.8658,3.7468,3.7254,3.7111,3.7115,3.7368,3.7831,3.8244,3.8511,3.902,3.9336,3.9336,3.9349,3.9356,3.9356,3.8886,3.8633,3.8633,3.8147,3.7893,3.7893,3.7652,3.7533,3.7516,3.7251,3.7133,3.9525,3.9542,3.9508,3.9982,4.0096,4.018,4.0422,4.0489,4.0641,4.1102,4.1031,4.0946,4.117,4.1796,4.23,4.23,4.3586,4.4615,4.4615,4.5449,4.6007,4.5722,4.594,4.6177,4.638,4.5548,4.5497,4.6716,4.7276,4.8003,4.8951,4.9255,4.9122,4.8511,4.9206,4.868,4.6712,4.7441,4.7156,4.584,4.584,4.5489,4.4818,4.4211,4.3712,4.3235,4.2315,4.1849,4.1728,4.1398,4.0991,4.0582,4.0355,4.0046,3.972,3.9496,3.9406,3.9242,3.8138,3.7764,3.7719,3.7479,3.73,3.7332,3.8155,3.8272,3.8285,3.9152,3.9406,3.9463,3.9776,3.9628,3.9481,3.9776,3.9628,3.9481,3.9793,3.9864,4.0115,4.1012,4.1163,4.1346,4.1901,4.1997,4.1853,4.1421,4.0163,3.9059,3.8528,3.8293,3.829,3.8594,3.8799,3.9019,3.9302,3.9795,4.0096,4.0096,4.0096,4.0096,4.0096,3.9643,3.9389,3.9389,3.8933,3.8684,3.8684,3.8413,3.8294,3.8294,3.8012,3.7893,3.9237,3.9592,4.0163,4.0163,4.018,4.04,4.1102,4.1238,4.1208,4.1255,4.1711,4.1927,4.1271,4.1711,4.2198,4.2249,4.3535,4.455,4.4584,4.5836,4.6481,4.5773,4.6312,4.6464,4.5771,0.0,4.6024,4.6684,4.8071,4.8917,4.9001,4.9661,5.0017,4.9969,4.9194,4.838,4.7605,4.6748,4.6012,4.5387,4.5387,4.5051,4.4441,4.4391,4.4374,4.4324,4.338,4.3453,4.4192,4.3298,4.2894,4.2801,4.2181,4.1352,4.0454,3.9824,3.9565,3.943,3.8802,3.856,3.842,3.7773,3.8032,3.858,3.858,3.9058,3.9598,3.9598,3.9598,3.9783,4.0615,4.0181,3.9737,4.0569,4.0133,3.9755,4.0603,4.0775,4.103,4.1901,4.2093,4.2125,4.2125,4.2125,4.2125,4.2125,4.2245,4.1781,4.0302,3.9504,3.9347,4.0086,3.947,3.9309,4.0033,4.0096,4.0096,4.0096,4.0096,4.0096,4.0096,4.0096,4.0096,4.0096,4.0096,4.0096,4.0096,3.9406,3.9068,3.9051,3.8345,3.8012,3.9711,4.0371,4.0916,4.0916,4.1322,4.1792,4.1978,4.1593,4.1373,4.1914,4.0861,3.9952,4.0312,4.0527,4.0844,4.139,4.2726,4.3927,4.4516,4.5413,4.5906,4.572,4.5872,4.5906,4.572,4.6194,4.6363,4.6007,4.6836,4.7834,4.8951,4.9187,4.8957,4.8264,4.9221,4.904,4.7605,4.8047,4.8206,4.8038,4.8038,4.7938,4.7754,4.7062,4.6733,4.6666,4.575,4.5185,4.493,4.4689,4.4301,4.384,4.3649,4.3116,4.2389,4.2216,4.182,4.1314,4.1141,4.0663,4.0088,3.9919,4.0457,4.1161,4.1111,4.1616,4.2219,4.2169,4.2152,4.222,4.242,4.1923,4.1395,4.1625,4.1494,4.1395,4.1625,4.1674,4.1933,4.2801,4.3501,4.3946,4.3946,4.3946,4.3946,4.3946,4.397,4.3409,4.1843,4.1522,4.1305,4.0962,4.074,4.0469,4.0134,4.0096,4.0096,4.0096,4.0096,4.0096,4.0096,4.0096,4.0096,4.0096,4.0096,4.0096,4.0096,3.9897,3.9812,3.9825,3.9626,3.9542,4.0388,4.0882,4.1288,4.1593,4.1982,4.23,4.23,4.1982,4.161,4.1386,4.0354,3.9411,3.9179,3.9394,3.9745,4.0172,4.2019,4.3558,4.4012,4.528,4.6058,4.5737,4.5991,4.6177,4.6177,4.6549,4.6904,4.7141,4.753,4.8122,4.8968,4.961,4.9575,4.8725,4.9913,4.9828,4.8242,4.8735,4.9001,4.9001,4.9001,4.9001,4.8986,4.8449,4.8209,4.8161,4.7222,4.6826,4.6848,4.6417,4.6039,4.565,4.5357,4.4753,4.3985,4.3697,4.3119,4.2478,4.2478,4.2189,4.1788,4.1395,4.1832,4.2494,4.2445,4.275,4.3167,4.3455,4.3103,4.2719,4.3103,4.259,4.2013,4.2069,4.2043,4.2109,4.2489,4.2567,4.2832,4.3695,4.4284,4.4615,4.4615,4.4615,4.4615,4.4615,4.4615,4.4274,4.3363,4.2973,4.2625,4.2205,4.188,4.1373,4.0658,4.0591,4.0438,4.013,4.0096,4.0096,4.0096,4.0096,4.0096,4.0096,4.0096,4.0096,4.0096,4.0096,4.0096,4.0096,4.0096,4.0229,4.1035,4.1339,4.166,4.2286,4.2452,4.2452,4.2452,4.2232,4.1657,4.0354,3.9876,3.9271,3.799,3.8362,3.8886,3.8983,4.139,4.3288,4.3389,4.5196,4.6261,4.5635,4.621,4.665,4.665,4.6819,4.7479,4.8765,4.8951,4.9035,4.9137,5.0271,5.0609,4.9981,5.0558,5.0288,4.9018,4.9001,4.9001,4.9001,4.9001,4.9001,4.9001,4.9001,4.9001,4.8938,4.8145,4.8241,4.894,4.8112,4.7786,4.772,4.714,4.6356,4.5495,4.4915,4.4171,4.346,4.346,4.3465,4.3336,4.2458,4.2719,4.3331,4.3251,4.3347,4.3621,4.4153,4.3428,4.2682,4.3423,4.2974,4.2374,4.2484,4.2436,4.2552,4.3321,4.3472,4.3711,4.444,4.4615,4.4615,4.4615,4.4615,4.4615,4.4615,4.4615,4.4615,4.4615,4.3995,4.3524,4.3423,4.2828,4.2151,4.1407,4.1356,4.1018,4.0286,4.0248,4.0197,4.0096,4.0096,4.0096,4.0096,4.0096,4.0133,4.0204,4.0204,4.0254,4.0341,4.0341,4.0565,4.117,4.2087,4.3051,4.3186,4.3203,4.3203,4.3203,4.1783,4.0413,4.0151,3.8657,3.7291,3.7038,3.7584,3.8294,3.8903,4.095,4.2709,4.3321,4.4316,4.4922,4.4804,4.5432,4.5889,4.5889,4.6991,4.7819,4.8073,4.8663,4.9272,4.988,4.9576,4.9323,4.9187,4.9323,4.9272,4.9001,4.9001,4.9001,4.9001,4.9001,4.9001,4.9001,4.9001,4.9001,4.8986,4.8829,0.0,4.8986,4.8829,4.8767,4.875,4.8631,4.8117,4.7424,4.7305,4.6416,4.5242,4.5242,4.486,4.4224,4.3366,4.4059,4.5127,4.4507,4.5175,4.6047,4.5563,4.5244,4.5087,4.5252,4.4723,4.4145,4.4173,4.4183,4.4179,4.4341,4.4369,4.4412,4.457,4.4615,4.4615,4.4615,4.4615,4.4615,4.4615,4.4615,4.4615,4.4615,4.4482,4.413,4.3474,4.3288,4.2899,4.2181,4.21,4.1779,4.1052,4.1018,4.0743,4.013,4.0096,4.0096,4.0096,4.0096,4.0323,4.0756,4.0756,4.1024,4.1508,4.1508,4.1545,4.2138,4.2865,4.3507,4.3927,4.3724,4.3203,4.2425,4.1136,3.9766,3.8623,3.754,3.6665,3.6248,3.6806,3.7567,3.8311,4.0273,4.1982,4.2726,4.3856,4.4615,4.4615,4.5246,4.5855,4.6244,4.7261,4.8056,4.8445,4.8798,4.9154,4.9509,4.9187,4.9187,4.956,4.9204,4.9001,4.9001,4.9001,4.9001,4.9001,4.9001,4.9001,4.9001,4.9001,4.9001,4.9001,4.9001,4.9001,4.9001,4.9001,4.9001,4.9001,4.9001,4.8781,4.8462,4.8462,4.7785,4.6788,4.6413,4.5788,4.5037,4.4241,4.4505,4.5058,4.4702,4.5091,4.5667,4.5703,4.5415,4.5128,4.5128,4.5159,4.4959,4.4164,4.4296,4.4615,4.4615,4.4615,4.4615,4.4615,4.4615,4.4615,4.4615,4.4615,4.4615,4.4615,4.4615,4.4615,4.4615,4.4615,4.4448,4.4062,4.4012,4.3707,4.2946,4.2878,4.2557,4.1813,4.1762,4.1441,4.0709,4.0675,4.0489,4.0113,4.0368,4.0631,4.0903,4.1223,4.1512,4.181,4.181,4.1969,4.2814,4.3152,4.3321,4.3941,4.3504,4.2577,4.1258,4.0273,3.9085,3.7202,3.6648,3.6361,3.5729,3.6265,3.6987,3.7567,3.9648,4.1407,4.1982,4.3535,4.4615,4.4615,4.5382,4.616,4.6735,4.7614,4.8377,4.8968,4.9001,4.9001,4.9001,4.9154,4.9424,4.9863,4.9306,4.9001,4.9001,4.9001,4.9001,4.9001,4.9001,4.9001,4.9001,4.9001,4.9001,4.9001,4.9001,4.9001,4.9001,4.9001,4.9001,4.9001,4.9001,4.9001,4.9001,4.9001,4.8529,4.7785,4.7056,4.6312,4.5585,4.4838,4.4615,4.4615,4.4615,4.4615,4.4719,4.5297,4.5058,4.4615,4.4615,4.5159,4.5384,4.4184,4.413,4.4398,4.455,4.4615,4.4615,4.4615,4.4615,4.4615,4.4615,4.4615,4.4615,4.4615,4.4615,4.4615,4.4615,4.4615,4.4615,4.4615,4.4615,4.4347,4.371,4.366,4.3335,4.2574,4.254,4.2202,4.1474,4.1441,4.1231,4.0797,4.1035,4.1273,4.1541,4.1849,4.2052,4.2165,4.2165,4.2414,4.2168,4.2401,4.2418,4.2486,4.1948,4.1191,4.0366,3.9111,3.7855,3.6981,3.6214,3.5695,3.5616,3.6265,3.6829,3.6885,3.9309,4.1221,4.1288,4.3213,4.4615,4.4615,4.5836,4.6733,4.6786,4.8071,4.8934,4.9001,4.9001,4.9001,4.9001,4.9644,4.9712,4.912,4.9035,4.9001,4.9001,4.9001,4.9001,4.9001,4.9001,4.9001,4.9001,4.9001,4.9001,4.9001,4.9001,4.9001,0.0,4.9001,4.9001,4.9001,4.9001,4.9001,4.9001,4.9001,4.8529,4.7785,4.7056,4.6312,4.5585,4.4838,4.4615,4.4615,4.4615,4.4615,4.4601,4.4668,4.4649,4.4615,4.4615,4.5159,4.5655,4.552,4.4471,4.371,4.4432,4.4615,4.4615,4.4615,4.4615,4.4615,4.4615,4.4615,4.4615,4.4615,4.4615,4.4615,4.4615,4.4615,4.4615,4.4615,4.4615,4.4567,4.4499,4.4482,4.4161,4.3355,4.3304,4.2966,4.2232,4.2198,4.2445,4.3002,4.2339,4.2523,4.362,4.2948,4.2865,4.3339,4.3339,4.3365,4.2113,4.23,4.23,4.23,4.1745,4.0899,3.9715,3.865,3.7555,3.6321,3.5814,3.56,3.56,3.5864,3.6231,3.6728,3.8526,4.0037,4.0481,4.2459,4.3876,4.3876,4.5602,4.68,4.68,4.8139,4.9001,4.9001,4.9001,4.9001,4.9001,4.9272,4.9306,4.9018,4.9001,4.9001,4.9001,4.9001,4.9001,4.9001,4.9001,4.9001,4.9001,4.9001,4.9001,4.9001,4.9001,4.9001,0.0,4.9001,4.9001,4.9001,4.9001,4.9001,4.9001,4.9001,4.88,4.8377,4.7208,4.6599,4.616,4.4973,4.4615,4.4615,4.4615,4.4615,4.4615,4.4615,4.4615,4.4615,4.4615,4.5159,4.5703,4.5703,4.5229,4.4756,4.4635,4.4615,4.4615,4.4615,4.4615,4.4615,4.4615,4.4615,4.4615,4.4615,4.4615,4.4615,4.4615,4.4615,4.4748,4.5102,4.4814,4.4615,4.4615,4.4615,4.4626,4.4669,4.4662,4.4497,4.4122,4.4112,4.4018,4.3851,4.3873,4.4131,4.462,4.4623,4.4492,4.4213,4.4213,4.3956,4.1762,4.1826,4.1657,4.1657,4.1085,4.0223,3.8954,3.8108,3.7212,3.587,3.56,3.56,3.56,3.56,3.5797,3.6349,3.7884,3.9174,3.9703,4.1681,4.3152,4.3372,4.5229,4.6549,4.6783,4.8139,4.9001,4.9001,4.9001,4.9001,4.9001,4.9001,4.9001,4.9001,4.9001,4.9001,4.9001,4.9001,4.9001,4.9001,4.9001,4.9001,4.9001,4.9001,4.9001,4.9001,4.9001,4.9001,0.0,4.9001,4.9001,4.9001,4.9001,4.9001,4.9001,4.9001,4.9001,4.8798,4.731,4.68,4.6563,4.5074,4.4615,4.4615,4.4615,4.4615,4.4615,4.4615,4.4615,4.4649,4.4871,4.4976,4.508,4.5314,4.5026,4.4604,4.4313,4.4245,4.433,4.455,4.4615,4.4615,4.4615,4.4615,4.4615,4.4615,4.4762,4.4882,4.4882,4.5025,4.5311,4.5719,4.5399,4.5129,4.5129,4.5129,4.5307,4.5732,4.577,4.5719,4.5628,4.5622,4.5477,4.5145,4.5334,4.5504,4.5682,4.5836,4.5608,4.5048,4.481,4.4268,4.1018,4.0692,4.013,4.013,3.9559,3.8819,3.8079,3.7342,3.6581,3.5763,3.56,3.56,3.56,3.56,3.56,3.5616,3.7516,3.9,3.9005,4.0929,4.2574,4.3304,4.4759,4.6007,4.6733,4.8139,4.9001,4.9001,4.9001,4.9001,4.9001,4.9001,4.9001,4.9001,4.9001,4.9001,4.9001,4.9001,4.9001,4.9001,4.9001,4.9001,4.9001,4.9001,4.9001,4.9001,4.9001,4.9001,0.0,4.9001,4.9001,4.9001,4.9001,4.9001,4.9001,4.9001,4.9001,4.8798,4.731,4.68,4.6563,4.5074,4.4615,4.4615,4.4615,4.4615,4.4615,4.4615,4.4615,4.477,4.55,4.4556,4.3626,4.4415,4.345,4.2523,4.3254,4.3423,4.3643,4.4448,4.4615,4.4615,4.4615,4.4615,4.4615,4.4615,4.5115,4.5498,4.5498,4.6014,4.6383,4.6395,4.6395,4.6383,4.6383,4.6383,4.6383,4.6395,4.6395,4.6377,4.6389,4.6389,4.671,4.7356,4.6598,4.6477,4.7067,4.6296,4.5902,4.5865,4.5067,4.4268,3.9022,3.914,3.9237,3.8717,3.8413,3.8058,3.7325,3.697,3.6564,3.5763,3.56,3.56,3.56,3.56,3.56,3.56,3.7082,3.8261,3.8261,4.0578,4.2388,4.2625,4.4891,4.6938,4.8189,4.8731,4.9001,4.9001,4.9001,4.9001,4.9001,4.9001,4.9001,4.9001,4.9001,4.9001,4.9001,4.9001,4.9001,4.9001,4.9001,4.9001,4.9001,4.9001,4.9001,4.9001,4.9001,4.9001,4.9001,4.9001,4.9001,4.9001,4.9001,4.9001,4.9001,4.9001,4.8682,4.8107,4.7141,4.6464,4.5889,4.4922,4.4615,4.4615,4.4615,4.4615,4.4615,4.4615,4.4615,4.4649,4.4888,4.4959,4.4759,4.3978,4.3826,4.3653,4.2828,4.2642,4.2861,4.3639,4.3792,4.4078,4.5053,4.5218,4.5359,4.577,4.6002,4.6124,4.6124,4.6288,4.6583,4.7033,4.7077,4.691,4.6442,4.6407,4.6594,4.7044,4.7077,4.727,4.7687,4.7697,4.7808,4.8015,4.776,4.7729,4.7911,4.7654,4.725,4.67,4.5324,4.4553,3.786,3.8244,3.8464,3.8012,3.7702,3.7347,3.6902,3.6564,3.6214,3.5712,3.56,3.56,3.56,3.56,3.56,3.56,3.6896,3.8007,3.8278,4.0375,4.2303,4.3453,4.5483,4.7378,4.8866,4.9001,4.9001,4.9001,4.9001,4.9001,4.9001,4.9001,4.9001,4.9001,4.9001,4.9001,4.9001,4.9001,4.9001,4.9001,4.9001,4.9001,4.9001,4.9001,4.9001,4.9001,4.9001,4.9001,0.0,4.9001,4.9001,4.9001,4.9001,4.9001,4.9001,4.9001,4.8529,4.7785,4.7056,4.6312,4.5585,4.4838,4.4615,4.464,4.4865,4.4772,4.4615,4.4615,4.4615,4.4615,4.4615,4.4939,4.4976,4.371,4.3746,4.3761,4.2556,4.226,4.2385,4.2885,4.3399,4.4068,4.4927,4.5503,4.5965,4.6347,4.6618,4.6785,4.6785,4.6988,4.7281,4.7687,4.7746,4.7565,4.7154,4.7121,4.7302,4.7697,4.7746,4.7907,4.8287,4.8296,4.8296,4.8296,4.8296,4.8296,4.8296,4.8296,4.7893,4.7076,4.6076,4.5287,0.0,3.7775,3.7821,3.7741,3.7212,3.6699,3.6699,3.6146,0.0,3.56,3.56,3.56,3.56,3.56,3.56,3.56,3.6896,3.8159,3.8899,4.0358,4.2459,4.5432,4.638,4.7378,4.8866,4.9001,4.9001,4.9001,4.9001,4.9001,4.9001,4.9001,4.9001,4.9001,4.9001,4.9001,4.9001,4.9001,4.9001,4.9001,4.9001,4.9001,4.9001,4.9001,4.9001,0.0,4.9001,4.9001,4.9001,4.9001,4.9001,4.9001,4.9001,4.9001,4.9001,4.8951,4.8475,4.7776,4.7043,4.6326,4.564,4.4941,4.472,4.4841,4.5381,4.5138,4.4668,4.4668,4.4692,4.472,4.472,4.472,4.4517,4.3739,4.3396,4.3106,4.2474,4.2202,4.2144,4.2376,4.3486,4.4424,4.4578,4.5662,4.6489,4.6536,4.7073,4.7459,4.7459,4.7947,4.8296,4.8296,4.8296,4.8296,4.8296,4.8296,4.8296,4.8296,4.8296,4.8296,4.8296,4.8296,4.8296,4.8296,4.8296,4.8296,4.8296,4.8296,4.7911,4.7186,4.7131,4.6269,3.5898,0.0,3.6919,3.6287,3.6017,3.5881,0.0,3.5746,3.56,3.56,3.56,3.56,3.56,3.56,3.56,3.56,3.6896,3.8159,3.8899,4.1238,4.3795,4.6244,4.6684,4.7378,4.8866,4.9001,4.9001,4.9001,4.9001,4.9001,4.9001,4.9001,4.9001,4.9001,4.9001,4.9001,4.9001,4.9001,4.9001,4.9001,4.9001,4.9001,4.9001,4.9001,4.9001,4.9001,4.9001,4.9001,4.9001,4.9001,4.9001,4.9001,4.9001,4.9001,4.8934,4.836,4.7973,4.7637,4.6907,4.6474,4.621,4.603,4.5977,4.6002,4.6161,4.577,4.528,4.528,4.5622,4.5977,4.5977,4.5977,4.5797,4.5032,4.4355,4.3692,4.2991,4.2327,4.2238,4.3436,4.3933,4.4709,4.6405,4.6958,4.7313,4.7769,4.7987,4.8085,4.8085,4.821,4.8296,4.8296,4.8296,4.8296,4.8296,4.8296,4.8296,4.8296,4.8296,4.8296,4.8296,4.8296,4.8296,4.8296,4.8296,4.8296,4.8296,4.8296,4.8205,4.8003,4.7388,4.6571,3.5306,3.5915,3.6146,3.5712,3.56,3.56,3.56,3.56,3.56,3.56,3.56,3.56,3.56,3.56,3.56,3.56,3.7183,3.9022,4.0781,4.2709,4.4536,4.6109,4.6583,4.7242,4.8377,4.8798,4.9001,4.9001,4.9001,4.9001,4.9001,4.9001,4.9001,4.9001,4.9001,4.9001,4.9001,4.9001,4.9001,4.9001,4.9001,4.9001,4.9001,4.9001,4.9001,4.9001,4.9001,4.9001,4.9001,4.9001,4.9001,4.8968,4.8631,4.8657,4.8819,4.8084,4.7745,4.7596,4.7202,4.6757,4.6454,4.6756,4.6652,4.6466,4.6767,4.6618,4.6305,4.6002,4.6143,4.6407,4.6407,4.6407,4.6301,4.5911,4.5425,4.4888,4.4194,4.3654,4.3475,4.403,4.4669,4.5488,4.6678,4.7399,4.7917,4.8258,4.8296,4.8296,4.8296,4.8296,4.8296,4.8296,4.8296,4.8296,4.8296,4.8296,4.8296,4.8296,4.8296,4.8296,4.8296,4.8296,4.8296,4.8296,4.8296,4.8296,4.8296,4.8296,4.8296,4.8296,4.7856,4.7214,3.5357,3.578,3.5752,3.5633,3.56,3.56,3.56,3.56,3.56,3.56,3.56,3.56,3.56,3.5712,3.578,3.578,3.7787,4.029,4.3017,4.4079,4.4871,4.5618,4.6244,4.6972,4.7819,4.8462,4.8883,4.9001,4.9001,4.9001,4.9001,4.9001,4.8951,4.8849,4.8817,4.8781,4.8663,4.8883,4.9001,4.9001,4.9001,4.9001,4.9001,4.9001,4.9001,4.9001,4.9001,4.8951,4.8832,4.8938,4.8899,4.8746,4.8237,4.8335,4.8695,4.7962,4.7712,4.7725,4.7708,4.7256,4.6778,4.7345,4.7143,4.6801,4.7374,4.7541,4.7417,4.6847,4.6698,4.6698,4.6698,4.6698,4.6698,4.6698,4.6507,4.6201,4.5697,4.5396,4.5098,4.4729,4.5607,4.646,4.6569,4.7557,4.8296,4.8296,4.8296,4.8296,4.8296,4.8296,4.8296,4.8296,4.8296,4.8296,4.8296,4.8296,4.8296,4.8296,4.8296,4.8296,4.8296,4.8296,4.8296,4.8296,4.8296,4.8296,4.8296,4.8296,4.8296,4.8296,4.8296,4.7874,3.6039,3.6615,3.6462,3.578,3.56,3.56,3.56,3.56,3.56,3.56,3.56,3.56,3.56,3.6163,3.6615,3.6615,3.9005,4.1457,4.3169,4.4079,4.4871,4.5618,4.5805,4.6399,4.7768,4.8005,4.8326,4.8951,4.9001,4.9001,4.9001,4.9001,4.8714,4.809,4.8073,4.7768,4.7141,4.8376,4.9001,4.9001,4.9001,4.9001,4.9001,4.9001,4.9001,4.9001,4.9001,4.8648,4.8101,4.8618,4.8462,4.7931,4.84,4.8628,4.863,4.7884,4.7927,4.8353,4.8226,4.8107,4.8035,4.8142,4.8094,4.8035,4.8124,4.8162,4.8152,4.8045,4.8007,4.8007,4.8007,4.8007,4.8007,4.8007,4.7472,4.6943,4.683,4.6266,4.5956,4.6547,4.6833,4.7192,4.7879,4.8157,4.8296,4.8296,4.8296,4.8296,4.8296,4.8296,4.8296,4.8296,4.8296,4.8296,4.8296,4.8296,4.8296,4.8296,4.8296,4.8296,4.8296,4.8296,4.8296,4.8296,4.8296,4.8296,4.8296,4.8296,4.8296,4.8296,4.8296,4.7874,3.5159,3.5853,3.6062,3.5684,3.5932,3.6129,3.5712,3.56,3.56,3.56,3.56,3.5718,3.6163,3.6547,3.7308,3.8916,4.0324,4.188,4.3775,4.4364,4.4719,4.5074,4.5466,4.5959,4.6652,4.7073,4.7445,4.7784,4.78,4.78,4.78,4.78,4.7665,4.7327,4.731,4.7141,4.68,4.7462,4.78,4.78,4.78,4.78,4.78,4.78,4.78,4.7831,4.8165,4.8117,4.7835,4.847,4.8553,4.8224,4.8151,4.8293,4.8536,4.8127,4.8147,4.8378,4.8319,4.8296,4.8296,4.8296,4.8296,4.8296,4.8296,4.8296,4.8296,4.8296,4.8296,4.8296,4.8296,4.8296,4.8296,4.8296,4.8021,4.7746,4.7746,4.7452,4.7315,4.7691,4.7746,4.7874,4.8241,4.8296,4.8296,4.8296,4.8296,4.8296,4.8296,4.8296,4.8296,4.8296,4.8296,4.8296,4.8296,4.8296,4.8296,4.8296,4.8296,4.8296,4.8296,4.8296,4.8296,4.8296,4.8296,4.8296,4.8296,4.8296,4.8296,4.8296,4.8296,4.8095,3.4263,3.4912,3.534,3.534,3.5943,3.6411,3.5983,3.5881,3.5932,3.6101,3.6152,3.6321,3.6936,3.719,3.8222,4.1018,4.1457,4.2185,4.4296,4.4615,4.4615,4.4615,4.5108,4.5517,4.5672,4.621,4.6599,4.68,4.68,4.68,4.68,4.68,4.6718,4.6549,4.6532,4.6447,4.6293,4.6293,4.6462,4.68,4.68,4.6857,4.7014,4.7014,4.7098,4.7281,4.774,4.7847,4.7727,4.8377,4.8554,4.8347,4.7926,4.8044,4.8445,4.8342,4.8296,4.8296,4.8296,4.8296,4.8296,4.8296,4.8296,4.8296,4.8296,4.8296,4.8296,4.8296,4.8296,4.8296,4.8296,4.8296,4.8296,4.8296,4.8296,4.8351,4.8563,4.86,4.86,4.86,4.86,4.8545,4.8333,4.8296,4.8296,4.8296,4.8296,4.8296,4.8296,4.8296,4.8296,4.8296,4.8296,4.8296,4.8296,4.8296,4.8296,4.8296,4.8296,4.8296,4.8296,4.8296,4.8296,4.8296,4.8296,4.8296,4.8296,4.8296,4.8296,4.8296,4.8296,4.8296,3.411,3.4533,3.4584,3.4584,3.5148,3.5864,3.6564,3.6699,3.6902,3.7589,3.7724,3.7741,3.7821,3.8379,3.9576,4.186,4.2232,4.2773,4.4378,4.4615,4.4615,4.4615,4.4649,4.4956,4.5635,4.5754,4.6058,4.675,4.68,4.68,4.68,4.68,4.6481,4.5805,4.5788,4.5449,4.477,4.4767,4.5447,4.68,4.68,4.7098,4.7644,4.7644,4.7961,4.8572,4.8605,4.8241,4.7662,4.8266,4.8105,4.7536,4.8046,4.8283,4.8312,4.8305,4.8296,4.8296,4.8296,4.8296,4.8296,4.8296,4.8296,4.8296,4.8296,4.8296,4.8296,4.8296,4.8296,4.8296,4.8296,4.8296,4.8296,4.8296,4.8296,4.8526,4.9325,4.9519,4.9519,4.9519,4.9519,4.9252,4.8434,4.8296,4.8296,4.8296,4.8296,4.8296,4.8296,4.8296,4.8296,4.8296,4.8296,4.8296,4.8296,4.8296,4.8296,4.8296,4.8296,4.8296,4.8296,4.8296,4.8296,4.8296,4.8296,4.8296,4.8296,4.8296,4.8296,4.8296,4.8296,4.8296,3.2987,3.3806,3.4398,3.3931,3.437,3.5115,3.5881,3.605,3.6389,3.764,3.7893,3.8029,3.8497,3.9186,4.0252,4.2012,4.23,4.2841,4.4381,4.4615,4.4615,4.4615,4.4615,4.4702,4.499,4.5024,4.5125,4.5413,4.543,4.543,4.543,4.543,4.5294,4.5024,4.5388,4.5448,4.5169,4.552,4.6003,4.6552,4.6165,4.6307,4.6886,4.6886,4.7035,4.7291,4.7711,4.7734,4.7521,4.8138,4.8211,4.7977,4.821,4.8296,4.8296,4.8296,4.8296,4.8296,4.8296,4.8296,4.8296,4.8296,4.8296,4.8296,4.8296,4.8296,4.8296,4.8296,4.8691,4.8976,4.8434,4.8296,4.8296,4.8296,4.8296,4.8545,4.9399,4.961,4.961,4.961,4.961,4.9325,4.8443,4.8296,4.8296,4.8296,4.8296,4.8296,4.8296,4.8296,4.8296,4.8296,4.8296,4.8296,4.8296,4.8296,4.8296,4.8296,4.8296,4.8296,4.8296,4.8296,4.8296,4.8296,4.8296,4.8296,4.8296,4.8296,4.8296,4.8296,4.8296,4.8296,3.1955,3.2689,3.3349,3.2831,3.3264,3.4127,3.534,3.5797,3.6485,3.8227,3.8582,3.8751,3.9254,3.9757,4.0574,4.2063,4.23,4.2841,4.4381,4.4615,4.4615,4.4615,4.4615,4.4615,4.4615,4.4615,4.4615,4.4615,4.4615,4.4615,4.4615,4.4615,4.4696,4.4879,4.528,4.5584,4.5783,4.6192,4.6513,4.671,4.6305,4.6329,4.671,4.671,4.6813,4.7033,4.7481,4.7677,4.7726,4.8142,4.8296,4.8296,4.8296,4.8296,4.8296,4.8296,4.8296,4.8296,4.8296,4.8296,4.8296,4.8296,4.8296,4.8296,4.8296,4.8296,4.8296,4.8296,4.894,4.9454,4.8866,4.8893,4.9095,4.9095,4.9095,4.9315,5.017,5.0363,5.0363,5.0363,5.0151,4.9711,4.8857,4.8489,4.8296,4.8296,4.8296,4.8296,4.8296,4.8296,4.8296,4.8296,4.8296,4.8296,4.8296,4.8296,4.8296,4.8296,4.8296,4.8296,4.8296,4.8296,4.8296,4.8296,4.8296,4.8296,4.8296,4.843,4.8486,4.8486,4.8622,4.8675,3.12,3.1217,3.1207,3.1207,3.1759,3.2892,3.5103,3.6231,3.7438,3.9639,4.0096,4.0096,4.0096,4.0096,4.0587,4.2046,4.23,4.2841,4.4364,4.4615,4.4615,4.4615,4.4615,4.4615,4.4615,4.4615,4.4615,4.4615,4.4615,4.4598,4.4598,4.4612,4.4893,4.5498,4.5507,4.5808,4.6389,4.6419,4.6744,4.7406,4.7406,4.7406,4.7406,4.7406,4.7736,4.8296,4.8296,4.8296,4.8296,4.8296,4.8296,4.8296,4.8296,4.8296,4.8296,4.8296,4.8296,4.8296,4.8296,4.8296,4.8296,4.8296,4.8296,4.8296,4.8296,4.8296,4.8296,4.8296,4.893,4.961,4.961,5.0196,5.082,5.0802,5.0802,5.1022,5.184,5.2005,5.2005,5.2005,5.1353,5.0545,4.9729,4.8875,4.8296,4.8296,4.8296,4.8296,4.8296,4.8296,4.8296,4.8296,4.8296,4.8296,4.8296,4.8296,4.8296,4.8296,4.8306,4.8306,4.8296,4.8296,4.8306,4.8306,4.8306,4.8306,4.8316,4.87,4.8905,4.8922,4.9318,4.9496,3.12,3.1572,3.1972,3.1972,3.2537,3.366,3.5938,3.6631,3.7438,3.9639,4.0096,4.0096,4.0096,4.0096,4.0405,4.1373,4.1965,4.2642,4.3609,4.4245,4.4615,4.4615,4.4615,4.4615,4.4615,4.4615,4.4615,4.4615,4.4984,4.5232,4.5232,4.5635,4.5952,4.6136,4.6601,4.6921,4.7106,4.7523,4.7838,4.8035,4.8035,4.8035,4.8035,4.8035,4.8142,4.8296,4.8296,4.8296,4.8296,4.8296,4.8296,4.8296,4.8296,4.8296,4.8296,4.8296,4.8296,4.8296,4.8296,4.8296,4.8296,4.8296,4.8296,4.8296,4.8296,4.8296,4.8296,4.8296,4.9334,5.0435,5.0435,5.1463,5.2205,5.1077,5.0802,5.1022,5.184,5.2005,5.2005,5.2005,5.1353,5.0545,4.9729,4.8875,4.8296,4.8296,4.8296,4.8296,4.8296,4.8296,4.8296,4.8296,4.8296,4.8296,4.8296,4.8296,4.8296,4.8296,4.8577,4.8595,4.8316,4.8296,4.843,4.8728,4.8718,4.8864,4.9139,4.9257,4.9326,4.9326,4.9445,4.9496,3.1382,3.1866,3.2344,3.2527,3.3372,3.4739,3.7,3.7823,3.8488,3.9825,4.0096,4.0096,4.0096,4.0096,4.0337,4.1085,4.1576,4.2219,4.3254,4.3826,4.4245,4.455,4.4814,4.4961,4.4961,4.5165,4.532,4.532,4.5661,4.587,4.587,4.6204,4.6524,4.6778,4.7194,4.752,4.7756,4.8114,4.8296,4.8296,4.8296,4.8296,4.8296,4.8296,4.8296,4.8296,4.8296,4.8296,4.8296,4.8296,4.8296,4.8296,4.8296,4.8296,4.8296,4.8296,4.8296,4.8296,4.8296,4.8296,4.8296,4.8296,4.8296,4.8296,4.8296,4.8296,4.8296,4.8296,4.9279,5.0306,5.0306,5.1518,5.2564,5.1911,5.1746,5.1903,5.2362,5.2472,5.2472,5.2472,5.1573,5.0655,5.017,4.9095,4.8296,4.8296,4.8296,4.8296,4.8296,4.8439,4.8541,4.8541,4.8541,4.8604,4.8771,4.864,4.8604,4.8771,4.9005,4.9037,4.8797,4.8789,4.888,4.9131,4.9139,4.9257,4.9496,4.9671,4.974,4.9746,4.9904,4.9974,3.1792,3.2137,3.2511,3.312,3.4494,3.6206,3.822,3.9512,4.0241,4.0179,4.0167,4.0179,4.0241,4.0254,4.0475,4.1146,4.1316,4.1813,4.3172,4.3413,4.3732,4.4459,4.509,4.5467,4.5467,4.6035,4.6407,4.6407,4.6466,4.6489,4.6489,4.653,4.6847,4.7459,4.747,4.7746,4.8296,4.8296,4.8296,4.8296,4.8296,4.8296,4.8296,4.8296,4.8296,4.8296,4.8296,4.8296,4.8296,4.8296,4.8296,4.8296,4.8296,4.8296,4.8296,4.8296,4.8296,4.8296,4.8296,4.8296,4.8296,4.8296,4.8296,4.8296,4.8296,4.8296,4.8296,4.8296,4.894,4.9629,4.9692,5.0849,5.2207,5.3012,5.3196,5.3196,5.3196,5.3196,5.3196,5.3196,5.1893,5.0802,5.0802,4.9397,4.8316,4.8345,4.8354,4.8373,4.8393,4.8736,4.8945,4.8945,4.8945,4.91,4.9467,4.9163,4.9108,4.9475,4.9532,4.9547,4.9547,4.9511,4.9511,4.9547,4.9547,4.9568,4.9603,4.9974,5.0159,5.0165,5.0534,5.0707,3.253,3.2882,3.3318,3.4954,3.6986,3.8722,3.9196,4.0411,4.1308,4.0827,4.0738,4.0874,4.1353,4.1424,4.1483,4.1659,4.2174,4.2653,4.2963,4.3518,4.3932,4.4107,4.4805,4.5264,4.5264,4.5953,4.6407,4.6407,4.6887,4.7183,4.7183,4.7617,4.7957,4.8094,4.8123,4.8172,4.8296,4.8296,4.8296,4.8296,4.8296,4.8296,4.8296,4.8296,4.8296,4.8296,4.8296,4.8296,4.8296,4.8296,4.8296,4.8296,4.8296,4.8296,4.8296,4.8296,4.8296,4.8296,4.8296,4.8296,4.8296,4.8296,4.8296,4.8296,4.8296,4.8296,4.8296,4.8296,4.894,4.9757,5.039,5.1271,5.2207,5.3012,5.3196,5.3196,5.3196,5.3196,5.3196,5.3196,5.1893,5.0802,5.0802,4.9397,4.842,4.8718,4.877,4.888,4.9195,4.9318,4.9371,4.9371,4.9371,4.9408,4.9489,4.9416,4.9408,4.9489,4.9793,4.9968,4.9968,4.9678,4.9657,4.9962,4.9968,5.0135,5.0437,5.0534,5.0565,5.0565,5.0663,5.0707,3.2526,3.3217,3.4151,3.6355,3.7937,3.9099,3.9698,4.0547,4.1336,4.1679,4.1534,4.1424,4.1729,4.181,4.181,4.181,4.2118,4.2497,4.2857,4.3224,4.3597,4.3957,4.4656,4.5103,4.5103,4.5728,4.6167,4.6167,4.6483,4.6671,4.6671,4.7346,4.7728,4.7728,4.8095,4.8296,4.8296,4.8296,4.8296,4.8296,4.8296,4.8296,4.8296,4.8296,4.8296,4.8296,4.8296,4.8296,4.8296,4.8296,4.8296,4.8296,4.8296,4.8296,4.8296,4.8296,4.8296,4.8296,4.8296,4.8296,4.8296,4.8296,4.8296,4.8344,4.8532,4.8586,4.8631,4.8822,4.9198,4.9738,5.0584,5.1403,5.2159,5.2767,5.3062,5.3196,5.3196,5.3196,5.3261,5.3444,5.2153,5.1111,5.134,4.998,4.8957,4.9155,4.9187,4.9265,4.9467,4.9678,4.9787,4.9787,4.9787,4.9872,5.0062,4.9904,4.9878,5.0062,5.0272,5.0394,5.0394,5.0183,5.0171,5.0375,5.0394,5.0488,5.0707,5.0707,5.0707,5.0707,5.0707,5.0707,3.2423,3.3715,3.5258,3.7319,3.8214,3.889,4.0086,4.0627,4.1256,4.2569,4.2372,4.1979,4.2083,4.2085,4.2085,4.2085,4.2085,4.2307,4.2927,4.2988,4.3227,4.3842,4.453,4.4951,4.4951,4.5532,4.5902,4.5902,4.5902,4.5902,4.5902,4.6535,4.6902,4.6902,4.7544,4.7884,4.7884,4.8021,4.8095,4.8095,4.8223,4.8296,4.8296,4.8296,4.8296,4.8296,4.8296,4.8296,4.8296,4.8296,4.8296,4.8296,4.8296,4.837,4.8508,4.8508,4.8657,4.8853,4.8853,4.8873,4.8929,4.8929,4.8836,4.8817,4.9286,4.9226,4.9105,4.9597,4.973,4.9919,5.079,5.1594,5.2332,5.2815,5.318,5.34,5.3326,5.3378,5.3524,5.3851,5.258,5.144,5.1556,5.0428,4.9518,4.9582,4.9596,4.9636,4.9706,5.0006,5.0195,5.0195,5.0195,5.0336,5.0673,5.038,5.0347,5.0678,5.0707,5.0707,5.0707,5.0707,5.0707,5.0707,5.0707,5.0707,5.0707,5.0707,5.0707,5.0707,5.0707,5.0707,3.3116,3.5261,3.7142,3.7471,3.8627,3.9904,4.0776,4.1548,4.2317,4.3218,4.2967,4.2722,4.3187,4.3267,4.3267,4.3267,4.3267,4.3304,4.3405,4.3423,4.345,4.356,4.4272,4.4748,4.4748,4.5434,4.5902,4.5902,4.5902,4.5902,4.5902,4.5993,4.6067,4.6067,4.6159,4.6214,4.6214,4.692,4.7259,4.7278,4.7966,4.8296,4.8296,4.8296,4.8296,4.8296,4.8296,4.8296,4.8296,4.8296,4.8296,4.8296,4.8296,4.8728,4.9334,4.9334,5.0036,5.0995,5.0995,5.1216,5.1509,5.1509,5.1023,5.0609,5.1364,5.0565,4.9581,5.039,5.062,5.0809,5.1632,5.2443,5.3239,5.4043,5.4279,5.4223,5.3814,5.404,5.4349,5.4406,5.3047,5.148,5.0074,4.9647,4.9629,4.9962,5.0031,5.0153,5.0493,5.0594,5.0619,5.0619,5.0619,5.0634,5.0707,5.0658,5.0634,5.0707,5.0707,5.0707,5.0707,5.0707,5.0707,5.0707,5.0707,5.0707,5.0707,5.0707,5.0707,5.0707,5.0707,5.0707,3.3248,3.4878,3.6321,3.7272,3.8025,3.888,4.0139,4.1048,4.1856,4.2653,4.3011,4.3223,4.3453,4.3506,4.3506,4.3506,4.3506,4.3506,4.3506,4.3506,4.3506,4.3506,4.3818,4.403,4.403,4.4342,4.4571,4.4571,4.4571,4.4571,4.4571,4.4984,4.5232,4.5232,4.5663,4.5902,4.5902,4.6241,4.6425,4.6425,4.6801,4.7186,4.7636,4.7636,4.7874,4.8296,4.8296,4.8296,4.8296,4.8296,4.86,4.9031,4.9031,4.9656,5.0556,5.0556,5.1065,5.174,5.174,5.1856,5.1997,5.1997,5.1763,5.1574,5.2166,5.1823,5.1355,5.1967,5.2131,5.2341,5.3181,5.3652,5.4078,5.4686,5.5007,5.5055,5.461,5.4505,5.4283,5.3566,5.302,5.2138,5.0458,5.0171,5.0237,5.041,5.0432,5.0493,5.0673,5.0707,5.0707,5.0707,5.0707,5.0707,5.0707,5.0707,5.0707,5.0707,5.0707,5.0707,5.0707,5.0707,5.0707,5.0707,5.0707,5.0707,5.0707,5.0707,5.0707,5.0707,5.0707,5.0707,3.3233,3.4271,3.5298,3.6541,3.7026,3.7613,3.9229,4.0065,4.0828,4.2047,4.2782,4.3267,4.3451,4.3506,4.3506,4.3506,4.3506,4.3506,4.3506,4.3506,4.3506,4.3506,4.3506,4.3506,4.3506,4.3506,4.3506,4.3506,4.3506,4.3506,4.3506,4.4066,4.4397,4.4397,4.4984,4.5287,4.5287,4.5498,4.57,4.5902,4.5902,4.6214,4.681,4.681,4.716,4.7841,4.817,4.8296,4.8306,4.8402,4.8965,4.9767,4.988,5.0691,5.1862,5.1862,5.2245,5.2799,5.2799,5.2845,5.2948,5.2948,5.2797,5.273,5.3232,5.3089,5.2862,5.3376,5.353,5.3683,5.4337,5.4645,5.488,5.5185,5.5489,5.5629,5.5319,5.4862,5.4147,5.2971,5.2817,5.2414,5.0957,5.0707,5.0707,5.0707,5.0707,5.0707,5.0707,5.0707,5.0707,5.0707,5.0707,5.0707,5.0707,5.0707,5.0707,5.0707,5.0707,5.0707,5.0707,5.0707,5.0707,5.0707,5.0707,5.0707,5.0707,5.0707,5.0707,5.0707,5.0707,5.0707,3.3197,3.4098,3.5016,3.5114,3.5745,3.678,3.8395,3.8799,3.9489,4.1827,4.2323,4.2598,4.3359,4.3506,4.3506,4.3506,4.3506,4.3506,4.3506,4.3506,4.3506,4.3506,4.3506,4.3506,4.3506,4.3506,4.3506,4.3506,4.3506,4.3506,4.3506,4.3543,4.3561,4.3561,4.3598,4.3616,4.3616,4.4378,4.514,4.5902,4.5902,4.592,4.5957,4.5957,4.6171,4.6574,4.7786,4.8296,4.8335,4.87,4.9382,5.0206,5.0585,5.1699,5.311,5.311,5.3878,5.4935,5.4935,5.5185,5.5511,5.5511,5.4992,5.4512,5.5297,5.4432,5.3355,5.4178,5.4434,5.4434,5.4491,5.5074,5.5645,5.5668,5.5678,5.5684,5.5668,5.5055,5.4237,5.335,5.2514,5.1697,5.0842,5.0707,5.0707,5.0707,5.0707,5.0707,5.0707,5.0707,5.0707,5.0707,5.0707,5.0707,5.0707,5.0707,5.0707,5.0707,5.0707,5.0707,5.0707,5.0707,5.0707,5.0707,5.0707,5.0707,5.0707,5.0707,5.0707,5.0707,5.0707,5.0707,3.3199,3.3694,3.4351,3.4869,3.5224,3.5764,3.6909,3.7955,3.8938,3.9808,4.1222,4.2396,4.2671,4.3157,4.3506,4.3506,4.3506,4.3506,4.3506,4.3506,4.3506,4.3506,4.3506,4.3506,4.3506,4.3506,4.3506,4.3506,4.3506,4.3506,4.3506,4.3506,4.3506,4.3506,4.3506,4.3506,4.3506,4.38,4.4066,4.4369,4.4369,4.4737,4.5451,4.5451,4.593,4.6806,4.728,4.7479,4.7569,4.8779,4.9768,5.0637,5.1869,5.3201,5.4427,5.4427,5.4867,5.5489,5.5489,5.5582,5.5708,5.5708,5.5516,5.5324,5.5612,5.528,5.4876,5.5184,5.5266,5.5266,5.5266,5.5478,5.5708,5.5708,5.5708,5.5555,5.503,5.4703,5.4241,5.3371,5.2505,5.164,5.0842,5.0707,5.0707,5.0707,5.0707,5.0707,5.0707,5.0707,5.0707,5.0707,5.0707,5.0707,5.0707,5.0707,5.0707,5.0707,5.0707,5.0707,5.0707,5.0707,5.0938,5.1467,5.0957,5.0707,5.0707,5.0707,5.0707,5.0707,5.0707,5.0707,3.3397,3.3592,3.3935,3.4454,3.4601,3.4821,3.5672,3.6699,3.7617,3.8175,3.979,4.1167,4.1442,4.2359,4.3194,4.3451,4.3506,4.3506,4.3506,4.3506,4.3506,4.3506,4.3506,4.3506,4.3506,4.3506,4.3506,4.3506,4.3506,4.3506,4.3506,4.3506,4.3506,4.3506,4.3506,4.3506,4.3506,4.3614,4.367,4.367,4.3807,4.4261,4.4994,4.4994,4.5646,4.6764,4.6764,4.6842,4.7123,4.8634,4.9749,5.0652,5.2163,5.346,5.4452,5.4452,5.4628,5.4857,5.4857,5.4857,5.4914,5.5203,5.5304,5.5343,5.5612,5.5708,5.5708,5.5708,5.5708,5.5708,5.5708,5.5708,5.5631,5.5362,5.5304,5.5068,5.4241,5.4068,5.3818,5.2928,5.2082,5.1337,5.0784,5.0707,5.0707,5.0707,5.0707,5.0707,5.0707,5.0707,5.0707,5.0707,5.0707,5.0707,5.0707,5.0707,5.0707,5.0707,5.0707,5.0822,5.1087,5.0842,5.1087,5.1885,5.1375,5.1106,5.1106,5.0822,5.0842,5.1106,5.0822,5.0707,0.0,0.0,0.0,3.3807,3.3807,3.4002,3.4784,3.4979,3.5463,3.7081,3.8091,3.8909,3.9688,4.113,4.2488,4.3267,4.3451,4.3506,4.3506,4.3506,4.3506,4.3506,4.3506,4.3506,4.3506,4.3506,4.3506,4.3506,4.3506,4.3506,4.3506,4.3506,4.3506,4.3506,4.3506,4.3496,4.3513,4.3852,4.4016,4.4013,4.4438,4.4637,4.4643,4.4688,4.5305,4.6345,4.6345,4.6605,4.714,4.8352,4.9355,5.0236,5.146,5.2467,5.3197,5.3197,5.3197,5.3197,5.3197,5.3197,5.3332,5.4184,5.4453,5.4607,5.5401,5.5631,5.5631,5.5631,5.5631,5.5631,5.5631,5.5631,5.5439,5.4645,5.4453,5.4222,5.3351,5.3159,5.2909,5.2058,5.1241,5.0707,5.0707,5.0707,5.0707,5.0707,5.0707,5.0707,5.0707,5.0707,5.0707,5.0707,5.0707,5.0707,5.0707,5.0726,5.0745,5.0745,5.0765,5.1125,5.1904,5.1183,5.1144,5.1962,5.1942,5.1962,5.2,5.1183,5.1183,5.1923,5.1106,5.0726,3.3807,0.0,0.0,0.0,0.0,0.0,3.4075,3.4582,3.5133,3.5598,3.6835,3.7889,3.8109,3.9486,4.0642,4.0863,4.2368,4.3506,4.3506,4.3506,4.3506,4.3506,4.3506,4.3506,4.3506,4.3506,4.3506,4.3506,4.3506,4.3506,4.3506,4.3506,4.3506,4.3506,4.3506,4.3622,4.3857,4.3955,4.4139,4.444,4.5131,4.5597,4.5846,4.6486,4.7065,4.7597,4.7597,4.7687,4.7921,4.9524,5.0328,5.0678,5.2249,5.2986,5.3197,5.3197,5.3197,5.3197,5.3197,5.3197,5.3236,5.3491,5.3568,5.3606,5.3818,5.3895,5.3895,5.3895,5.3895,5.3895,5.3895,5.3895,5.3837,5.3606,5.3568,5.3313,5.2447,5.2255,5.2197,5.1942,5.1241,5.0707,5.0707,5.0707,5.0707,5.0707,5.0707,5.0707,5.0707,5.0707,5.0707,5.0707,5.0707,5.0707,5.0707,5.1221,5.1563,5.1563,5.2164,5.2606,5.2832,5.2626,5.2914,5.376,5.3159,5.3428,5.4645,5.3203,5.2626,5.2813,5.1967,5.126,0.0,0.0,0.0,0.0,0.0,0.0,3.3807,3.4167,3.4491,3.4491,3.5543,3.6468,3.6468,3.7797,3.9009,3.9331,4.0863,4.2239,4.29,4.301,4.3121,4.3451,4.3506,4.3506,4.3506,4.3506,4.3506,4.3506,4.3506,4.3506,4.3506,4.3506,4.3506,4.3506,4.3506,4.3662,4.4009,4.418,4.4611,4.5318,4.5943,4.6535,4.7079,4.7582,4.8105,4.8644,4.8644,4.8856,4.926,5.0284,5.0495,5.0284,5.1625,5.2164,5.2164,5.2164,5.2164,5.2164,5.2164,5.2164,5.2202,5.2544,5.2659,5.2736,5.3082,5.3197,5.3197,5.3197,5.3197,5.3197,5.3197,5.3197,5.3101,5.2736,5.2659,5.2428,5.1582,5.1395,5.1395,5.1395,5.1015,5.0707,5.0707,5.0707,5.0707,5.0707,5.0707,5.0707,5.0707,5.0707,5.0707,5.0707,5.0707,5.0842,5.1164,5.162,5.2058,5.2428,5.2928,5.3351,5.3722,5.339,5.3606,5.4472,5.3991,5.4395,5.5708,5.403,5.3197,5.3197,5.2678,5.2197,0.0,0.0,0.0,0.0,0.0,0.0,3.3807,3.3807,3.3807,3.3807,3.4369,3.4876,3.4876,3.6156,3.7467,3.8167,3.9056,4.0238,4.1937,4.2176,4.2433,4.3157,4.3231,4.3267,4.3359,4.3378,4.3396,4.3488,4.3506,4.3506,4.3506,4.3539,4.3565,4.3565,4.3597,4.3828,4.4255,4.4525,4.5273,4.6498,4.6863,4.7466,4.8255,4.8332,4.8817,4.9529,4.9529,4.9976,5.0707,5.0707,5.0245,4.963,5.0399,5.0707,5.0707,5.0707,5.0707,5.0707,5.0707,5.0707,5.0822,5.1524,5.1774,5.1909,5.2678,5.2914,5.2914,5.2914,5.2914,5.2914,5.2914,5.2914,5.2736,5.1947,5.1774,5.1563,5.0842,5.0707,5.0707,5.0707,5.0707,5.0707,5.0707,5.0707,5.0707,5.0707,5.0707,5.0707,5.0707,5.0784,5.0803,5.0707,5.0784,5.1125,5.1846,5.1981,5.2428,5.3294,5.3433,5.3837,5.4607,5.3895,5.3837,5.4626,5.4626,5.4991,5.5708,5.4203,5.3428,5.3332,5.3332,5.3236,0.0,0.0,0.0,0.0,0.0,0.0,3.3807,3.3807,3.3807,3.3807,3.3917,3.402,3.402,3.4828,3.5536,3.5701,3.6982,3.8752,4.103,4.1342,4.1397,4.1544,4.158,4.1819,4.247,4.2525,4.28,4.3451,4.3506,4.3506,4.3506,4.3767,4.3893,4.3893,4.4216,4.4862,4.5845,4.5289,4.593,4.7746,4.7832,4.8317,4.9163,4.988,5.0284,5.0457,5.0457,5.0534,5.0707,5.0707,5.0592,5.0457,5.063,5.0707,5.0707,5.0707,5.0707,5.0707,5.0707,5.0707,5.0726,5.088,5.0938,5.0976,5.1149,5.1188,5.1188,5.1188,5.1188,5.1188,5.1188,5.1188,5.1149,5.0976,5.0938,5.0899,5.0726,5.0707,5.0707,5.0707,5.0707,5.0707,5.0707,5.0707,5.0707,5.0707,5.0707,5.0707,5.0707,5.1279,5.1414,5.0765,5.1279,5.1736,5.1885,5.2544,5.3313,5.4184,5.4857,5.528,5.5458,5.5299,5.528,5.5458,5.5478,5.5535,5.5708,5.5381,5.4876,5.4241,5.4241,5.3491,0.0,0.0,0.0,3.3807,0.0,0.0,0.0,3.3807,3.3807,3.3807,3.3807,3.3807,3.3807,3.413,3.4527,3.4924,3.6075,3.732,3.8534,3.9745,4.0645,4.104,4.1095,4.1268,4.1654,4.169,4.2047,4.2837,4.3053,4.3323,4.3721,4.4099,4.429,4.429,4.4494,4.4946,4.5693,4.5693,4.6506,4.8101,4.8548,4.9202,5.0053,5.0495,5.0707,5.0707,5.0707,5.0707,5.0707,5.0707,5.0707,5.0707,5.0707,5.0707,5.0707,5.0707,5.0707,5.0707,5.0707,5.0707,5.0707,5.0707,5.0707,5.0707,5.0707,5.0707,5.0707,5.0707,5.0707,5.0707,5.0707,5.0707,5.0707,5.0707,5.0707,5.0707,5.0707,5.0707,5.0707,5.0707,5.0707,5.0707,5.0707,5.0707,5.0707,5.0707,5.1034,5.1298,5.1298,5.2024,5.239,5.1991,5.2313,5.2717,5.3159,5.3606,5.4203,5.5054,5.5478,5.5708,5.5708,5.5708,5.5708,5.5708,5.5708,5.5708,5.5708,5.5304,5.5112,5.5093,5.4684,5.403,0.0,0.0,0.0,0.0,0.0,3.3807,0.0,0.0,0.0,3.3807,3.3807,3.3807,3.3807,3.3807,3.4057,3.4869,3.5598,3.6101,3.6273,3.7981,3.9515,4.0314,4.0534,4.07,4.0846,4.1012,4.1393,4.21,4.2429,4.2961,4.3815,4.4224,4.4512,4.4688,4.4921,4.5248,4.5673,4.6314,4.7291,4.8606,4.9144,4.9861,5.0707,5.0707,5.0707,5.0707,5.0707,5.0707,5.0707,5.0707,5.0707,5.0707,5.0707,5.0707,5.0707,5.0707,5.0707,5.0707,5.0707,5.0707,5.0707,5.0707,5.0707,5.0707,5.0707,5.0707,5.0707,5.0707,5.0707,5.0707,5.0707,5.0707,5.0707,5.0707,5.0707,5.0745,5.0899,5.0803,5.0745,5.0899,5.0803,5.0707,5.0707,5.0822,5.0938,5.0938,5.1625,5.2159,5.2159,5.2909,5.3395,5.3217,5.3351,5.3741,5.4434,5.4491,5.4838,5.5651,5.5708,5.5708,5.5708,5.5708,5.5708,5.5708,5.5708,5.5708,5.5708,5.5054,5.5049,5.5689,5.4876,5.4491,0.0,0.0,0.0,0.0,3.3807,0.0,0.0,0.0,3.3807,3.3807,0.0,3.3807,3.3807,0.0,0.0,3.4869,3.5071,3.5426,3.6193,3.6541,3.7008,3.7815,3.8542,3.925,3.9963,4.0681,4.1256,4.1646,4.1719,4.2226,4.3332,4.3704,4.4236,4.5028,4.6074,4.6997,4.7756,4.7852,4.8731,5.0399,4.9726,4.9861,5.0707,5.0707,5.0707,5.0707,5.0707,5.0707,5.0707,5.0707,5.0707,5.0707,5.0707,5.0707,5.0707,5.0707,5.0707,5.0707,5.0707,5.0707,5.0707,5.0707,5.0707,5.0707,5.0707,5.0707,5.0707,5.0707,5.0707,5.0707,5.0707,5.0707,5.0707,5.0707,5.0707,5.0899,5.1601,5.1202,5.0919,5.162,5.1183,5.0707,5.0707,5.1298,5.1755,5.1755,5.2505,5.3044,5.3044,5.3818,5.4068,5.3274,5.3895,5.4395,5.4491,5.4491,5.4838,5.5651,5.5708,5.5708,5.5708,5.5708,5.5708,5.5708,5.5708,5.5708,5.5708,5.5612,5.5612,5.5689,5.4876,5.4491,0.0,0.0,0.0,0.0,0.0,0.0,3.3917,0.0,3.3807,0.0,0.0,0.0,0.0,0.0,0.0,0.0,3.4692,3.4968,3.4853,3.5679,3.6439,3.6751,3.7503,3.8329,3.9129,3.9507,4.0027,4.08,4.106,4.1669,4.2781,4.3629,4.426,4.4624,4.6108,4.7062,4.7408,4.8375,4.9221,4.9957,5.0091,5.0341,5.0707,5.0707,5.0707,5.0707,5.0707,5.0707,5.0707,5.0707,5.0707,5.0707,5.0707,5.0707,5.0707,5.0707,5.0707,5.0707,5.0707,5.0707,5.0707,5.0707,5.0707,5.0707,5.0707,5.0707,5.0707,5.0707,5.0707,5.0707,5.0707,5.0707,5.0822,5.1298,5.1395,5.1486,5.1832,5.164,5.1505,5.1827,5.162,5.1568,5.2068,5.2005,5.2077,5.2582,5.3395,5.3953,5.3953,5.4684,5.5049,5.4684,5.4972,5.5208,5.5208,5.5208,5.5343,5.5689,5.5708,5.5708,5.5708,5.5708,5.5708,5.5708,5.5708,5.5708,5.5708,5.5228,5.5247,5.5689,5.4876,5.4491,3.4735,0.0,0.0,0.0,0.0,0.0,0.0,0.0,0.0,0.0,0.0,0.0,0.0,0.0,0.0,0.0,0.0,3.4546,3.4185,3.5,3.5697,3.5917,3.6861,3.7724,3.8303,3.8579,3.9095,4.0032,4.0384,4.1054,4.224,4.3145,4.3835,4.4297,4.5985,4.7005,4.7235,4.8913,4.9764,4.9764,5.0399,5.0707,5.0707,5.0707,5.0707,5.0707,5.0707,5.0707,5.0707,5.0707,5.0707,5.0707,5.0707,5.0707,5.0707,5.0707,5.0707,5.0707,5.0707,5.0707,5.0707,5.0707,5.0707,5.0707,5.0707,5.0707,5.0707,5.0707,5.0707,5.0707,5.0707,5.0707,5.0842,5.1428,5.1736,5.1904,5.1904,5.2096,5.2255,5.2255,5.2255,5.2524,5.3414,5.3024,5.2832,5.3453,5.428,5.4818,5.4818,5.5343,5.5708,5.5708,5.5708,5.5708,5.5708,5.5708,5.5708,5.5708,5.5708,5.5708,5.5708,5.5708,5.5708,5.5708,5.5708,5.5708,5.5708,5.5146,5.5181,5.574,5.4893,5.4626,0.0,0.0,0.0,3.4072,0.0,0.0,0.0,0.0,3.3807,0.0,0.0,0.0,0.0,0.0,0.0,0.0,0.0,0.0,0.0,3.4332,3.4167,3.4949,3.6505,3.7511,3.7529,3.823,3.8953,3.9578,3.9637,4.0276,4.1741,4.1865,4.262,4.4239,4.5985,4.7274,4.8043,4.9784,5.0649,5.0649,5.0688,5.0707,5.0707,5.0707,5.0707,5.0707,5.0707,5.0707,5.0707,5.0707,5.0707,5.0707,5.0707,5.0707,5.0707,5.0707,5.0707,5.0707,5.0707,5.0707,5.0707,5.0707,5.0707,5.0707,5.0707,5.0707,5.0707,5.0707,5.0707,5.0707,5.0707,5.0707,5.0707,5.0726,5.1337,5.1904,5.1904,5.2563,5.3159,5.3159,5.3159,5.3433,5.4318,5.4434,5.4434,5.4453,5.5145,5.567,5.567,5.5689,5.5708,5.5708,5.5708,5.5708,5.5708,5.5708,5.5708,5.5708,5.5708,5.5708,5.5708,5.5708,5.5708,5.5708,5.5708,5.5708,5.5708,5.58,5.5869,5.5865,5.494,5.4914,3.6949,3.7009,3.7149,3.6006,3.5725,3.5512,0.0,0.0,0.0,0.0,0.0,0.0,0.0,0.0,0.0,0.0,0.0,0.0,0.0,3.2375,3.2302,3.2596,3.4534,3.6285,3.7401,3.7902,3.8566,3.9532,3.9803,4.0239,4.09,4.1485,4.2312,4.347,4.5716,4.7293,4.8082,4.9822,5.0707,5.0707,5.0707,5.0707,5.0707,5.0707,5.0707,5.0707,5.0707,5.0707,5.0707,5.0707,5.0707,5.0707,5.0707,5.0707,5.0707,5.0707,5.0707,5.0707,5.0707,5.0707,5.0707,5.0707,5.0707,5.0707,5.0707,5.0707,5.0707,5.0707,5.0707,5.0707,5.0707,5.0707,5.0976,5.2087,5.2563,5.2928,5.351,5.3857,5.4068,5.4068,5.4068,5.4318,5.5145,5.5285,5.5285,5.5285,5.5535,5.5708,5.5708,5.5708,5.5708,5.5708,5.5708,5.5708,5.5708,5.5708,5.5708,5.5708,5.5708,5.5708,5.5708,5.5708,5.5708,5.5708,5.5784,5.5824,5.5824,5.6003,5.6094,5.609,5.5763,5.5774,3.8039,3.8179,3.8304,3.7161,3.6872,3.6577,3.5437,0.0,3.4404,0.0,0.0,0.0,0.0,0.0,0.0,0.0,0.0,0.0,0.0,3.139,3.139,3.139,3.3275,3.5158,3.6643,3.7453,3.8409,3.9672,3.9982,4.0213,4.0485,4.1335,4.2196,4.3066,4.5278,4.6971,4.8082,4.951,5.038,5.0707,5.0707,5.0707,5.0707,5.0707,5.0707,5.0707,5.0707,5.0707,5.0707,5.0707,5.0707,5.0707,5.0707,5.0707,5.0707,5.0707,5.0707,5.0707,5.0707,5.0707,5.0707,5.0707,5.0707,5.0707,5.0707,5.0707,5.0822,5.1419,5.1169,5.0899,5.1823,5.1592,5.1471,5.2876,5.3433,5.3722,5.3972,5.4511,5.4838,5.4549,5.4722,5.5088,5.5612,5.5708,5.5708,5.5708,5.5708,5.5708,5.5708,5.5708,5.5726,5.576,5.5728,5.5708,5.5708,5.5708,5.5708,5.5708,5.5708,5.5712,5.5769,5.5769,5.5798,5.5885,5.5967,5.601,5.601,5.6177,5.626,5.6262,5.632,5.6337]}]]